[[{"header":{"parameterUnit":"m.s-1","parameterCategory":1,"la1":30.6,"la2":29.2853,"lo1":-89.7004,"lo2":-87.6739,"dy":0.0162,"dx":0.0183,"nx":112,"ny":82,"refTime":"2023-07-29T06:00:00:Z","depth":0,"parameterNumber":2,"parameterNumberName":"U-component_of_WINDS"},"data":[0.0,0.0,0.0,0.0,0.0,0.0,0.0,0.0,0.0,0.0,0.0,0.0,0.0,0.0,0.0,0.0,0.0,0.0,0.0,0.0,0.0,0.0,0.0,0.0,0.0,0.0,0.0,0.0,0.0,0.0,0.0,0.0,0.0,0.0,0.0,0.0,0.0,0.0,0.0,0.0,0.0,0.0,0.0,0.0,0.0,0.0,0.0,0.0,0.0,0.0,0.0,0.0,0.0,0.0,0.0,0.0,0.0,0.0,0.0,0.0,0.0,0.0,0.0,0.0,0.0,0.0,0.0,0.0,0.0,0.0,0.0,0.0,0.0,0.0,0.0,0.0,0.0,0.0,0.0,0.0,0.0,0.0,0.0,0.0,0.0,0.0,0.0,0.0,0.0,0.0,1.4367,1.4185,1.3322,1.2365,1.1534,1.1413,1.1662,1.2267,0.0,0.0,0.0,0.0,0.0,0.0,0.0,0.0,0.0,0.0,0.0,0.0,0.0,0.0,0.0,0.0,0.0,0.0,0.0,0.0,0.0,0.0,0.0,0.0,0.0,0.0,0.0,0.0,0.0,0.0,0.0,0.0,0.0,0.0,0.0,0.0,0.0,0.0,0.0,0.0,0.0,0.0,0.0,0.0,0.0,0.0,0.0,0.0,0.0,0.0,0.0,0.0,0.0,0.0,0.0,0.0,0.0,0.0,0.0,0.0,0.0,0.0,0.0,0.0,0.0,0.0,0.0,0.0,0.0,0.0,0.0,0.0,0.0,0.0,0.0,0.0,0.0,0.0,0.0,0.0,0.0,0.0,0.0,0.0,0.0,0.0,0.0,0.0,0.0,0.0,0.0,0.0,0.0,0.0,0.0,0.0,0.0,0.0,0.0,0.0,0.0,0.0,0.0,0.0,1.3558,1.2063,1.1144,1.0713,1.0897,1.0623,1.0855,1.1855,0.0,0.0,0.0,0.0,0.0,0.0,0.0,0.0,0.0,0.0,0.0,0.0,0.0,0.0,0.0,0.0,0.0,0.0,0.0,0.0,0.0,0.0,0.0,0.0,0.0,0.0,0.0,0.0,0.0,0.0,0.0,0.0,0.0,0.0,0.0,0.0,0.0,0.0,0.0,0.0,0.0,0.0,0.0,0.0,0.0,0.0,0.0,0.0,0.0,0.0,0.0,0.0,0.0,0.0,0.0,0.0,0.0,0.0,0.0,0.0,0.0,0.0,0.0,0.0,0.0,0.0,0.0,0.0,0.0,0.0,0.0,0.0,0.0,0.0,0.0,0.0,0.0,0.0,0.0,0.0,0.0,0.0,0.0,0.0,0.0,0.0,0.0,0.0,0.0,0.0,0.0,0.0,0.0,0.0,0.0,0.0,0.0,0.0,0.0,0.0,0.0,0.0,0.0,1.3014,1.1913,1.0779,1.0195,0.9918,1.002,0.9883,1.005,1.0772,1.1288,0.0,0.0,0.0,0.0,0.0,0.0,0.0,0.0,0.0,0.0,0.0,0.0,0.0,0.0,0.0,0.0,0.0,0.0,0.0,0.0,0.0,0.0,0.0,0.0,0.0,0.0,0.0,0.0,0.0,0.0,0.0,0.0,0.0,0.0,0.0,0.0,0.0,0.0,0.0,0.0,0.0,0.0,0.0,0.0,0.0,0.0,0.0,0.0,0.0,0.0,0.0,0.0,0.0,0.0,0.0,0.0,0.0,0.0,0.0,0.0,0.0,0.0,0.0,0.0,0.0,0.0,0.0,0.0,0.0,0.0,0.0,0.0,0.0,0.0,0.0,0.0,0.0,0.0,0.0,0.0,0.0,0.0,0.0,0.0,0.0,0.0,0.0,0.0,0.0,0.0,0.0,0.0,0.0,0.0,0.0,0.0,0.0,0.0,0.0,0.0,0.0,0.0,1.1453,1.053,1.0075,0.971,0.9472,0.9337,0.9361,0.9569,0.9918,1.032,0.0,0.0,0.0,0.0,0.0,0.0,0.0,0.0,0.0,0.0,0.0,0.0,0.0,0.0,0.0,0.0,0.0,0.0,0.0,0.0,0.0,0.0,0.0,0.0,0.0,0.0,0.0,0.0,0.0,0.0,0.0,0.0,0.0,0.0,0.0,0.0,0.0,0.0,0.0,0.0,0.0,0.0,0.0,0.0,0.0,0.0,0.0,0.0,0.0,0.0,0.0,0.0,0.0,0.0,0.0,0.0,0.0,0.0,0.0,0.0,0.0,0.0,0.0,0.0,0.0,0.0,0.0,0.0,0.0,0.0,0.0,0.0,0.0,0.0,0.0,0.0,0.0,0.0,0.0,0.0,0.0,0.0,0.0,0.0,0.0,0.0,0.0,0.0,0.0,0.0,0.0,0.0,0.0,0.0,0.0,0.0,0.0,0.0,0.0,0.0,0.0,0.0,1.1131,1.009,1.0085,0.9592,0.9159,0.9061,0.9278,0.9546,0.9799,0.997,0.0,0.0,0.0,0.0,0.0,0.0,0.0,0.0,0.0,0.0,0.0,0.0,0.0,0.0,0.0,0.0,0.0,0.0,0.0,0.0,0.0,0.0,0.0,0.0,0.0,0.0,0.0,0.0,0.0,0.0,0.0,0.0,0.0,0.0,0.0,0.0,0.0,0.0,0.0,0.0,0.0,0.0,0.0,0.0,0.0,0.0,0.0,0.0,0.0,0.0,0.0,0.0,0.0,0.0,0.0,0.0,0.0,0.0,0.0,0.0,0.0,0.0,0.0,0.0,0.0,0.0,0.0,0.0,0.0,0.0,0.0,0.0,0.0,0.0,0.0,0.0,0.0,0.0,0.0,0.0,0.0,0.0,0.0,0.0,0.0,0.0,0.0,0.0,0.0,0.0,0.0,0.0,0.0,0.0,0.0,0.0,0.0,0.0,0.0,0.0,0.0,0.0,1.0902,1.0122,0.9728,0.9405,0.9207,0.9268,0.9172,0.9344,0.9807,0.0,0.0,0.0,0.0,0.0,0.0,0.0,0.0,0.0,0.0,0.0,0.0,0.0,0.0,0.0,0.0,0.0,0.0,0.0,0.0,0.0,0.0,0.0,0.0,0.0,0.0,0.0,0.0,0.0,0.0,0.0,0.0,0.0,0.0,0.0,0.0,0.0,0.0,0.0,0.0,0.0,0.0,0.0,0.0,0.0,0.0,0.0,0.0,0.0,0.0,0.0,0.0,0.0,0.0,0.0,0.0,0.0,0.0,0.0,0.0,0.0,0.0,0.0,0.0,0.0,0.0,0.0,0.0,0.0,0.0,0.0,0.0,0.0,0.0,0.0,0.0,0.0,0.0,0.0,0.0,0.0,0.0,0.0,0.0,0.0,0.0,0.0,0.0,0.0,0.0,0.0,0.0,0.0,0.0,0.0,0.0,0.0,0.0,0.0,0.0,0.0,0.0,1.1245,1.0651,1.0101,0.9617,0.9348,0.9232,0.9212,0.907,0.922,0.9627,0.0,0.0,0.0,0.0,0.0,0.0,0.0,0.0,0.0,0.0,0.0,0.0,0.0,0.0,0.0,0.0,0.0,0.0,0.0,0.0,0.0,0.0,0.0,0.0,0.0,0.0,0.0,0.0,0.0,0.0,0.0,0.0,0.0,0.0,0.0,0.0,0.0,0.0,0.0,0.0,0.0,0.0,0.0,0.0,0.0,0.0,0.0,0.0,0.0,0.0,0.0,0.0,0.0,0.0,0.0,0.0,0.0,0.0,0.0,0.0,0.0,0.0,0.0,0.0,0.0,0.0,0.0,0.0,0.0,0.0,0.0,0.0,0.0,0.0,0.0,0.0,0.0,0.0,0.0,0.0,0.0,0.0,0.0,0.0,0.0,0.0,0.0,0.0,0.0,0.0,0.0,0.0,0.0,0.0,0.0,0.0,0.0,0.0,0.0,0.0,0.0,0.0,1.1038,1.0365,0.9911,0.9904,0.9475,0.907,0.8838,0.8901,0.9047,0.0,0.0,0.0,0.0,0.0,0.0,0.0,0.0,0.0,0.0,0.0,0.0,0.0,0.0,0.0,0.0,0.0,0.0,0.0,0.0,0.0,0.0,0.0,0.0,0.0,0.0,0.0,0.0,0.0,0.0,0.0,0.0,0.0,0.0,0.0,0.0,0.0,0.0,0.0,0.0,0.0,0.0,0.0,0.0,0.0,0.0,0.0,0.0,0.0,0.0,0.0,0.0,0.0,0.0,0.0,0.0,0.0,0.0,0.0,0.0,0.0,0.0,0.0,0.0,0.0,0.0,0.0,0.0,0.0,0.0,0.0,0.0,0.0,0.0,0.0,0.0,0.0,0.0,0.0,0.0,0.0,0.0,0.0,0.0,0.0,0.0,0.0,0.0,0.0,0.0,0.0,0.0,0.0,0.0,0.0,0.0,0.0,0.0,0.0,0.0,0.0,0.0,0.0,1.0114,1.0334,1.0255,0.9603,0.9542,0.9402,0.9114,0.8941,0.9026,0.9323,0.0,0.0,0.0,0.0,0.0,0.0,0.0,0.0,0.0,0.0,0.0,0.0,0.0,0.0,0.0,0.0,0.0,0.0,0.0,0.0,0.0,0.0,0.0,0.0,0.0,0.0,0.0,0.0,0.0,0.0,0.0,0.0,0.0,0.0,0.0,0.0,0.0,0.0,0.0,0.0,0.0,0.0,0.0,0.0,0.0,0.0,0.0,0.0,0.0,0.0,0.0,0.0,0.0,0.0,0.0,0.0,0.0,0.0,0.0,0.0,0.0,0.0,0.0,0.0,0.0,0.0,0.0,0.0,0.0,0.0,0.0,0.0,0.0,0.0,0.0,0.0,0.0,0.0,0.0,0.0,0.0,0.0,0.0,0.0,0.0,0.0,0.0,0.0,0.0,0.0,0.0,0.0,0.0,0.0,0.0,0.0,0.0,0.0,0.0,0.0,0.0,0.0,0.9987,1.0172,1.0124,0.9537,0.9408,0.923,0.8993,0.8817,0.8867,0.9219,0.0,0.0,0.0,0.0,0.0,0.0,0.0,0.0,0.0,0.0,0.0,0.0,0.0,0.0,0.0,0.0,0.0,0.0,0.0,0.0,0.0,0.0,0.0,0.0,0.0,0.0,0.0,0.0,0.0,0.0,0.0,0.0,0.0,0.0,0.0,0.0,0.0,0.0,0.0,0.0,0.0,0.0,0.0,0.0,0.0,0.0,0.0,0.0,0.0,0.0,0.0,0.0,0.0,0.0,0.0,0.0,0.0,0.0,0.0,0.0,0.0,0.0,0.0,0.0,0.0,0.0,0.0,0.0,0.0,0.0,0.0,0.0,0.0,0.0,0.0,0.0,0.0,0.0,0.0,0.0,0.0,0.0,0.0,0.0,0.0,0.0,0.0,0.0,0.0,0.0,0.0,0.0,0.0,0.0,0.0,0.0,0.0,0.0,0.0,0.0,0.0,0.0,1.0412,1.0017,0.9672,0.9579,0.915,0.8754,0.8606,0.8626,0.8692,0.8983,0.0,0.0,0.0,0.0,0.0,0.0,0.0,0.0,0.0,0.0,0.0,0.0,0.0,0.0,0.0,0.0,0.0,0.0,0.0,0.0,0.0,0.0,0.0,0.0,0.0,0.0,0.0,0.0,0.0,0.0,0.0,0.0,0.0,0.0,0.0,0.0,0.0,0.0,0.0,0.0,0.0,0.0,0.0,0.0,0.0,0.0,0.0,0.0,0.0,0.0,0.0,0.0,0.0,0.0,0.0,0.0,0.0,0.0,0.0,0.0,1.2163,1.2797,0.0,0.0,0.0,0.0,0.0,0.0,0.0,0.0,0.0,0.0,0.0,0.0,0.0,0.0,0.0,0.0,0.0,0.0,0.0,0.0,0.0,0.0,0.0,0.0,0.0,0.0,0.0,0.0,0.0,0.0,0.0,0.0,0.0,0.0,0.0,0.0,0.0,0.0,0.0,0.0,1.004,0.9996,0.9819,0.9481,0.9263,0.8971,0.8639,0.858,0.8685,0.8811,0.8983,0.0,0.0,0.0,0.0,0.0,0.0,0.0,0.0,0.0,0.0,0.0,0.0,0.0,0.0,0.0,0.0,0.0,0.0,0.0,0.0,0.0,0.0,0.0,0.0,0.0,0.0,0.0,0.0,0.0,0.0,0.0,0.0,0.0,0.0,0.0,0.0,0.0,0.0,0.0,0.0,0.0,0.0,0.0,0.0,0.0,0.0,0.0,0.0,0.0,0.0,0.0,0.0,0.0,0.0,0.0,0.0,0.0,0.0,0.0,1.1428,1.1912,0.0,0.0,0.0,0.0,0.0,0.0,0.0,0.0,0.0,0.0,0.0,0.0,0.0,0.0,0.0,0.0,0.0,0.0,0.0,0.0,0.0,0.0,0.0,0.0,0.0,0.0,0.0,0.0,0.0,0.0,0.0,0.0,0.0,0.0,0.0,0.0,0.0,0.0,0.0,0.0,1.0246,1.0071,0.9876,0.9676,0.9235,0.8871,0.8731,0.8599,0.8639,0.8983,0.9109,0.0,0.0,0.0,0.0,0.0,0.0,0.0,0.0,0.0,0.0,0.0,0.0,0.0,0.0,0.0,0.0,0.0,0.0,0.0,0.0,0.0,0.0,0.0,0.0,0.0,0.0,0.0,0.0,0.0,0.0,0.0,0.0,0.0,0.0,0.0,0.0,0.0,0.0,0.0,0.0,0.0,0.0,0.0,0.0,0.0,0.0,0.0,0.0,0.0,0.0,0.0,0.0,0.0,1.1001,1.0866,1.1172,1.1131,1.1172,1.1188,1.1032,1.1178,1.1621,1.1626,0.0,0.0,0.0,0.0,0.0,0.0,0.0,0.0,0.0,0.0,0.0,0.0,0.0,0.0,0.0,0.0,0.0,0.0,0.0,0.0,0.0,0.0,1.1858,1.1226,1.1421,1.1662,1.1514,0.0,0.0,0.0,0.0,0.0,0.0,0.0,0.0,0.0,0.0,0.0,1.0535,1.0276,0.9989,0.9946,0.9327,0.8856,0.8725,0.8451,0.8487,0.8877,0.8998,0.918,0.0,0.0,0.0,0.0,0.0,0.0,0.0,0.0,0.0,0.0,0.0,0.0,0.0,0.0,0.0,0.0,0.0,0.0,0.0,0.0,0.0,0.0,0.0,0.0,0.0,0.0,0.0,0.0,0.0,0.0,0.0,0.0,1.6858,1.6522,0.0,0.0,0.0,0.0,0.0,0.0,0.0,0.0,0.0,0.0,0.0,0.0,0.0,1.2172,1.1574,1.1533,1.155,1.1627,1.134,1.1285,1.1329,1.1137,1.1069,1.1125,1.1052,0.0,1.0944,1.0896,0.0,0.0,0.0,0.0,0.0,0.0,0.0,0.0,0.0,0.0,0.0,0.0,0.0,0.0,0.0,0.0,0.0,0.0,0.0,0.0,0.0,0.0,1.1907,1.1805,1.1826,1.184,1.1671,1.1131,1.0523,1.0186,1.007,1.0045,0.0,0.0,0.0,0.0,0.0,0.0,1.0535,1.0579,1.0399,1.0165,0.9813,0.9276,0.8492,0.806,0.7771,0.7811,0.7688,0.7732,0.8067,0.8393,0.0,0.0,0.0,0.0,0.0,0.0,0.0,0.0,0.0,0.0,0.0,0.0,0.0,0.0,0.0,0.0,0.0,0.0,0.0,0.0,0.0,0.0,0.0,0.0,0.0,0.0,0.0,0.0,0.0,1.6696,1.6229,1.5293,1.5518,1.5449,0.0,0.0,0.0,0.0,0.0,0.0,0.0,0.0,0.0,1.1175,1.1531,1.154,1.1253,1.136,1.1415,1.1337,1.1259,1.1265,1.1271,1.1333,1.1476,1.1629,1.1629,1.1492,1.1403,1.1037,1.0861,1.0814,0.0,0.0,0.0,0.0,1.1443,1.1741,1.1769,1.1918,1.1985,1.1747,0.0,0.0,0.0,0.0,0.0,0.0,0.0,1.0378,1.0337,1.0594,1.0809,1.0671,1.0665,1.0665,1.0532,1.0096,0.9952,1.0715,1.0782,1.0766,1.0763,1.0544,0.0,0.0,0.0,1.0748,1.0863,1.1126,1.0973,1.0271,0.986,0.9221,0.8324,0.7817,0.7621,0.78,0.7758,0.7835,0.8151,0.8436,0.8705,0.0,0.0,0.0,0.0,0.0,0.0,0.0,0.0,0.0,0.0,0.0,0.0,0.0,0.0,0.0,0.0,0.0,0.0,0.0,0.0,0.0,0.0,0.0,0.0,0.0,0.0,0.0,0.0,1.5534,1.5368,1.4056,1.44,1.4382,0.0,0.0,0.0,0.0,0.0,0.0,1.0802,1.1046,1.0986,1.063,1.1058,1.1253,1.1253,1.1341,1.139,1.139,1.139,1.139,1.1396,1.1322,1.1405,1.1741,1.1483,1.1344,1.1312,1.1151,1.1034,1.081,1.0669,1.0443,1.0325,1.0875,1.1093,1.1118,1.1617,1.17,1.1572,1.1359,1.1248,1.109,1.087,0.0,0.0,0.0,0.0,0.9569,0.9606,0.9895,1.0144,0.9842,0.9919,0.9914,0.9842,0.9617,0.9781,1.0978,1.1153,1.1153,1.13,1.1063,0.0,1.0637,1.0743,1.0757,1.0657,1.1006,1.0958,1.0089,0.9613,0.8974,0.8078,0.7591,0.7426,0.7664,0.7636,0.7752,0.8002,0.8159,0.8301,0.8448,0.0,0.0,0.0,0.0,0.0,0.0,0.0,0.0,0.0,0.0,0.0,0.0,0.0,0.0,0.0,0.0,0.0,0.0,0.0,0.0,0.0,0.0,0.0,0.0,0.0,0.0,0.0,0.0,0.0,1.2716,1.2879,0.0,0.0,0.0,0.0,1.1165,1.0617,1.0446,1.0703,1.0741,1.0801,1.0789,1.1266,1.1603,1.1603,1.1872,1.2003,1.1918,1.1746,1.1746,1.1918,1.088,1.0621,1.0966,1.0091,0.9714,0.9912,1.0993,1.0795,0.9809,0.9948,0.9492,0.8742,0.8974,0.9054,0.9054,0.9064,0.921,0.9382,0.9658,0.987,1.0049,1.011,0.9963,0.0,0.0,1.0003,1.0108,0.9974,1.0148,1.0396,1.0396,1.0396,1.0396,1.0396,1.0241,1.019,1.0576,1.0392,1.0611,1.1761,0.0,1.0616,1.0691,1.0144,0.9673,0.9531,0.9787,0.9865,0.9478,0.9176,0.8667,0.7777,0.7307,0.6943,0.6769,0.6595,0.6564,0.6749,0.6766,0.7109,0.7739,0.7306,0.0,0.0,0.0,0.0,0.0,0.0,0.0,0.0,0.0,0.0,0.0,0.0,0.0,0.0,0.0,0.0,0.0,0.0,0.0,0.0,0.0,0.0,0.0,0.0,0.0,0.0,0.0,0.0,1.3244,1.2964,0.0,1.2017,1.142,1.1169,1.1295,1.1012,1.0835,1.0847,1.1165,1.1233,1.0903,1.1453,1.1543,1.139,1.163,1.1406,1.0641,1.0559,1.0294,0.9767,0.9506,0.9589,0.9845,0.9671,0.9712,0.989,1.0333,0.9969,0.9281,0.9276,0.9121,0.8857,0.9423,0.9732,0.9811,1.0262,1.0244,1.0084,0.9792,0.9719,0.9785,0.9846,0.9545,0.9301,0.9365,0.9048,0.8702,0.9011,0.9065,0.9047,0.9002,0.8943,0.8948,0.8777,0.861,0.8653,0.9516,0.9913,1.0268,1.0515,1.039,1.0156,1.0059,0.9968,0.9953,0.9819,1.0068,0.9984,0.9288,0.8956,0.8392,0.7479,0.7155,0.6936,0.6883,0.6691,0.666,0.6716,0.6572,0.6626,0.6836,0.6902,0.7377,0.0,0.0,0.0,0.0,0.0,0.0,0.0,0.0,0.0,0.0,0.0,0.0,0.0,0.0,0.0,0.0,0.0,0.0,0.0,0.0,0.0,0.0,0.0,0.0,0.0,1.3939,1.3793,1.335,1.2954,1.2608,1.2259,1.1548,1.1235,1.1582,1.1356,1.1239,1.1155,1.1629,1.1614,1.1117,1.1138,1.1139,1.0824,1.0705,1.026,0.9419,0.9419,0.9069,0.8456,0.8364,0.8452,0.8707,0.8619,0.8669,0.8875,0.8875,0.8623,0.8324,0.8611,0.8578,0.8374,0.8923,0.9152,0.9334,0.9953,1.0038,0.9727,0.9446,0.9358,0.9358,0.9358,0.9138,0.8864,0.8998,0.8534,0.8113,0.8475,0.8475,0.8414,0.8352,0.8292,0.8292,0.812,0.7944,0.794,0.8715,0.928,0.9766,1.0098,1.0038,0.9927,0.98,0.9724,0.9653,0.9657,0.9719,0.9498,0.8875,0.8586,0.8115,0.7401,0.7204,0.7106,0.7049,0.6954,0.6851,0.6781,0.6664,0.6595,0.6527,0.7013,0.7516,0.8022,0.0,0.0,0.0,0.0,0.0,0.0,0.0,0.0,0.0,0.0,0.0,0.0,0.0,0.0,0.0,0.0,0.0,0.0,0.0,0.0,0.0,0.0,0.0,1.3308,1.3741,1.3769,1.2882,1.2824,1.275,1.2271,1.1709,1.1512,1.1929,1.1527,1.1456,1.1698,1.1919,1.1833,1.13,1.0691,1.0243,0.9956,0.8986,0.8544,0.8456,0.8456,0.8456,0.8368,0.7492,0.7312,0.7746,0.6779,0.6624,0.6936,0.6936,0.6848,0.6826,0.797,0.7921,0.7136,0.7143,0.7241,0.7598,0.8021,0.8193,0.8281,0.8468,0.856,0.856,0.856,0.856,0.856,0.8564,0.856,0.8556,0.8572,0.8568,0.856,0.8564,0.8568,0.8568,0.8568,0.838,0.8201,0.8201,0.8544,0.924,1.0544,1.0288,0.9899,0.9912,0.9276,0.0,0.8828,0.8519,0.8296,0.8292,0.7983,0.7703,0.7516,0.7496,0.7419,0.7253,0.7187,0.7159,0.7011,0.7041,0.6952,0.6734,0.7664,0.829,0.87,0.0,0.0,0.0,0.0,0.0,0.0,0.0,0.0,0.0,0.0,0.0,0.0,0.0,0.0,0.0,0.0,0.0,0.0,0.0,0.0,0.0,1.4576,1.4828,1.4281,1.3938,1.3716,1.3701,1.3291,1.2912,1.2571,1.2079,1.1878,1.202,1.1532,1.1526,1.193,1.1855,1.1811,1.1855,1.1478,1.0944,1.0168,0.9754,0.8807,0.7492,0.7492,0.7139,0.6435,0.652,0.6694,0.6782,0.6871,0.6939,0.7082,0.7082,0.7058,0.7017,0.7253,0.7159,0.7014,0.7227,0.758,0.8005,0.8194,0.8275,0.8275,0.8365,0.8365,0.8365,0.8365,0.8365,0.8394,0.8528,0.8373,0.8256,0.8649,0.856,0.8398,0.8348,0.8292,0.8292,0.812,0.8028,0.8028,0.8201,0.8285,0.8589,0.908,0.9144,0.9179,0.9263,0.8986,0.8774,0.8714,0.8617,0.8438,0.8304,0.8203,0.8069,0.7882,0.7756,0.7663,0.7618,0.7663,0.7607,0.7607,0.7789,0.7847,0.7803,0.8015,0.8425,0.0,0.0,0.0,0.0,0.0,0.0,0.0,0.0,0.0,0.0,0.0,0.0,0.0,0.0,0.0,0.0,0.0,0.0,0.0,0.0,0.0,0.0,1.5027,1.5233,1.5056,1.4566,1.4122,1.4149,1.3726,1.3269,1.3031,1.2604,1.2388,1.2456,1.1894,1.1701,1.2068,1.2053,1.178,1.1252,1.0938,1.015,0.9075,0.852,0.7642,0.6526,0.6526,0.626,0.5908,0.6169,0.6346,0.6612,0.6877,0.7054,0.7139,0.7139,0.7139,0.7132,0.0,0.0,0.0,0.0,0.7818,0.8147,0.8392,0.8406,0.8406,0.8406,0.8406,0.8406,0.8406,0.8406,0.843,0.8536,0.841,0.8316,0.8633,0.856,0.843,0.8356,0.838,0.8296,0.8208,0.8212,0.8208,0.8384,0.838,0.0,0.8611,0.8794,0.8938,0.912,0.9023,0.8854,0.8786,0.8645,0.8528,0.8418,0.8337,0.8247,0.8138,0.7967,0.0,0.0,0.0,0.7965,0.8029,0.8206,0.0,0.0,0.0,0.8941,0.9545,0.9299,0.0,0.0,0.8927,0.853,0.0,0.0,0.0,0.0,0.0,0.0,0.0,0.0,0.0,0.0,0.0,0.0,0.0,0.0,0.0,0.0,1.5517,1.5157,1.5661,1.5273,1.4845,1.4334,1.4021,1.3692,1.3489,1.3129,1.2915,1.3076,1.2406,1.1936,1.1991,1.2101,0.0,0.0,0.0,0.8792,0.7471,0.6545,0.6026,0.5822,0.5836,0.5922,0.6171,0.6186,0.6453,0.6795,0.6792,0.6966,0.7139,0.7139,0.7139,0.7143,0.7143,0.7143,0.7231,0.7764,0.8028,0.8201,0.8476,0.0,0.0,0.8568,0.8568,0.8568,0.8568,0.8568,0.8568,0.8568,0.8568,0.8568,0.8568,0.8568,0.8568,0.8568,0.8568,0.8568,0.8568,0.8568,0.8568,0.8568,0.8568,0.8621,0.8792,0.8958,0.9125,0.9299,0.9177,0.9007,0.884,0.8674,0.8568,0.8568,0.8422,0.0,0.8321,0.8234,0.8053,0.7881,0.8143,0.8348,0.8663,0.8611,0.8837,0.9433,0.9413,0.9694,1.0306,1.0306,0.9917,0.9255,0.8751,0.8298,0.0,0.0,0.0,0.0,0.0,0.0,0.0,0.0,0.0,0.0,0.0,0.0,0.0,0.0,0.0,1.5796,1.6197,1.636,1.5859,1.5651,1.5418,1.4673,1.4145,1.3736,1.3332,1.32,1.3179,1.3153,1.2108,1.159,1.1955,1.1015,1.0437,1.0334,1.0058,0.9329,0.8184,0.7876,0.7195,0.6257,0.6457,0.0,0.6346,0.6644,0.6815,0.6795,0.6966,0.7051,0.7139,0.7139,0.7231,0.7415,0.7415,0.7415,0.7503,0.7937,0.8201,0.8201,0.8476,0.8568,0.8568,0.8568,0.8568,0.8568,0.8568,0.8568,0.0,0.8568,0.8568,0.8568,0.8568,0.8568,0.8568,0.8568,0.8568,0.8568,0.8568,0.8568,0.8568,0.8568,0.8568,0.8621,0.8792,0.8848,0.8934,0.912,0.8991,0.8861,0.8824,0.8674,0.8568,0.8568,0.8536,0.8515,0.8515,0.8679,0.8739,0.847,0.8843,0.9386,1.0179,0.9827,0.9743,1.0062,0.9872,0.9975,1.0315,1.0315,0.9992,0.9285,0.9164,0.8682,0.0,0.0,0.0,0.0,0.0,0.0,0.0,0.0,0.0,0.0,0.0,1.6792,1.671,0.0,1.6875,1.6626,1.6251,1.5901,1.5655,1.4826,1.4423,1.5055,1.4705,1.413,1.3228,1.3046,1.2952,1.2764,1.1994,1.189,1.2581,1.1442,1.0633,1.0255,0.9672,0.8906,0.7787,0.7617,0.7323,0.6639,0.6707,0.6762,0.6722,0.6885,0.7021,0.6969,0.7234,0.7323,0.7323,0.7408,0.7588,0.768,0.7852,0.7852,0.7852,0.8113,0.8292,0.8384,0.8564,0.8568,0.8568,0.8568,0.8568,0.8568,0.8568,0.8568,0.8568,0.8568,0.8568,0.8568,0.8568,0.8568,0.8568,0.8568,0.8568,0.8568,0.8568,0.8568,0.8568,0.8568,0.8568,0.8597,0.8678,0.8694,0.8755,0.893,0.8881,0.8787,0.8706,0.8621,0.8652,0.8915,0.8915,0.9087,0.9262,0.9239,0.9147,0.9185,0.9271,0.9576,1.0188,1.0046,0.9976,1.0105,0.9981,1.0046,1.0293,1.0293,1.0103,0.9814,0.9535,0.8994,0.0,0.0,0.0,0.0,0.0,0.0,0.0,1.7326,1.6916,1.6543,1.6639,1.6828,1.7084,1.6935,1.6926,1.7007,1.6121,1.5419,1.5033,1.397,1.3688,1.4858,1.4892,1.4352,1.3266,1.3088,1.2834,1.2502,1.191,1.1833,1.2604,1.1532,1.0545,0.974,0.9,0.8188,0.723,0.7227,0.7149,0.6992,0.702,0.7041,0.706,0.7086,0.7111,0.7231,0.7503,0.7595,0.7595,0.7768,0.794,0.794,0.8113,0.8201,0.8288,0.8288,0.8384,0.8568,0.8568,0.8568,0.8568,0.8568,0.8568,0.8568,0.8568,0.8568,0.8568,0.8568,0.8568,0.8576,0.8609,0.8617,0.8617,0.8617,0.8645,0.8662,0.8625,0.8645,0.8759,0.8848,0.8819,0.8802,0.9017,0.8992,0.8916,0.8755,0.8857,0.8897,0.8756,0.8828,0.8999,0.9432,0.9432,0.9607,1.0125,0.9769,0.9658,1.0013,0.9715,0.9658,1.0121,0.9992,0.9943,0.9992,0.9943,1.0046,1.0293,1.0293,1.0295,1.0317,0.9931,0.9271,1.9597,1.8985,1.9006,2.0245,1.91,1.783,0.0,1.7732,1.6368,1.5954,1.5959,1.5918,1.595,1.6188,1.6087,1.5421,1.6248,1.6131,1.3946,1.4516,1.4645,1.3402,1.3722,1.387,1.3534,1.3353,1.3225,1.3313,1.1378,1.0347,1.0429,0.9423,0.8759,0.8526,0.8438,0.8102,0.7717,0.7714,0.7577,0.7309,0.7439,0.7356,0.7081,0.7309,0.7382,0.7507,0.7768,0.7856,0.7856,0.7856,0.8028,0.8201,0.8201,0.838,0.8564,0.8564,0.8568,0.8568,0.8568,0.8568,0.8568,0.8568,0.8568,0.8568,0.8568,0.8568,0.8568,0.8568,0.8568,0.8601,0.8751,0.8792,0.8792,0.8792,0.8917,0.8995,0.8828,0.8922,0.9225,0.9683,0.9535,0.9651,1.0384,1.0257,0.9812,0.879,0.8941,0.9196,0.9262,0.9607,0.9864,0.9951,0.9859,1.0033,1.0463,1.0334,1.0437,1.1048,1.0536,1.0439,1.0848,1.0256,1.0024,1.025,1.003,1.0046,1.0293,1.0293,1.0295,1.0322,1.0228,0.9812,2.0111,1.9871,1.9905,2.0434,1.9978,1.9635,2.0311,1.9743,1.9041,1.847,1.8629,1.8555,1.7261,1.7337,1.7108,1.5848,1.5445,1.4971,1.3773,1.3096,1.2454,1.1889,1.2189,1.2437,1.2258,1.2289,1.2147,1.1906,1.1079,1.0819,1.1318,1.0196,0.9609,0.9538,0.8937,0.8567,0.843,0.843,0.8362,0.8236,0.8301,0.8218,0.7998,0.7973,0.7967,0.8084,0.807,0.817,0.8434,0.834,0.8388,0.8472,0.8472,0.8476,0.8568,0.8568,0.8568,0.8568,0.8568,0.8568,0.8568,0.8568,0.8568,0.8568,0.8568,0.8828,0.8999,0.8999,0.9174,0.9477,0.9665,0.9714,0.9745,0.9866,0.996,1.0001,0.9916,0.9965,1.0116,1.0301,1.032,1.0287,1.0658,1.0596,1.0414,0.9881,0.9958,1.0092,0.9878,1.0037,1.0255,1.0304,1.0559,1.0819,1.0997,1.0783,1.0863,1.1128,1.0606,1.0379,1.0573,1.0299,1.0186,1.0293,1.032,1.0385,1.0492,1.0492,1.0578,1.0731,1.0393,1.0248,2.0539,2.0571,2.0543,2.0772,2.0789,2.0891,2.1213,2.103,2.0554,1.9672,1.9764,1.9483,1.7562,1.7326,1.6984,1.5458,1.4637,1.4018,1.3472,1.223,1.1448,1.1282,1.1369,1.1457,1.1241,1.1335,1.1379,1.1146,1.0779,1.0789,1.1462,1.0567,1.0071,1.0071,0.9318,0.8896,0.8896,0.8847,0.8803,0.8762,0.8713,0.8609,0.8452,0.8374,0.8348,0.8458,0.8414,0.852,0.8808,0.8686,0.8609,0.8568,0.8568,0.8568,0.8572,0.8621,0.8609,0.8664,0.8794,0.8781,0.8828,0.8915,0.9003,0.9003,0.9003,0.9262,0.9519,0.9519,0.9818,1.0069,1.0216,1.0296,1.0367,1.0557,1.0629,1.0667,1.0672,1.0715,1.0772,1.1022,1.0988,1.1057,1.1209,1.1263,1.115,1.1303,1.1313,1.1096,1.0571,1.0563,1.0642,1.0748,1.1084,1.1262,1.1262,1.1187,1.1085,1.1085,1.0708,1.0482,1.0482,1.0423,1.039,1.039,1.0552,1.0638,1.0638,1.0638,1.0756,1.0982,1.0648,1.0513,2.054,2.0508,2.0512,2.1853,2.1451,2.0821,2.1291,2.0643,1.9576,1.8066,1.7518,1.6888,1.5319,1.485,1.4345,1.3557,1.4066,1.4113,1.2438,1.2868,1.3033,1.1916,1.1704,1.1571,1.1256,1.1299,1.1344,1.152,1.0293,0.9552,0.9544,0.9399,0.9313,0.9313,0.9157,0.9071,0.9071,0.8907,0.875,0.8598,0.843,0.827,0.8113,0.8209,0.8306,0.8556,0.8725,0.8816,0.882,0.8812,0.8714,0.8568,0.8568,0.8568,0.8584,0.8751,0.871,0.8677,0.9285,0.9411,0.9345,0.9777,0.9951,0.9951,0.9951,0.9951,0.9951,0.9951,1.0088,1.0244,1.0263,1.0414,1.0513,1.0324,1.0332,1.0477,1.0575,1.0735,1.1034,1.1818,1.1788,1.1803,1.2603,1.2554,1.2479,1.2711,1.2743,1.23,1.1161,1.1149,1.1273,1.1267,1.1262,1.1262,1.1262,1.1257,1.1251,1.1251,1.1101,1.0966,1.0966,1.0746,1.0622,1.0622,1.0632,1.0638,1.0638,1.0638,1.0756,1.0982,1.0982,1.0852,2.0295,2.0688,2.1221,2.2342,2.2177,2.2036,2.3012,2.2797,2.2196,2.1557,2.0917,1.9901,1.8011,1.6781,1.5694,1.4537,1.4171,1.387,1.3195,1.3127,1.3013,1.2457,1.2149,1.1943,1.1907,1.1408,1.0985,1.0824,1.0245,0.9934,0.9934,0.9768,0.967,0.967,0.9505,0.9469,0.9579,0.9524,0.9461,0.9506,0.9212,0.8828,0.8552,0.8579,0.8673,0.8725,0.8702,0.8718,0.8812,0.8698,0.8864,0.9268,0.9268,0.9446,0.9732,0.9935,0.9881,0.9718,0.9512,0.9669,0.9953,0.9993,1.0038,1.0038,1.0038,1.0207,1.0381,1.0381,1.0803,1.1279,1.1434,1.1646,1.1838,1.1916,1.1988,1.204,1.204,1.2102,1.2185,1.2452,1.2506,1.2475,1.2748,1.27,1.2673,1.2754,1.2635,1.2388,1.1801,1.1636,1.1521,1.1283,1.1262,1.1262,1.1262,1.1262,1.1262,1.1262,1.1117,1.0982,1.0982,1.0907,1.0869,1.0869,1.1025,1.1027,1.1027,1.1027,1.1149,1.1225,1.1225,1.1182,2.0643,2.13,2.2134,2.2838,2.3082,2.3291,2.4033,2.3992,2.3619,2.2987,2.2241,2.0987,1.8658,1.7319,1.6075,1.4538,1.4155,1.3853,1.3663,1.3404,1.3175,1.3148,1.2744,1.2482,1.2534,1.1935,1.1413,1.1151,1.0992,1.0884,1.0884,1.0634,1.0522,1.0591,1.0349,1.0337,1.0591,1.0522,1.0457,1.0388,1.0074,0.9724,0.9358,0.9358,0.9358,0.9264,0.9242,0.9255,0.9264,0.9237,0.9393,0.9709,0.9782,1.0074,1.0286,1.0575,1.0779,1.0736,1.0299,1.0367,1.0705,1.0751,1.0656,1.0592,1.0592,1.0762,1.1004,1.084,1.1368,1.1951,1.193,1.2167,1.2431,1.2495,1.2506,1.2533,1.2619,1.2641,1.2662,1.2748,1.2764,1.2764,1.2764,1.2764,1.2764,1.2764,1.2635,1.2452,1.221,1.1898,1.1639,1.1488,1.1402,1.1262,1.1262,1.1262,1.1262,1.1262,1.1203,1.1112,1.1112,1.1112,1.1112,1.1112,1.1268,1.1262,1.1262,1.1262,1.1262,1.1262,1.1262,1.1262,2.1636,2.2364,2.3079,2.3474,2.3954,2.4323,2.4341,2.4198,2.3702,2.2511,2.1447,2.003,1.736,1.6549,1.5593,1.3854,1.4034,1.4256,1.3909,1.3674,1.3601,1.3789,1.3427,1.3132,1.3157,1.2909,1.2755,1.2516,1.235,1.223,1.223,1.1732,1.1609,1.1827,1.143,1.1411,1.1831,1.1619,1.1406,1.1296,1.1072,1.066,1.0357,1.0348,1.0258,1.0178,1.0168,1.0164,1.0164,1.0164,1.0145,1.009,1.0281,1.0362,1.0424,1.082,1.1252,1.1701,1.1394,1.141,1.1497,1.1941,1.1871,1.1682,1.1682,1.1693,1.1655,1.1435,1.1876,1.2307,1.1855,1.2081,1.2371,1.214,1.2178,1.2145,1.2382,1.2431,1.2501,1.2721,1.2764,1.2764,1.2764,1.2764,1.2764,1.2764,1.2764,1.2678,1.2441,1.2005,1.1715,1.1698,1.1488,1.1262,1.1262,1.1262,1.1262,1.1262,1.1262,1.1262,1.1262,1.1262,1.1262,1.1262,1.1262,1.1262,1.1262,1.1262,1.1262,1.1262,1.1262,1.1262,2.2404,2.3057,2.3684,2.3993,2.3954,2.398,2.4278,2.3892,2.3454,2.3141,2.2171,2.1069,1.9931,1.8333,1.696,1.6236,1.5419,1.4763,1.4475,1.451,1.4614,1.4444,1.4505,1.4479,1.45,1.4456,1.4259,1.4051,1.2879,1.223,1.223,1.1879,1.1831,1.2039,1.1638,1.1619,1.2039,1.1841,1.1553,1.1194,1.0976,1.0834,1.0581,1.0414,1.0253,1.0249,1.0097,1.0031,1.0031,1.0031,1.045,1.1056,1.1111,1.1421,1.1869,1.1984,1.212,1.2209,1.2151,1.2013,1.193,1.1844,1.1628,1.144,1.144,1.1558,1.1688,1.1628,1.2,1.2388,1.2264,1.2452,1.2662,1.2597,1.2581,1.2597,1.2662,1.2673,1.2689,1.2754,1.2764,1.2764,1.2764,1.2764,1.2764,1.2764,1.2764,1.2678,1.2441,1.2145,1.1892,1.1715,1.1488,1.1262,1.1262,1.1262,1.1262,1.1262,1.1262,1.1262,1.1262,1.1262,1.1262,1.1262,1.1262,1.1262,1.1262,1.1262,1.1262,1.1262,1.1262,1.1262,2.3409,2.3899,2.4356,2.4285,2.4242,2.4053,2.4008,2.3556,2.3153,2.2984,2.2185,2.12,1.987,1.8597,1.7301,1.6082,1.5499,1.5119,1.4803,1.4938,1.5003,1.4801,1.4858,1.4921,1.503,1.5452,1.5452,1.4821,1.3832,1.3225,1.3123,1.2805,1.274,1.2861,1.253,1.252,1.2861,1.265,1.2464,1.2309,1.1888,1.1723,1.1601,1.1374,1.1212,1.1111,1.099,1.0934,1.0929,1.0833,1.1028,1.154,1.1639,1.195,1.228,1.249,1.2501,1.2431,1.2533,1.2339,1.2151,1.214,1.2011,1.1817,1.1817,1.1908,1.1989,1.1881,1.2194,1.2544,1.2441,1.2587,1.2764,1.2764,1.2764,1.2764,1.2764,1.2764,1.2764,1.2764,1.2764,1.2764,1.2764,1.2764,1.2764,1.2764,1.2764,1.2716,1.2581,1.2264,1.1957,1.1725,1.1488,1.1262,1.1262,1.1262,1.1262,1.1262,1.1262,1.1262,1.1262,1.1262,1.1262,1.1262,1.1262,1.1262,1.1262,1.1262,1.1262,1.1262,1.1262,1.1262,2.4383,2.4667,2.4932,2.4637,2.4492,2.4361,2.3717,2.3359,2.2994,2.2564,2.2075,2.1037,1.9012,1.8504,1.7713,1.5437,1.5615,1.5791,1.5429,1.548,1.5537,1.5352,1.5164,1.5118,1.5125,1.5974,1.6187,1.5143,1.4821,1.4611,1.4299,1.406,1.3925,1.3925,1.3762,1.3756,1.3925,1.3729,1.3697,1.3717,1.3236,1.2937,1.2802,1.2571,1.2344,1.2232,1.2167,1.214,1.2124,1.1795,1.1736,1.1811,1.1978,1.2178,1.2286,1.2608,1.2635,1.249,1.2694,1.249,1.2204,1.2592,1.256,1.2366,1.2366,1.2388,1.2371,1.2156,1.2441,1.2764,1.256,1.2678,1.2948,1.2916,1.2905,1.2899,1.2867,1.2861,1.2861,1.2861,1.2861,1.2861,1.2861,1.2861,1.2861,1.2861,1.2861,1.2845,1.2818,1.2449,1.2005,1.1774,1.1537,1.13,1.1267,1.1262,1.1262,1.1262,1.1262,1.1262,1.1262,1.1262,1.1262,1.1262,1.1262,1.1262,1.1262,1.1262,1.1262,1.1262,1.1262,1.1262,2.5112,2.5187,2.5137,2.4932,2.4579,2.4315,2.4143,2.3411,2.2704,2.2631,2.2116,2.1545,2.0942,2.0382,1.9825,1.9519,1.8852,1.8505,1.8686,1.8547,1.8156,1.7239,1.7114,1.6791,1.5779,1.5885,1.5891,1.5476,1.5374,1.5154,1.4826,1.4701,1.4565,1.4565,1.4718,1.473,1.4571,1.4531,1.4213,1.3534,1.3707,1.3434,1.3034,1.2807,1.2678,1.2619,1.2314,1.214,1.2124,1.1795,1.1935,1.2274,1.2113,1.2384,1.2651,1.2732,1.2737,1.2711,1.2748,1.2711,1.2619,1.2511,1.2312,1.2113,1.2113,1.2253,1.2404,1.2366,1.2684,1.3034,1.2996,1.3357,1.369,1.3391,1.3545,1.3692,1.3391,1.3346,1.3346,1.3346,1.3346,1.3346,1.3346,1.3346,1.3346,1.3346,1.3346,1.3363,1.3148,1.2681,1.2258,1.2011,1.1779,1.1558,1.1283,1.1262,1.1262,1.1262,1.1262,1.1262,1.1262,1.1262,1.1262,1.1262,1.1262,1.1262,1.1262,1.1262,1.1262,1.1262,1.1262,1.1262,2.5761,2.5713,2.5567,2.4967,2.4488,2.4022,2.371,2.3089,2.2556,2.2556,2.2307,2.1811,2.1087,2.0649,2.0229,1.9461,1.9023,1.8917,1.9182,1.876,1.8323,1.8073,1.747,1.6842,1.6211,1.663,1.663,1.5791,1.6217,1.6105,1.5035,1.4927,1.4864,1.4864,1.4978,1.4978,1.487,1.4738,1.4509,1.4286,1.414,1.4083,1.3885,1.3741,1.3624,1.3607,1.3238,1.3082,1.3048,1.2674,1.2575,1.2592,1.2653,1.2747,1.2789,1.3102,1.3069,1.2975,1.3108,1.3064,1.2958,1.2975,1.2802,1.2609,1.2609,1.2874,1.3141,1.3014,1.3236,1.348,1.3352,1.3506,1.3661,1.3549,1.3618,1.3688,1.3568,1.3539,1.3539,1.3539,1.3539,1.3539,1.3539,1.3539,1.3539,1.3539,1.3539,1.3494,1.3368,1.3166,1.2836,1.2545,1.2198,1.201,1.1893,1.1771,1.1613,1.1527,1.1527,1.144,1.1354,1.1262,1.1262,1.1262,1.1262,1.1262,1.1262,1.1262,1.1262,1.1262,1.1262,1.1262,2.6154,2.6127,2.6001,2.51,2.4491,2.3915,2.3305,2.2758,2.2425,2.2511,2.2441,2.2069,2.115,2.1028,2.06,1.9461,1.9367,1.9461,1.9779,1.9208,1.8687,1.8755,1.7975,1.7147,1.6424,1.7153,1.7252,1.6099,1.6948,1.6736,1.525,1.5143,1.5143,1.5143,1.5143,1.5143,1.5143,1.5059,1.5036,1.5062,1.4711,1.4631,1.467,1.4459,1.4333,1.427,1.4076,1.3928,1.3802,1.3402,1.3148,1.2964,1.3174,1.3097,1.2992,1.3375,1.3414,1.3265,1.3471,1.3408,1.3265,1.3476,1.3346,1.3147,1.3147,1.3475,1.3791,1.3596,1.3756,1.3933,1.3688,1.3699,1.3849,1.3745,1.3676,1.3636,1.3636,1.3636,1.3636,1.3636,1.3636,1.3636,1.3636,1.3636,1.3636,1.3636,1.3636,1.3636,1.3636,1.3636,1.3576,1.3171,1.2808,1.2523,1.242,1.2232,1.2014,1.1791,1.1785,1.1699,1.1435,1.144,1.144,1.144,1.144,1.1435,1.1354,1.1435,1.1435,1.1354,1.1354,1.1354,2.5893,2.6184,2.63,2.5565,2.4832,2.4117,2.3799,2.2901,2.2342,2.2726,2.253,2.2353,2.2255,2.2195,2.2326,2.2562,2.1925,2.1852,2.2934,2.2232,2.1218,1.9956,1.9723,1.8902,1.6829,1.673,1.673,1.6624,1.673,1.6524,1.5885,1.5785,1.5785,1.5785,1.5785,1.5785,1.5785,1.5761,1.5535,1.5112,1.5311,1.5194,1.4676,1.4653,1.451,1.4282,1.4253,1.399,1.3574,1.3528,1.3511,1.3386,1.3242,1.3294,1.3414,1.3437,1.3528,1.3505,1.3534,1.3528,1.3505,1.3534,1.3443,1.3443,1.3443,1.346,1.3568,1.3545,1.3882,1.4185,1.3939,1.4416,1.4853,1.4694,1.4388,1.4202,1.4202,1.4202,1.4202,1.4202,1.4202,1.4202,1.4202,1.4202,1.4202,1.4202,1.4202,1.4202,1.4202,1.4202,1.4184,1.413,1.3514,1.29,1.2449,1.2392,1.2283,1.1969,1.1957,1.1957,1.1957,1.1957,1.1957,1.1957,1.1957,1.1871,1.1699,1.1871,1.1871,1.1699,1.1699,1.1699,2.6496,2.6433,2.6182,2.5458,2.4486,2.3617,2.3779,2.3087,2.2577,2.3095,2.2949,2.2601,2.2342,2.2255,2.2217,2.1939,2.2039,2.2171,2.2423,2.1895,2.1139,2.0162,1.9512,1.8604,1.7147,1.6955,1.6955,1.673,1.673,1.6624,1.6418,1.6211,1.6105,1.5891,1.5891,1.5891,1.5891,1.5891,1.5837,1.5629,1.5737,1.563,1.5423,1.5423,1.5281,1.5015,1.4861,1.4595,1.4246,1.4087,1.3925,1.3727,1.3802,1.3825,1.3738,1.3919,1.4016,1.4016,1.4016,1.4016,1.4016,1.4016,1.4016,1.3919,1.3835,1.394,1.4229,1.4063,1.4282,1.4506,1.4234,1.4416,1.4622,1.4515,1.4377,1.4298,1.4298,1.4298,1.4298,1.4298,1.4298,1.4298,1.4298,1.4298,1.4298,1.4298,1.4298,1.4298,1.4298,1.4298,1.4298,1.4298,1.3874,1.3537,1.3336,1.3176,1.2892,1.2546,1.2586,1.2533,1.2055,1.2186,1.2192,1.1957,1.2043,1.1957,1.1871,1.1957,1.1957,1.1871,1.2023,1.2091,2.6325,2.6347,2.6095,2.528,2.427,2.3513,2.3609,2.3167,2.2812,2.3176,2.3176,2.2932,2.2378,2.237,2.2302,0.0,2.2045,2.2292,2.2121,2.1768,2.1243,2.0483,1.9971,1.9134,1.7839,1.7437,1.7166,1.6942,1.6942,1.6948,1.6842,1.6643,1.6424,1.6099,1.6105,1.5998,1.5998,1.5891,1.5891,1.5891,1.5813,1.5813,1.5885,1.5728,1.5602,1.5487,1.5221,1.4956,1.4702,1.4503,1.428,1.4022,1.4208,1.4208,1.4022,1.4202,1.4298,1.4298,1.4298,1.4298,1.4298,1.4298,1.4298,1.4298,1.4118,1.4249,1.4552,1.4352,1.4437,1.4564,1.4455,1.4358,1.4298,1.4298,1.4298,1.4298,1.4298,1.4298,1.4298,1.4298,1.4298,1.4298,1.4298,1.4298,1.4298,1.4298,1.4298,1.4298,1.4298,1.4298,1.4298,1.4298,1.4129,1.399,1.3912,1.3737,1.3429,1.2987,1.3146,1.2986,1.2452,1.2603,1.2586,1.2331,1.24,1.24,1.2244,1.24,1.2435,1.2353,1.2532,1.2652,2.5232,2.5826,2.633,2.518,2.4523,2.4043,2.3382,2.3197,2.3102,2.2849,2.3196,2.3278,2.2588,2.2852,2.2998,2.2568,2.2349,2.2332,2.2736,2.253,2.2138,2.1428,2.1714,2.1227,1.922,1.8123,1.7582,1.7582,1.7582,1.7483,1.7173,1.7179,1.706,1.673,1.6424,1.6324,1.6324,1.5998,1.5891,1.5885,1.5626,1.5638,1.5873,1.5354,1.5252,1.5487,1.5221,1.4956,1.4714,1.4714,1.4552,1.4298,1.4298,1.4298,1.4298,1.4298,1.4298,1.4298,1.4298,1.4298,1.4298,1.4298,1.4298,1.4298,1.4298,1.4298,1.4298,1.4298,1.4298,1.4364,1.4642,1.4509,1.4298,1.4298,1.4298,1.4298,1.4298,1.4298,1.4298,1.4298,1.4298,1.4298,1.4298,1.4298,1.4298,1.4298,1.4298,1.4298,1.4298,1.4298,1.4298,1.4298,1.4292,1.4189,1.393,1.3906,1.3791,1.3525,1.3513,1.3513,1.3507,1.3513,1.3387,1.3127,1.3375,1.3291,1.2768,1.3291,1.3417,1.3144,1.3144,1.3187,2.5876,2.6029,2.6034,2.6055,2.5232,2.4336,2.4116,2.3857,2.3617,2.3355,2.3382,2.3257,2.2649,2.276,2.2834,2.2399,2.2324,2.2473,2.2609,2.2621,2.2405,2.1796,2.0898,1.9867,1.8469,1.7843,1.7582,1.7582,1.8304,1.8304,1.7483,1.8206,1.7982,1.673,1.663,1.653,1.6324,1.6217,1.6105,1.5891,1.5807,1.5807,1.5885,1.5716,1.559,1.5493,1.5409,1.5125,1.4714,1.4714,1.4552,1.4298,1.4298,1.4298,1.4298,1.4298,1.4298,1.4298,1.4298,1.4298,1.4298,1.4298,1.4298,1.4298,1.4298,1.4298,1.4298,1.4298,1.4437,1.4606,1.4696,1.4654,1.4582,1.4582,1.4437,1.4298,1.4298,1.4449,1.4582,1.4582,1.4727,1.4853,1.4853,1.4702,1.4582,1.4582,1.4582,1.4515,1.4322,1.4467,1.4509,1.4316,1.4298,1.4262,1.4177,1.4171,1.4063,1.3797,1.3954,1.3888,1.3532,1.3688,1.3658,1.3399,1.3471,1.3387,1.3303,1.3387,1.3513,1.3692,1.3692,1.3737,2.5508,2.5613,2.5568,2.5732,2.5092,2.4395,2.4232,2.4008,0.0,0.0,0.0,2.3042,2.2352,2.2692,2.2804,2.2274,2.2626,2.2781,2.2539,2.2843,2.3099,2.2851,2.126,1.9905,1.908,1.817,1.7479,1.7261,1.7964,1.813,1.7519,1.8137,1.8039,1.6892,1.6897,1.6849,1.6643,1.653,1.6318,1.5998,1.5895,1.5901,1.5885,1.5686,1.5614,1.5638,1.5439,1.5167,0.0,1.4757,1.4552,1.4298,1.4298,1.4298,1.4298,1.4298,1.4298,1.4298,1.4298,1.4298,1.4298,1.4298,1.4298,1.4298,1.4298,1.4298,1.4298,1.4298,1.4425,1.4558,1.4558,1.4558,1.4558,1.4558,1.4425,1.4298,1.4298,1.4515,1.4714,1.4714,1.4932,1.5107,1.5107,1.4974,1.4865,1.4865,1.4865,1.4805,1.4624,1.4666,1.4648,1.4473,1.4358,1.4298,1.4298,1.4298,1.4226,1.4063,1.4208,1.4153,1.3827,1.3966,1.393,1.367,1.3761,1.3761,1.3664,1.3761,1.3894,1.4051,1.4051,1.4141,0.0,2.4635,2.4926,2.4601,2.4486,2.4418,2.3945,0.0,0.0,0.0,0.0,0.0,2.197,2.2613,2.3056,2.2396,2.2928,2.3238,2.2693,2.3291,2.3975,2.4273,2.2661,2.1268,2.057,1.8833,1.7415,1.6827,1.7062,1.7319,1.7217,1.7479,1.7499,1.7128,1.718,1.7127,1.7147,1.6836,1.663,1.6324,1.607,1.5965,1.5949,1.5463,1.5494,1.5913,1.5318,1.5202,1.5065,1.4817,1.4552,1.4298,1.4298,1.4298,1.4298,1.4298,1.4298,1.4298,1.4298,1.4298,1.4298,1.4298,1.4298,1.4298,1.4298,1.4298,1.4298,1.4298,1.431,1.4328,1.4328,1.4328,1.4328,1.4328,1.431,1.4304,1.4322,1.4545,1.4751,1.4769,1.4986,1.5161,1.5161,1.5149,1.5137,1.5137,1.5137,1.5125,1.5113,1.4896,1.4739,1.4721,1.4467,1.4298,1.4298,1.4298,1.4298,1.4298,1.4298,1.4298,1.4298,1.4298,1.4183,1.3936,1.4171,1.4177,1.3936,1.4177,1.4298,1.4298,1.4298,1.4298,2.4192,0.0,2.496,2.5292,2.5453,2.5214,0.0,0.0,0.0,0.0,0.0,0.0,0.0,2.3155,2.3408,2.3213,2.3207,2.3258,2.3229,2.382,2.4021,2.3261,2.2853,2.1758,1.9399,1.8777,1.8159,1.712,1.7868,1.7903,1.6908,1.7666,1.7774,1.6814,1.6779,1.6823,1.6847,1.6957,1.6955,1.663,1.6567,1.6348,1.6204,1.6078,1.5971,1.589,1.5764,1.5589,1.5388,1.5122,1.4838,1.4592,1.4394,1.4298,1.4298,1.4298,1.4298,1.4298,1.4298,1.4298,1.4298,1.4298,1.4298,1.4298,1.4298,1.4298,1.4298,1.4298,1.4455,1.4618,1.4618,1.4618,1.4618,1.4618,1.4455,1.4358,1.457,1.4829,1.5077,1.5276,1.5529,1.5704,1.5704,1.5541,1.5409,1.5409,1.5409,1.5336,1.5137,1.5052,1.4938,1.4739,1.4467,1.4298,1.4298,1.4298,1.4298,1.4298,1.4298,1.4298,1.4298,1.4298,1.4268,1.4208,1.4262,1.4268,1.4208,1.4268,1.4298,1.4298,1.4298,1.4298,2.42,2.4223,2.4303,2.4602,2.4653,2.454,2.3827,0.0,0.0,0.0,0.0,0.0,0.0,2.3248,2.3523,2.3523,2.3529,2.362,2.3673,2.3585,2.357,2.3494,2.3017,2.2079,2.0615,1.9574,1.8468,1.7563,1.7699,1.7499,1.6711,1.7322,1.7237,1.6513,1.664,1.668,1.6744,1.6902,1.684,1.665,1.6626,1.6445,1.6317,1.6189,1.6049,1.591,1.591,1.5751,1.5496,1.5189,1.4936,1.4688,1.4394,1.4298,1.4298,1.4298,1.4298,1.4298,1.4298,1.4298,1.4298,1.4298,1.4298,1.4298,1.4298,1.4298,1.4298,1.4298,1.4407,1.4521,1.4521,1.4521,1.4521,1.4521,1.4509,1.4533,1.4684,1.5016,1.533,1.5475,1.571,1.5891,1.5891,1.5771,1.568,1.568,1.568,1.5626,1.5487,1.536,1.5234,1.5089,1.4727,1.4491,1.4491,1.437,1.4298,1.4298,1.4298,1.4298,1.4298,1.4298,1.4298,1.4298,1.4298,1.4298,1.4298,1.4298,1.4298,1.4298,1.4298,1.4298,2.3982,2.3635,2.3324,2.3475,2.3486,2.3518,2.3408,0.0,0.0,0.0,0.0,0.0,0.0,2.3073,2.3472,2.3604,2.3884,2.4098,2.4055,2.3359,2.3252,2.4209,2.3221,2.2456,2.2417,2.0406,1.8832,1.8149,1.7201,1.6704,1.6607,1.6643,1.646,1.6213,1.6446,1.6573,1.6573,1.666,1.6733,1.6677,1.6436,1.6315,1.6285,1.6049,1.5921,1.5876,1.5876,1.5748,1.553,1.5231,1.4996,1.4688,1.4496,1.4298,1.4298,1.4394,1.4394,1.4394,1.4394,1.4394,1.4394,1.4394,1.4394,1.4394,1.4298,1.4298,1.4298,1.4298,1.4328,1.4358,1.4358,1.4358,1.4358,1.4358,1.4539,1.4727,1.4769,1.5155,1.5511,1.5553,1.5734,1.5891,1.5891,1.5891,1.5891,1.5891,1.5891,1.5891,1.5891,1.5662,1.5499,1.5499,1.5065,1.4757,1.4721,1.4497,1.434,1.4298,1.4298,1.4298,1.4298,1.4298,1.4298,1.4298,1.4298,1.4298,1.4298,1.4298,1.4298,1.4298,1.4298,1.4298,2.3029,2.2888,2.3108,2.3899,2.4085,2.3879,2.3202,0.0,0.0,0.0,0.0,0.0,0.0,2.3022,2.3464,2.3972,2.426,2.4586,2.5139,2.4849,2.4482,2.3955,2.3958,2.3362,2.1475,2.0541,1.9571,1.8427,1.7478,1.6767,1.6293,1.6239,1.6143,1.5899,1.5939,1.5965,1.5965,1.646,1.6727,1.6673,1.6627,1.65,1.6308,1.6261,1.6102,1.587,1.587,1.5747,1.5708,1.5236,1.5121,1.4987,1.479,1.4496,1.4394,1.479,1.479,1.4688,1.4885,1.4987,1.4981,1.4694,1.4592,1.4592,1.4394,1.4298,1.4298,1.4298,1.4467,1.4654,1.4654,1.4654,1.4654,1.4654,1.4684,1.4781,1.4998,1.5282,1.5565,1.5783,1.5861,1.5891,1.5891,1.5891,1.5891,1.5891,1.5891,1.5891,1.5891,1.5662,1.5499,1.5499,1.5228,1.4956,1.4739,1.4678,1.4552,1.431,1.4298,1.4298,1.4298,1.4298,1.4298,1.4298,1.4298,1.4298,1.4298,1.4298,1.4298,1.4298,1.4298,1.4298,2.2742,2.2708,2.2808,2.3047,2.2962,2.2599,2.198,2.206,0.0,0.0,0.0,0.0,2.2778,2.3247,2.3519,2.3493,2.3889,2.4175,2.404,2.3837,2.3711,2.3779,2.3555,2.3163,2.2577,2.1168,1.9968,1.9422,1.7885,1.6885,1.6697,1.6501,1.6312,1.6028,1.6028,1.5927,1.5832,1.6099,1.6313,1.6473,1.6306,1.6246,1.6266,1.6106,1.5959,1.5832,1.5832,1.5832,1.5737,1.5452,1.5356,1.5261,1.4981,1.4885,1.4783,1.4987,1.4987,1.4885,1.5083,1.5083,1.5083,1.4987,1.4892,1.4885,1.479,1.4688,1.4688,1.4688,1.4588,1.4527,1.4678,1.4714,1.4751,1.4896,1.5034,1.5173,1.5294,1.5634,1.5958,1.608,1.6211,1.6311,1.6311,1.6211,1.6111,1.6111,1.5998,1.5891,1.5891,1.5783,1.571,1.571,1.5475,1.527,1.5149,1.4877,1.46,1.4316,1.4298,1.4298,1.4298,1.4298,1.4298,1.4298,1.4298,1.4298,1.4298,1.4298,1.4298,1.4298,1.4298,1.4298,2.218,2.225,2.2275,2.1891,0.0,2.1717,2.1207,2.1199,0.0,0.0,2.2324,2.2525,2.2635,2.3082,2.3242,2.2695,2.3063,2.3312,2.2686,2.2625,2.2803,2.3352,2.3027,2.294,2.3306,2.141,2.0141,1.9877,1.8156,1.6972,1.6878,1.6683,1.6494,1.6123,1.6123,1.5994,1.5732,1.5798,1.5945,1.6166,1.5939,1.5945,1.6159,1.5932,1.5832,1.5832,1.5832,1.5832,1.5737,1.554,1.554,1.5445,1.5267,1.5172,1.5267,1.5178,1.5172,1.5267,1.5267,1.5267,1.5267,1.5178,1.5172,1.5172,1.5083,1.5083,1.5083,1.5083,1.4833,1.4649,1.493,1.5053,1.515,1.5352,1.5554,1.5707,1.5707,1.602,1.6424,1.6424,1.6524,1.673,1.663,1.6424,1.6324,1.6217,1.5998,1.5891,1.5891,1.5891,1.5891,1.5891,1.571,1.5565,1.5505,1.5022,1.4624,1.4413,1.4334,1.4298,1.4298,1.4298,1.4298,1.4298,1.4298,1.4298,1.4298,1.4298,1.4298,1.4298,1.4298,1.4298,2.0761,2.0994,2.1263,2.0794,2.1721,0.0,2.1822,2.1956,0.0,2.1939,2.2015,2.2186,2.2127,2.2256,2.2236,2.1937,2.1895,2.1926,2.2019,2.2568,2.2834,2.2419,2.3171,2.3198,2.1946,2.0889,1.9869,1.8972,1.7878,1.7052,1.6676,1.6588,1.6393,1.5832,1.5832,1.5698,1.5431,1.5698,1.5838,1.5865,1.5838,1.5838,1.5858,1.5838,1.5832,1.5832,1.5832,1.5832,1.5737,1.554,1.554,1.554,1.5445,1.5547,1.5737,1.554,1.5547,1.5737,1.5737,1.5737,1.5737,1.554,1.5445,1.5452,1.5172,1.5083,1.5083,1.5083,1.5267,1.5528,1.5708,1.5967,1.6163,1.6182,1.62,1.6213,1.6213,1.6434,1.6624,1.6624,1.673,1.663,1.6318,1.6324,1.6217,1.5998,1.5891,1.5891,1.5891,1.5891,1.5891,1.5891,1.5873,1.5765,1.5517,1.5022,1.4708,1.469,1.4443,1.4298,1.4298,1.4298,1.4298,1.4298,1.4298,1.4298,1.4298,1.4298,1.4298,1.4298,1.4298,1.4298,2.0458,2.0602,2.0805,2.0616,2.1116,0.0,0.0,2.0915,2.1031,2.1321,2.1665,2.211,2.2501,2.2712,2.2315,2.0962,2.1906,2.2346,2.0906,2.1242,2.1799,2.2208,2.2441,2.2316,2.1713,2.0782,1.9778,1.888,1.7878,1.7145,1.6878,1.6878,1.6595,1.6028,1.5852,1.5704,1.5398,1.5504,1.5651,1.5832,1.5832,1.5832,1.5832,1.5832,1.5832,1.5832,1.5832,1.5832,1.5825,1.5737,1.5737,1.5737,1.5737,1.573,1.5825,1.573,1.573,1.5832,1.5832,1.5832,1.5825,1.573,1.5737,1.5642,1.5547,1.5678,1.5822,1.5822,1.6157,1.6498,1.6023,1.6113,1.6361,1.6533,1.6577,1.6577,1.6577,1.6772,1.6955,1.6955,1.716,1.716,1.6961,1.6855,1.6749,1.6418,1.6418,1.6418,1.6418,1.6418,1.6418,1.6418,1.6211,1.6001,1.5738,1.5421,1.5137,1.4974,1.4545,1.4298,1.4298,1.4298,1.4298,1.4298,1.4298,1.4298,1.4298,1.4298,1.4298,1.4298,1.4479,1.4558,2.0023,2.0155,2.037,0.0,0.0,0.0,2.0605,2.0398,2.0492,2.109,2.1456,2.185,2.2492,2.2303,2.1636,2.0322,2.1171,2.1432,1.9966,2.039,2.1183,2.1816,2.2054,2.1826,2.1069,2.0442,1.9604,1.8342,1.7606,1.7059,1.6791,1.6692,1.6448,1.5987,1.5701,1.5406,1.5117,1.5211,1.5357,1.5558,1.5651,1.5792,1.5972,1.5972,1.5919,1.5832,1.5832,1.5832,1.5832,1.5832,1.5832,1.5832,1.5832,1.5832,1.5832,1.5832,1.5832,1.5832,1.5832,1.5832,1.5832,1.5832,1.5832,1.5832,1.5832,1.6039,1.6273,1.6273,1.6693,1.7101,1.6495,1.6549,1.6808,1.6897,1.6942,1.6942,1.6942,1.7166,1.7279,1.7279,1.7483,1.7477,1.7285,1.7179,1.7067,1.673,1.673,1.673,1.673,1.673,1.673,1.673,1.6524,1.6349,1.6162,1.5958,1.5628,1.5444,1.5017,1.4618,1.4431,1.4431,1.4389,1.4298,1.4298,1.434,1.4431,1.4431,1.4473,1.4558,1.4751,1.4841,1.9291,1.9515,1.9946,0.0,0.0,0.0,2.109,2.0876,2.0951,2.142,2.1359,2.133,2.1811,2.0747,1.9901,2.0099,1.9247,1.8729,1.9264,2.0344,2.1099,2.1099,2.2254,2.2155,1.9806,1.9757,1.9072,1.716,1.6979,1.6784,1.6218,1.6102,1.5844,1.5391,1.511,1.4823,1.4522,1.481,1.4963,1.497,1.5264,1.5705,1.6273,1.6273,1.6106,1.5832,1.5832,1.5832,1.5832,1.5832,1.5832,1.5832,1.5832,1.5832,1.5832,1.5832,1.5832,1.5832,1.5832,1.5832,1.5832,1.5832,1.5832,1.5832,1.5832,1.6039,1.6273,1.6279,1.67,1.7148,1.7154,1.7368,1.7582,1.7582,1.7582,1.7582,1.7582,1.7582,1.7582,1.7582,1.7582,1.7477,1.7285,1.7179,1.7067,1.6736,1.673,1.673,1.673,1.673,1.673,1.673,1.673,1.673,1.673,1.6482,1.6323,1.6323,1.5814,1.5306,1.4714,1.4714,1.4582,1.4304,1.4298,1.4437,1.4721,1.4721,1.4853,1.5107,1.5113,1.5113,1.9696,1.9549,0.0,2.032,0.0,0.0,0.0,2.0803,0.0,2.1429,2.1431,2.162,2.2252,2.1689,2.1015,2.0862,2.0078,1.9472,1.9504,1.9431,1.9566,2.0346,2.017,1.9844,1.9129,1.862,1.7788,1.6444,1.6359,1.6169,1.5581,1.5569,1.5438,1.509,1.481,1.4609,1.4522,1.4609,1.4856,1.5271,1.5565,1.5792,1.5965,1.5965,1.5912,1.5832,1.5832,1.5832,1.5832,1.5832,1.5832,1.5832,1.5832,1.5832,1.5832,1.5832,1.5832,1.5832,1.5832,1.5832,1.5832,1.5832,1.5832,1.5832,1.5832,1.6039,1.6319,1.652,1.6854,1.7194,1.7402,1.7515,1.7582,1.7582,1.7582,1.7582,1.7582,1.7582,1.7582,1.7582,1.7582,1.7477,1.7285,1.7384,1.7378,1.7067,1.716,1.7371,1.7371,1.7371,1.7371,1.7371,1.7166,1.7067,1.7067,1.6765,1.6609,1.6609,1.6456,1.5896,1.5023,1.482,1.4673,1.4594,1.4594,1.4727,1.4992,1.4992,1.5034,1.5113,1.5294,1.5384,1.9482,1.9394,0.0,1.9922,1.9945,1.9941,2.0287,2.0714,2.1188,2.1589,2.1646,2.1863,2.2393,2.1919,2.1328,2.0924,2.0367,1.9912,1.9852,1.958,1.9596,2.019,1.9711,1.9136,1.8963,1.8442,1.7671,1.6922,1.7033,1.6689,1.5754,1.5708,1.5388,1.4783,1.4502,1.4349,1.4349,1.4349,1.4583,1.505,1.5224,1.5431,1.5665,1.5899,1.5939,1.5832,1.5832,1.5832,1.5832,1.5832,1.5832,1.5832,1.5832,1.5832,1.5845,1.5965,1.5925,1.5845,1.5965,1.5925,1.5832,1.5832,1.5832,1.5852,1.5972,1.6132,1.6359,1.6767,1.7014,1.7215,1.7508,1.7582,1.7582,1.7582,1.7582,1.7582,1.7582,1.7582,1.7582,1.7582,1.7582,1.7589,1.7384,1.7483,1.7589,1.7378,1.7483,1.7582,1.7582,1.7582,1.7582,1.7582,1.7483,1.7384,1.7384,1.716,1.7047,1.7047,1.6944,1.6549,1.5846,1.537,1.5109,1.4871,1.4871,1.4998,1.5264,1.5264,1.5318,1.5421,1.5578,1.5656,1.9009,1.9233,1.9539,1.9198,1.9562,1.9993,1.9909,2.0715,2.156,2.1722,2.1807,2.1992,2.2334,2.1646,2.0934,2.0558,2.0223,2.0036,2.012,2.0365,2.0519,2.0519,1.9989,1.9477,1.9094,1.8654,1.8306,1.7913,1.8177,1.776,1.6287,1.608,1.5505,1.4482,1.4222,1.4088,1.4088,1.4088,1.4229,1.4522,1.4522,1.481,1.5378,1.5939,1.6059,1.5832,1.5832,1.5832,1.5832,1.5832,1.5832,1.5832,1.5832,1.5832,1.5865,1.6132,1.6059,1.5872,1.6166,1.6092,1.5872,1.5899,1.5912,1.5959,1.6233,1.6313,1.6433,1.6994,1.7148,1.7215,1.7508,1.7582,1.7582,1.7582,1.7582,1.7582,1.7582,1.7582,1.7582,1.7582,1.7582,1.7582,1.7582,1.7582,1.7582,1.7582,1.7582,1.7582,1.7582,1.7582,1.7582,1.7582,1.7582,1.7582,1.7582,1.7582,1.7582,1.7582,1.7335,1.7091,1.6898,1.6226,1.5676,1.5245,1.5245,1.5372,1.5535,1.5535,1.5656,1.5891,1.5891,1.5891,1.9412,1.9437,0.0,1.9309,1.9479,1.9775,2.0058,2.0682,2.1144,2.0633,2.1262,2.1807,2.1553,2.0857,2.0613,2.147,2.0163,1.9457,2.0608,2.0179,1.9855,1.9855,1.851,1.7887,1.8528,1.7265,1.6642,1.7249,1.6721,1.6193,1.5613,1.4965,1.443,1.4175,1.4122,1.4088,1.4088,1.4088,1.4229,1.4522,1.4522,1.471,1.507,1.5424,1.5678,1.5832,1.5832,1.5832,1.5832,1.5832,1.5832,1.5832,1.5832,1.5832,1.5838,1.5899,1.5885,1.5872,1.6166,1.6233,1.6219,1.6446,1.6513,1.6533,1.6593,1.6613,1.6687,1.7048,1.7148,1.7215,1.7508,1.7582,1.7582,1.7582,1.7582,1.7582,1.7582,1.7582,1.7582,1.7582,1.7582,1.7582,1.7582,1.7582,1.7582,1.7582,1.7582,1.7582,1.7582,1.7582,1.7582,1.7582,1.7582,1.7582,1.7582,1.7582,1.7582,1.7582,1.7522,1.739,1.7088,1.6549,1.6183,1.6022,1.6028,1.6062,1.6131,1.6131,1.605,1.5891,1.6111,1.6105,1.9242,0.0,0.0,1.8921,1.9213,1.9667,1.9708,2.036,2.0732,2.0144,2.1056,2.1748,2.1138,2.0898,2.08,2.0914,2.0179,1.9689,2.0221,1.9767,1.9478,1.9478,1.8318,1.7814,1.876,1.7788,1.7403,1.8133,1.7879,1.7239,1.6064,1.5553,1.4985,1.4173,1.4088,1.4088,1.4088,1.4088,1.4162,1.4315,1.4315,1.4543,1.4977,1.5264,1.5558,1.5832,1.5832,1.5832,1.5832,1.5832,1.5832,1.5832,1.5832,1.5832,1.5845,1.5985,1.6039,1.6086,1.638,1.6386,1.6319,1.6613,1.6613,1.6553,1.6834,1.682,1.68,1.7235,1.7255,1.7215,1.7508,1.7582,1.7582,1.7582,1.7582,1.7582,1.7582,1.7582,1.7582,1.7582,1.7582,1.7582,1.7582,1.7582,1.7582,1.7582,1.7582,1.7582,1.7582,1.7582,1.7582,1.7582,1.7582,1.7582,1.7582,1.7582,1.7582,1.7582,1.7582,1.7582,1.7378,1.7087,1.6788,1.6514,1.6514,1.6485,1.653,1.653,1.6418,1.6311,1.6418,1.6418,1.8808,0.0,1.8674,1.8337,1.8884,1.9436,1.935,1.9893,2.0371,2.0088,2.0898,2.1514,2.0825,2.1005,2.0981,2.0134,2.0085,2.0037,1.9613,1.939,1.9301,1.9301,1.8567,1.8318,1.9222,1.8786,1.8684,1.925,1.93,1.8594,1.6796,1.637,1.5553,1.4173,1.4088,1.4088,1.4088,1.4088,1.4088,1.4088,1.4088,1.4396,1.497,1.5211,1.5504,1.5832,1.5832,1.5832,1.5832,1.5832,1.5832,1.5832,1.5832,1.5832,1.5858,1.6106,1.6192,1.6246,1.6587,1.6547,1.64,1.6747,1.6693,1.6593,1.7074,1.7054,1.6961,1.7448,1.7408,1.7281,1.7522,1.7582,1.7582,1.7582,1.7582,1.7582,1.7582,1.7582,1.7582,1.7582,1.7582,1.7582,1.7582,1.7582,1.7582,1.7582,1.7582,1.7582,1.7582,1.7582,1.7582,1.7582,1.7582,1.7582,1.7582,1.7582,1.7582,1.7582,1.7582,1.7582,1.7582,1.7582,1.7371,1.6836,1.6836,1.6836,1.6842,1.6842,1.6736,1.673,1.6736,1.6736,1.8549,0.0,1.8337,1.8337,1.8508,1.8828,1.9199,1.9658,2.0088,2.041,2.0625,2.0605,2.0166,2.0294,2.0399,2.0284,1.992,1.9701,1.9645,1.939,1.9301,1.9301,1.8567,1.8318,1.9222,1.8531,1.8379,1.9222,1.7968,1.6992,1.6698,1.5228,1.4334,1.4088,1.4088,1.4088,1.4088,1.4088,1.4088,1.4088,1.4088,1.4396,1.4963,1.5003,1.5317,1.5832,1.5832,1.5832,1.5832,1.5832,1.5832,1.5832,1.5832,1.5832,1.5832,1.5872,1.5885,1.5965,1.6513,1.668,1.674,1.7288,1.7442,1.7422,1.7502,1.7495,1.7482,1.7562,1.7555,1.7528,1.7569,1.7582,1.7582,1.7582,1.7582,1.7582,1.7582,1.7582,1.7582,1.7582,1.7582,1.7582,1.7582,1.7582,1.7582,1.7582,1.7582,1.7582,1.7582,1.7582,1.7582,1.7582,1.7582,1.7582,1.7582,1.7582,1.7582,1.7582,1.7582,1.7582,1.7582,1.7582,1.7582,1.7477,1.7477,1.7378,1.7173,1.7173,1.6955,1.673,1.6955,1.6955,1.8414,1.8269,1.8144,1.8144,1.8389,1.8682,1.8877,1.9258,1.9687,2.0107,2.0195,2.0215,2.012,2.0217,2.0264,2.0108,1.9872,1.9715,1.9645,1.9557,1.939,1.9301,1.8975,1.8895,1.9222,1.8975,1.8895,1.9301,1.8567,1.7917,1.7423,1.6698,1.6041,1.556,1.556,1.556,1.556,1.5068,1.458,1.4088,1.4088,1.4309,1.4723,1.4883,1.5284,1.5832,1.5832,1.5832,1.5832,1.5832,1.5832,1.5832,1.5832,1.5832,1.5832,1.5832,1.5939,1.6139,1.656,1.6707,1.6807,1.7395,1.7475,1.7341,1.7341,1.7341,1.7301,1.7134,1.7208,1.7375,1.7542,1.7582,1.7622,1.7802,1.7709,1.7582,1.7582,1.7582,1.7582,1.7582,1.7582,1.7582,1.7582,1.7582,1.7582,1.7582,1.7582,1.7582,1.7582,1.7582,1.7582,1.7582,1.7582,1.7582,1.7582,1.7582,1.7582,1.7582,1.7582,1.7582,1.7582,1.7582,1.7582,1.7582,1.7582,1.7582,1.7378,1.7378,1.7371,1.7265,1.7378,1.7371,1.8279,1.8144,1.8008,1.8008,1.8242,1.8506,1.8613,1.8887,1.9268,1.9805,1.9912,1.9973,2.0333,2.0342,2.0255,2.002,2.002,1.9951,1.9715,1.9715,1.9636,1.939,1.9381,1.946,1.9381,1.9381,1.9381,1.9381,1.9143,1.8727,1.7997,1.7755,1.735,1.6698,1.6698,1.6698,1.6698,1.5801,1.4985,1.4088,1.4088,1.4242,1.4529,1.483,1.5197,1.5618,1.5765,1.5832,1.5832,1.5832,1.5832,1.5832,1.5832,1.5832,1.5832,1.5832,1.5972,1.6199,1.6493,1.66,1.668,1.7194,1.7215,1.7041,1.7041,1.7041,1.7007,1.686,1.6981,1.7215,1.7508,1.7642,1.7736,1.7896,1.7809,1.7675,1.7602,1.7582,1.7582,1.7582,1.7582,1.7582,1.7582,1.7582,1.7582,1.7582,1.7582,1.7582,1.7582,1.7582,1.7582,1.7582,1.7582,1.7582,1.7582,1.7582,1.7582,1.7582,1.7582,1.7582,1.7582,1.7582,1.7582,1.7582,1.7582,1.7582,1.7582,1.7582,1.7582,1.7582,1.7582,1.7582,1.8008,1.8008,1.8008,1.8008,1.8027,1.8144,1.8545,1.8652,1.8906,1.9746,1.9912,2.0049,2.0488,2.0566,2.0489,2.0342,2.0264,2.0186,1.9942,1.9863,1.9794,1.9636,1.9784,1.9784,1.9636,1.9566,1.9566,1.9566,1.8656,1.8078,1.7997,1.7188,1.678,1.6698,1.6698,1.6698,1.6698,1.5801,1.4985,1.4088,1.4088,1.4242,1.4529,1.483,1.4983,1.5037,1.5591,1.5832,1.5832,1.5832,1.5832,1.5832,1.5832,1.5832,1.5832,1.5832,1.5838,1.5892,1.6192,1.6293,1.6346,1.6653,1.674,1.6727,1.6727,1.6727,1.678,1.7048,1.7141,1.7215,1.7508,1.7802,1.7956,1.7669,1.7816,1.7943,1.7649,1.7582,1.7582,1.7582,1.7582,1.7582,1.7582,1.7582,1.7582,1.7582,1.7582,1.7582,1.7582,1.7582,1.7582,1.7582,1.7582,1.7582,1.7582,1.7582,1.7582,1.7582,1.7582,1.7582,1.7582,1.7582,1.7582,1.7582,1.7582,1.7582,1.7582,1.7582,1.7582,1.7582,1.7582,1.7582,1.72,1.7393,1.7539,1.7266,1.7607,1.7978,1.7861,1.8252,1.8721,1.9033,1.9092,1.9228,1.9668,2.0195,2.0566,2.0489,2.0489,2.0411,2.0186,2.0186,2.0108,1.9794,1.9863,1.9863,1.9794,1.9784,1.9784,1.9784,1.9311,1.9063,1.9063,1.8576,1.8407,1.8407,1.8407,1.7836,1.6698,1.637,1.556,1.4088,1.4088,1.4142,1.4255,1.4543,1.4676,1.471,1.5297,1.5444,1.5291,1.5478,1.5551,1.5571,1.5758,1.5832,1.5832,1.5832,1.5832,1.5872,1.6166,1.6273,1.6319,1.6613,1.6707,1.6667,1.6486,1.6426,1.6406,1.6326,1.644,1.6693,1.7181,1.7388,1.7488,1.7562,1.7669,1.7716,1.7609,1.7582,1.7582,1.7582,1.7582,1.7582,1.7582,1.7582,1.7582,1.7582,1.7582,1.7582,1.7582,1.7582,1.7582,1.7582,1.7582,1.7582,1.7582,1.7582,1.7582,1.7582,1.7582,1.7582,1.7582,1.7582,1.7582,1.7582,1.7582,1.7582,1.7582,1.7582,1.7582,1.7582,1.7582,1.7582,1.7057,1.7298,1.7529,1.7236,1.748,1.7764,1.7627,1.792,1.8291,1.8504,1.8562,1.8769,1.9209,1.9756,2.0137,2.0137,2.0137,2.0185,2.0178,2.0198,2.0101,2.001,2.0098,2.0098,2.002,2.002,2.002,2.002,1.9794,1.9715,1.9715,1.9469,1.939,1.9301,1.9301,1.8567,1.718,1.6944,1.6049,1.4496,1.4328,1.4166,1.4095,1.4389,1.4469,1.4402,1.489,1.5104,1.5124,1.5317,1.5398,1.5418,1.5611,1.5685,1.5698,1.5792,1.5832,1.5858,1.6052,1.6126,1.6159,1.6346,1.6413,1.6373,1.6186,1.6126,1.6106,1.6005,1.6119,1.6433,1.7114,1.7375,1.7495,1.7695,1.7655,1.7582,1.7582,1.7582,1.7582,1.7582,1.7582,1.7582,1.7582,1.7582,1.7582,1.7582,1.7582,1.7582,1.7582,1.7582,1.7582,1.7582,1.7582,1.7582,1.7582,1.7582,1.7582,1.7582,1.7582,1.7582,1.7582,1.7582,1.7582,1.7582,1.7582,1.7582,1.7582,1.7582,1.7582,1.7582,1.7582,1.7582,0.0,0.0,0.0,1.7969,1.7676,1.748,1.7881,1.7676,1.7627,1.8437,1.8533,1.875,1.917,1.9248,1.9248,1.9248,1.9268,1.9434,1.9844,1.9902,1.9992,2.0275,2.0479,2.0479,2.0342,2.0333,2.0333,2.0342,2.002,1.9942,1.9942,1.9715,1.9557,1.9301,1.9301,1.8895,1.7997,1.7359,1.6542,1.5477,1.481,1.4405,1.4179,1.4462,1.4435,1.4186,1.4396,1.4843,1.5371,1.5371,1.5371,1.5371,1.5391,1.5398,1.5431,1.5718,1.5832,1.5832,1.5832,1.5832,1.5832,1.5832,1.5832,1.5832,1.5832,1.5832,1.5885,1.6179,1.6259,1.646,1.7328,1.7796,1.8029,1.8029,1.7802,1.7582,1.7582,1.7582,1.7582,1.7582,1.7582,1.7582,1.7582,1.7582,1.7582,1.7582,1.7582,1.7582,1.7582,1.7582,1.7589,1.7595,1.7595,1.7602,1.7609,1.7602,1.7595,1.7595,1.7589,1.7582,1.7582,1.7582,1.7582,1.7582,1.7582,1.7582,1.7582,1.7582,1.7582,1.7582,1.7582,1.7582,1.6618,0.0,0.0,0.0,0.0,0.0,1.7064,1.748,1.7812,1.7744,1.7969,1.8223,1.834,1.8359,1.8359,1.8359,1.8887,1.9326,1.9443,1.9727,1.9961,2.0002,2.0098,2.0225,2.0459,2.0206,2.0148,2.0469,2.0333,2.0186,2.0186,1.9942,1.9784,1.9706,1.9696,1.9301,1.8479,1.8238,1.7585,1.6601,1.6519,1.6355,1.6191,1.5808,1.5467,1.5235,1.4905,1.4791,1.4763,1.4763,1.4763,1.4803,1.5231,1.5398,1.5431,1.5718,1.5832,1.5832,1.5832,1.5832,1.5832,1.5832,1.5832,1.5832,1.5832,1.5832,1.5845,1.5925,1.5952,1.6106,1.6774,1.7328,1.7709,1.7709,1.7649,1.7582,1.7582,1.7582,1.7582,1.7582,1.7582,1.7582,1.7582,1.7582,1.7582,1.7582,1.7582,1.7582,1.7582,1.7582,1.7669,1.7896,1.7916,1.8009,1.8223,1.8043,1.7916,1.7916,1.7709,1.7582,1.7582,1.7582,1.7582,1.7582,1.7582,1.7582,1.7582,1.7582,1.7582,1.7582,1.7582,1.7582,1.6495,1.6788,1.7044,1.692,0.0,0.0,1.7023,1.7311,1.7581,1.7465,1.7697,1.7804,1.7639,1.7677,1.7744,1.7744,1.8164,1.8613,1.8965,1.9228,1.9453,1.9629,1.9648,1.9756,2.001,1.9805,1.9834,2.0264,2.0061,1.9811,1.9745,1.9917,1.9944,1.9695,1.9778,1.9696,1.9134,1.8877,1.839,1.7658,1.7496,1.7334,1.7082,1.6683,1.6445,1.637,1.592,1.5503,1.4993,1.5411,1.5162,1.4657,1.5127,1.5308,1.5355,1.5678,1.5832,1.5832,1.5832,1.5832,1.5832,1.5832,1.5832,1.5832,1.5832,1.5832,1.5832,1.5832,1.6099,1.6433,1.6647,1.7235,1.7742,1.7615,1.7582,1.7582,1.7582,1.7582,1.7582,1.7582,1.7582,1.7582,1.7582,1.7582,1.7582,1.7582,1.7582,1.7582,1.7582,1.7582,1.7649,1.7836,1.7856,1.7923,1.8096,1.7956,1.7856,1.7856,1.7682,1.7582,1.7582,1.7582,1.7582,1.7582,1.7582,1.7582,1.7582,1.7582,1.7582,1.7582,1.7582,1.7582,1.6738,1.7116,1.7401,1.747,1.7283,0.0,1.7377,1.7197,1.7063,1.732,1.7445,1.7456,1.7091,1.7164,1.7324,1.7373,1.7383,1.7666,1.8457,1.8533,1.8779,1.917,1.9219,1.9238,1.9277,1.9248,1.9385,1.9814,1.9502,1.9214,1.9004,1.9792,1.9957,1.9355,1.962,1.98,1.98,1.9358,1.8973,1.8735,1.8204,1.79,1.7666,1.7585,1.7496,1.7504,1.7163,1.6593,1.5944,1.6675,1.6217,1.503,1.5185,1.5315,1.548,1.5705,1.5832,1.5832,1.5832,1.5832,1.5832,1.5832,1.5832,1.5832,1.5832,1.5832,1.5832,1.5832,1.644,1.7041,1.6774,1.7348,1.7923,1.7649,1.7582,1.7582,1.7582,1.7582,1.7582,1.7582,1.7582,1.7582,1.7582,1.7582,1.7582,1.7582,1.7582,1.7582,1.7582,1.7582,1.7595,1.7629,1.7629,1.7649,1.7682,1.7655,1.7629,1.7629,1.7602,1.7582,1.7582,1.7582,1.7582,1.7582,1.7582,1.7602,1.7629,1.7602,1.7582,1.7582,1.7582,1.7602,1.6594,1.6751,1.6821,1.7166,1.6927,0.0,1.6873,1.6627,1.6398,1.6548,1.6706,1.6751,1.6738,1.6792,1.6973,1.7324,1.7383,1.7559,1.8057,1.8428,1.8592,1.876,1.876,1.8896,1.9248,1.8965,1.8945,1.9375,1.9336,1.9287,1.9214,1.937,1.9428,1.9267,1.9345,1.9393,1.9393,1.9638,1.9659,1.944,1.9839,1.9923,1.9696,1.9134,1.8807,1.863,1.79,1.7334,1.7009,1.7172,1.6558,1.5617,1.63,1.6521,1.633,1.6171,1.6028,1.5832,1.5832,1.5832,1.5832,1.5832,1.5832,1.5832,1.5832,1.5832,1.5832,1.5832,1.6293,1.678,1.672,1.7188,1.7655,1.7595,1.7582,1.7582,1.7582,1.7582,1.7582,1.7582,1.7582,1.7582,1.7582,1.7582,1.7582,1.7582,1.7582,1.7582,1.7582,1.7582,1.7675,1.7929,1.7956,1.8056,1.8297,1.8096,1.7956,1.7956,1.7722,1.7582,1.7582,1.7582,1.7582,1.7582,1.7582,1.7709,1.7956,1.7702,1.7582,1.7582,1.7582,1.7716,1.6333,1.6473,1.6673,1.6881,1.6871,0.0,0.0,1.6627,1.6694,1.6552,1.675,1.6977,1.6886,1.6986,1.7129,1.7344,1.7383,1.7529,1.7949,1.8193,1.832,1.832,1.832,1.8408,1.8633,1.8457,1.8418,1.8633,1.9043,1.9102,1.8672,1.9053,1.9189,1.8965,1.918,1.9287,1.9287,1.9502,1.9632,1.9771,2.0061,2.0361,2.042,2.0089,1.9923,1.9766,1.9195,1.863,1.8149,1.8638,1.823,1.74,1.7624,1.7296,1.6765,1.6899,1.6487,1.5832,1.5832,1.5832,1.5832,1.5832,1.5832,1.5832,1.5832,1.5832,1.5858,1.6012,1.6366,1.674,1.6887,1.7248,1.7582,1.7582,1.7582,1.7582,1.7582,1.7582,1.7582,1.7582,1.7582,1.7582,1.7582,1.7582,1.7582,1.7582,1.7582,1.7582,1.7582,1.7582,1.7642,1.7796,1.7816,1.7876,1.8023,1.8043,1.7976,1.7822,1.7816,1.7742,1.7589,1.7582,1.7582,1.7582,1.7582,1.7662,1.7816,1.7655,1.7662,1.7816,1.7816,1.7976,1.6061,1.6263,1.6542,1.6603,1.6811,1.6945,0.0,0.0,0.0,1.6533,1.6853,1.7091,1.6862,1.7057,1.721,1.7298,1.7317,1.7529,1.7872,1.8008,1.8037,1.8115,1.8057,1.8047,1.8125,1.8203,1.8193,1.8018,1.8877,1.9004,1.8057,1.874,1.8965,1.8525,1.8857,1.9043,1.9043,1.9121,1.9375,1.9795,1.9873,2.0146,2.0566,2.0566,2.0566,2.0566,2.0411,1.9932,1.9362,2.0098,1.9932,1.9277,1.8895,1.8164,1.7205,1.7621,1.6943,1.5832,1.5832,1.5832,1.5832,1.5832,1.5832,1.5832,1.5832,1.5832,1.5892,1.6186,1.648,1.6774,1.7074,1.7368,1.7582,1.7582,1.7582,1.7582,1.7582,1.7582,1.7582,1.7582,1.7582,1.7582,1.7582,1.7582,1.7582,1.7582,1.7582,1.7582,1.7582,1.7582,1.7582,1.7582,1.7582,1.7582,1.7582,1.7869,1.7916,1.7602,1.7876,1.7909,1.7595,1.7642,1.7669,1.7669,1.7729,1.7729,1.7669,1.7669,1.7769,1.7956,1.8016,1.8176,1.6061,1.6132,1.6202,1.6533,1.6603,1.6664,1.6775,0.0,1.6333,1.6039,0.0,1.6028,1.5804,0.0,0.0,1.6845,1.7185,1.7463,1.7726,1.7862,1.8144,1.8525,1.8242,1.8154,1.8525,1.8916,1.8828,1.8066,1.915,1.9307,1.8076,1.8457,1.8516,1.8096,1.8135,1.8154,1.8154,1.8525,1.8926,1.9365,1.9736,2.0146,2.0566,2.0566,2.0566,2.0566,2.0566,2.0489,2.0411,2.0566,2.0489,2.041,2.0255,1.929,1.8072,1.7972,1.7023,1.5832,1.5832,1.5927,1.6123,1.5927,1.5832,1.5832,1.5832,1.5832,1.5892,1.6186,1.648,1.6774,1.7074,1.7368,1.7582,1.7582,1.7582,1.7582,1.7582,1.7582,1.7582,1.7582,1.7582,1.7582,1.7582,1.7582,1.7582,1.7582,1.7582,1.7582,1.7582,1.7582,1.7582,1.7582,1.7582,1.7582,1.7582,1.7869,1.7916,1.7602,1.7876,1.7909,1.7595,1.7849,1.7989,1.7989,1.825,1.8257,1.7989,1.7989,1.7869,1.7642,1.7916,1.8063,1.5938,1.6,1.6132,1.6272,1.6403,1.6419,1.6255,1.6143,1.6051,1.5836,0.0,0.0,0.0,0.0,0.0,0.0,1.7541,1.7743,1.7598,1.7946,1.8211,1.8212,1.8115,1.8076,1.8252,1.8437,1.8398,1.8037,1.8506,1.8574,1.8037,1.8174,1.8193,1.8018,1.8008,1.8008,1.8008,1.8184,1.8613,1.9287,1.9463,1.9902,2.0566,2.0566,2.0566,2.0566,2.0566,2.0566,2.0566,2.0566,2.0566,2.0625,2.0838,2.0199,1.9162,1.8807,1.7957,1.685,1.6393,1.6218,1.6218,1.6028,1.5927,1.5832,1.5832,1.5832,1.5925,1.6393,1.6613,1.6814,1.7281,1.7495,1.7582,1.7582,1.7582,1.7582,1.7582,1.7582,1.7582,1.7582,1.7582,1.7582,1.7582,1.7582,1.7582,1.7582,1.7582,1.7582,1.7582,1.7582,1.7582,1.7582,1.7582,1.7582,1.7582,1.8029,1.8096,1.7609,1.7876,1.7989,1.7856,1.8143,1.8136,1.7782,1.8076,1.8083,1.7776,1.7776,1.7709,1.7595,1.8076,1.8397,1.5771,1.5938,1.6,1.6061,1.6202,1.6201,1.5901,1.5975,1.6004,1.574,1.6175,0.0,0.0,0.0,1.7533,1.7342,0.0,1.8114,1.7628,1.7967,1.8184,1.8085,1.8291,1.8359,1.8359,1.8574,1.8613,1.8379,1.8691,1.8682,1.8213,1.8291,1.8252,1.8018,1.8125,1.8125,1.8008,1.8125,1.8496,1.9111,1.9228,1.9678,2.0391,2.0508,2.0566,2.0566,2.0566,2.0566,2.0566,2.0566,2.0566,2.0596,2.0918,2.0723,2.0272,1.9367,1.8327,1.7186,1.6642,1.6331,1.6224,1.6218,1.6171,1.5952,1.5952,1.6005,1.6159,1.6587,1.6767,1.6941,1.7448,1.7582,1.7582,1.7582,1.7582,1.7582,1.7582,1.7582,1.7582,1.7582,1.7582,1.7582,1.7582,1.7582,1.7582,1.7582,1.7582,1.7582,1.7582,1.7582,1.7582,1.7582,1.7582,1.7582,1.7582,1.8143,1.8337,1.7976,1.809,1.817,1.817,1.8377,1.8243,1.7716,1.8009,1.7976,1.7582,1.7669,1.7662,1.7595,1.8123,1.8484,1.5624,1.5805,1.5867,1.6061,1.6132,1.6132,1.6254,1.6254,1.6209,1.5801,1.6169,1.6477,1.6098,1.6954,1.7589,1.7042,1.7947,0.0,0.0,1.8005,1.8147,1.837,1.8932,1.9248,1.9248,2.0,2.0146,1.9307,2.042,2.04,1.863,1.9014,1.8867,1.8037,1.8408,1.8418,1.8018,1.8418,1.8562,1.8662,1.9082,1.9512,1.9951,2.0371,2.0566,2.0566,2.0566,2.0566,2.0566,2.0566,2.0566,2.0566,2.0576,2.0859,2.0966,1.9338,1.7624,1.6134,1.6134,1.6158,1.6218,1.6393,1.6402,1.6259,1.6259,1.646,1.668,1.67,1.6914,1.7201,1.7502,1.7582,1.7582,1.7582,1.7582,1.7582,1.7582,1.7582,1.7582,1.7582,1.7582,1.7582,1.7582,1.7582,1.7582,1.7582,1.7582,1.7582,1.7582,1.7582,1.7582,1.7582,1.7582,1.7582,1.7582,1.8143,1.8604,1.8865,1.8624,1.8477,1.8477,1.8484,1.8343,1.8036,1.8323,1.8183,1.7582,1.7883,1.7876,1.7589,1.7909,1.8063,1.4957,1.5196,1.5471,1.5799,1.5938,1.5938,1.5938,1.5878,1.572,1.5589,1.5786,1.5958,1.5833,1.645,1.7006,1.7071,1.777,1.8128,0.0,1.7549,1.7797,1.8499,1.873,1.8857,1.8857,1.8867,1.8867,1.8857,1.9004,1.8965,1.8652,1.8779,1.8721,1.8437,1.8291,1.8154,1.8008,1.8154,1.8359,1.8643,1.9082,1.9512,1.9932,2.0361,2.0566,2.0566,2.0566,2.0566,2.0566,2.0566,2.0566,2.0566,2.0566,2.0341,1.9878,1.9542,1.9151,1.8534,1.7566,1.6878,1.6529,1.6724,1.6566,1.6273,1.6273,1.6473,1.6707,1.6707,1.6921,1.7215,1.7508,1.7582,1.7582,1.7582,1.7582,1.7582,1.7582,1.7582,1.7582,1.7582,1.7582,1.7582,1.7582,1.7582,1.7582,1.7582,1.7582,1.7582,1.7582,1.7582,1.7582,1.7582,1.7582,1.7582,1.7582,1.7769,1.8183,1.8878,1.8651,1.849,1.849,1.8677,1.845,1.7756,1.8036,1.7996,1.7582,1.7689,1.7689,1.7589,1.7689,1.7849,1.4492,1.4965,1.523,1.5496,1.5694,1.5805,1.5805,1.5687,1.5644,1.5644,1.5764,1.5815,1.5815,1.6456,1.6956,1.7009,1.766,1.8063,0.0,1.7417,1.7656,1.8335,1.8586,1.8783,1.8865,1.8705,1.8601,1.8511,1.8601,1.8603,1.8428,1.8701,1.873,1.8487,1.8291,1.8154,1.8144,1.8154,1.8291,1.8418,1.8848,1.9277,1.9707,2.0137,2.042,2.0566,2.0566,2.0566,2.0566,2.0566,2.0566,2.0566,2.0566,2.0245,1.9724,1.9675,1.9597,1.9286,1.7993,1.7251,1.687,1.6831,1.6663,1.641,1.6619,1.6787,1.6994,1.6894,1.7074,1.7348,1.7535,1.7582,1.7582,1.7582,1.7582,1.7582,1.7582,1.7582,1.7582,1.7582,1.7582,1.7582,1.7582,1.7582,1.7582,1.7582,1.7582,1.7582,1.7582,1.7582,1.7582,1.7582,1.7582,1.7629,1.7736,1.7749,1.8043,1.8724,1.8597,1.849,1.849,1.8564,1.8377,1.7916,1.7889,1.7836,1.7736,1.7635,1.7582,1.7582,1.7582,1.7689]},{"header":{"parameterUnit":"m.s-1","parameterCategory":1,"la1":30.6,"la2":29.2853,"lo1":-89.7004,"lo2":-87.6739,"dy":0.0162,"dx":0.0183,"nx":112,"ny":82,"refTime":"2023-07-29T06:00:00:Z","depth":0,"parameterNumber":3,"parameterNumberName":"V-component_of_WINDS"},"data":[0.0,0.0,0.0,0.0,0.0,0.0,0.0,0.0,0.0,0.0,0.0,0.0,0.0,0.0,0.0,0.0,0.0,0.0,0.0,0.0,0.0,0.0,0.0,0.0,0.0,0.0,0.0,0.0,0.0,0.0,0.0,0.0,0.0,0.0,0.0,0.0,0.0,0.0,0.0,0.0,0.0,0.0,0.0,0.0,0.0,0.0,0.0,0.0,0.0,0.0,0.0,0.0,0.0,0.0,0.0,0.0,0.0,0.0,0.0,0.0,0.0,0.0,0.0,0.0,0.0,0.0,0.0,0.0,0.0,0.0,0.0,0.0,0.0,0.0,0.0,0.0,0.0,0.0,0.0,0.0,0.0,0.0,0.0,0.0,0.0,0.0,0.0,0.0,0.0,0.0,-2.1501,-2.2481,-2.2958,-2.3133,-2.2883,-2.3661,-2.3648,-2.2476,0.0,0.0,0.0,0.0,0.0,0.0,0.0,0.0,0.0,0.0,0.0,0.0,0.0,0.0,0.0,0.0,0.0,0.0,0.0,0.0,0.0,0.0,0.0,0.0,0.0,0.0,0.0,0.0,0.0,0.0,0.0,0.0,0.0,0.0,0.0,0.0,0.0,0.0,0.0,0.0,0.0,0.0,0.0,0.0,0.0,0.0,0.0,0.0,0.0,0.0,0.0,0.0,0.0,0.0,0.0,0.0,0.0,0.0,0.0,0.0,0.0,0.0,0.0,0.0,0.0,0.0,0.0,0.0,0.0,0.0,0.0,0.0,0.0,0.0,0.0,0.0,0.0,0.0,0.0,0.0,0.0,0.0,0.0,0.0,0.0,0.0,0.0,0.0,0.0,0.0,0.0,0.0,0.0,0.0,0.0,0.0,0.0,0.0,0.0,0.0,0.0,0.0,0.0,0.0,-2.1698,-2.2807,-2.2597,-2.2588,-2.3106,-2.2782,-2.2758,-2.3267,0.0,0.0,0.0,0.0,0.0,0.0,0.0,0.0,0.0,0.0,0.0,0.0,0.0,0.0,0.0,0.0,0.0,0.0,0.0,0.0,0.0,0.0,0.0,0.0,0.0,0.0,0.0,0.0,0.0,0.0,0.0,0.0,0.0,0.0,0.0,0.0,0.0,0.0,0.0,0.0,0.0,0.0,0.0,0.0,0.0,0.0,0.0,0.0,0.0,0.0,0.0,0.0,0.0,0.0,0.0,0.0,0.0,0.0,0.0,0.0,0.0,0.0,0.0,0.0,0.0,0.0,0.0,0.0,0.0,0.0,0.0,0.0,0.0,0.0,0.0,0.0,0.0,0.0,0.0,0.0,0.0,0.0,0.0,0.0,0.0,0.0,0.0,0.0,0.0,0.0,0.0,0.0,0.0,0.0,0.0,0.0,0.0,0.0,0.0,0.0,0.0,0.0,0.0,-2.1984,-2.2643,-2.3248,-2.3169,-2.3225,-2.3606,-2.3282,-2.3253,-2.3638,-2.4626,0.0,0.0,0.0,0.0,0.0,0.0,0.0,0.0,0.0,0.0,0.0,0.0,0.0,0.0,0.0,0.0,0.0,0.0,0.0,0.0,0.0,0.0,0.0,0.0,0.0,0.0,0.0,0.0,0.0,0.0,0.0,0.0,0.0,0.0,0.0,0.0,0.0,0.0,0.0,0.0,0.0,0.0,0.0,0.0,0.0,0.0,0.0,0.0,0.0,0.0,0.0,0.0,0.0,0.0,0.0,0.0,0.0,0.0,0.0,0.0,0.0,0.0,0.0,0.0,0.0,0.0,0.0,0.0,0.0,0.0,0.0,0.0,0.0,0.0,0.0,0.0,0.0,0.0,0.0,0.0,0.0,0.0,0.0,0.0,0.0,0.0,0.0,0.0,0.0,0.0,0.0,0.0,0.0,0.0,0.0,0.0,0.0,0.0,0.0,0.0,0.0,0.0,-2.3098,-2.3512,-2.388,-2.3883,-2.3894,-2.401,-2.3917,-2.3834,-2.3797,-2.3455,0.0,0.0,0.0,0.0,0.0,0.0,0.0,0.0,0.0,0.0,0.0,0.0,0.0,0.0,0.0,0.0,0.0,0.0,0.0,0.0,0.0,0.0,0.0,0.0,0.0,0.0,0.0,0.0,0.0,0.0,0.0,0.0,0.0,0.0,0.0,0.0,0.0,0.0,0.0,0.0,0.0,0.0,0.0,0.0,0.0,0.0,0.0,0.0,0.0,0.0,0.0,0.0,0.0,0.0,0.0,0.0,0.0,0.0,0.0,0.0,0.0,0.0,0.0,0.0,0.0,0.0,0.0,0.0,0.0,0.0,0.0,0.0,0.0,0.0,0.0,0.0,0.0,0.0,0.0,0.0,0.0,0.0,0.0,0.0,0.0,0.0,0.0,0.0,0.0,0.0,0.0,0.0,0.0,0.0,0.0,0.0,0.0,0.0,0.0,0.0,0.0,0.0,-2.3601,-2.3916,-2.4806,-2.4351,-2.4016,-2.4074,-2.4012,-2.3928,-2.3804,-2.3775,0.0,0.0,0.0,0.0,0.0,0.0,0.0,0.0,0.0,0.0,0.0,0.0,0.0,0.0,0.0,0.0,0.0,0.0,0.0,0.0,0.0,0.0,0.0,0.0,0.0,0.0,0.0,0.0,0.0,0.0,0.0,0.0,0.0,0.0,0.0,0.0,0.0,0.0,0.0,0.0,0.0,0.0,0.0,0.0,0.0,0.0,0.0,0.0,0.0,0.0,0.0,0.0,0.0,0.0,0.0,0.0,0.0,0.0,0.0,0.0,0.0,0.0,0.0,0.0,0.0,0.0,0.0,0.0,0.0,0.0,0.0,0.0,0.0,0.0,0.0,0.0,0.0,0.0,0.0,0.0,0.0,0.0,0.0,0.0,0.0,0.0,0.0,0.0,0.0,0.0,0.0,0.0,0.0,0.0,0.0,0.0,0.0,0.0,0.0,0.0,0.0,0.0,-2.4778,-2.5212,-2.5178,-2.4988,-2.4957,-2.5122,-2.4533,-2.4028,-2.3822,0.0,0.0,0.0,0.0,0.0,0.0,0.0,0.0,0.0,0.0,0.0,0.0,0.0,0.0,0.0,0.0,0.0,0.0,0.0,0.0,0.0,0.0,0.0,0.0,0.0,0.0,0.0,0.0,0.0,0.0,0.0,0.0,0.0,0.0,0.0,0.0,0.0,0.0,0.0,0.0,0.0,0.0,0.0,0.0,0.0,0.0,0.0,0.0,0.0,0.0,0.0,0.0,0.0,0.0,0.0,0.0,0.0,0.0,0.0,0.0,0.0,0.0,0.0,0.0,0.0,0.0,0.0,0.0,0.0,0.0,0.0,0.0,0.0,0.0,0.0,0.0,0.0,0.0,0.0,0.0,0.0,0.0,0.0,0.0,0.0,0.0,0.0,0.0,0.0,0.0,0.0,0.0,0.0,0.0,0.0,0.0,0.0,0.0,0.0,0.0,0.0,0.0,-2.4817,-2.5713,-2.6144,-2.5722,-2.5509,-2.5364,-2.5309,-2.509,-2.4661,-2.3979,0.0,0.0,0.0,0.0,0.0,0.0,0.0,0.0,0.0,0.0,0.0,0.0,0.0,0.0,0.0,0.0,0.0,0.0,0.0,0.0,0.0,0.0,0.0,0.0,0.0,0.0,0.0,0.0,0.0,0.0,0.0,0.0,0.0,0.0,0.0,0.0,0.0,0.0,0.0,0.0,0.0,0.0,0.0,0.0,0.0,0.0,0.0,0.0,0.0,0.0,0.0,0.0,0.0,0.0,0.0,0.0,0.0,0.0,0.0,0.0,0.0,0.0,0.0,0.0,0.0,0.0,0.0,0.0,0.0,0.0,0.0,0.0,0.0,0.0,0.0,0.0,0.0,0.0,0.0,0.0,0.0,0.0,0.0,0.0,0.0,0.0,0.0,0.0,0.0,0.0,0.0,0.0,0.0,0.0,0.0,0.0,0.0,0.0,0.0,0.0,0.0,0.0,-2.5847,-2.6313,-2.6508,-2.649,-2.5858,-2.509,-2.4281,-2.5668,-2.5907,0.0,0.0,0.0,0.0,0.0,0.0,0.0,0.0,0.0,0.0,0.0,0.0,0.0,0.0,0.0,0.0,0.0,0.0,0.0,0.0,0.0,0.0,0.0,0.0,0.0,0.0,0.0,0.0,0.0,0.0,0.0,0.0,0.0,0.0,0.0,0.0,0.0,0.0,0.0,0.0,0.0,0.0,0.0,0.0,0.0,0.0,0.0,0.0,0.0,0.0,0.0,0.0,0.0,0.0,0.0,0.0,0.0,0.0,0.0,0.0,0.0,0.0,0.0,0.0,0.0,0.0,0.0,0.0,0.0,0.0,0.0,0.0,0.0,0.0,0.0,0.0,0.0,0.0,0.0,0.0,0.0,0.0,0.0,0.0,0.0,0.0,0.0,0.0,0.0,0.0,0.0,0.0,0.0,0.0,0.0,0.0,0.0,0.0,0.0,0.0,0.0,0.0,0.0,-2.6348,-2.7456,-2.7798,-2.6746,-2.6395,-2.6009,-2.5386,-2.5075,-2.5666,-2.7465,0.0,0.0,0.0,0.0,0.0,0.0,0.0,0.0,0.0,0.0,0.0,0.0,0.0,0.0,0.0,0.0,0.0,0.0,0.0,0.0,0.0,0.0,0.0,0.0,0.0,0.0,0.0,0.0,0.0,0.0,0.0,0.0,0.0,0.0,0.0,0.0,0.0,0.0,0.0,0.0,0.0,0.0,0.0,0.0,0.0,0.0,0.0,0.0,0.0,0.0,0.0,0.0,0.0,0.0,0.0,0.0,0.0,0.0,0.0,0.0,0.0,0.0,0.0,0.0,0.0,0.0,0.0,0.0,0.0,0.0,0.0,0.0,0.0,0.0,0.0,0.0,0.0,0.0,0.0,0.0,0.0,0.0,0.0,0.0,0.0,0.0,0.0,0.0,0.0,0.0,0.0,0.0,0.0,0.0,0.0,0.0,0.0,0.0,0.0,0.0,0.0,0.0,-2.7438,-2.814,-2.8198,-2.7308,-2.6567,-2.5884,-2.5222,-2.4559,-2.5039,-2.6964,0.0,0.0,0.0,0.0,0.0,0.0,0.0,0.0,0.0,0.0,0.0,0.0,0.0,0.0,0.0,0.0,0.0,0.0,0.0,0.0,0.0,0.0,0.0,0.0,0.0,0.0,0.0,0.0,0.0,0.0,0.0,0.0,0.0,0.0,0.0,0.0,0.0,0.0,0.0,0.0,0.0,0.0,0.0,0.0,0.0,0.0,0.0,0.0,0.0,0.0,0.0,0.0,0.0,0.0,0.0,0.0,0.0,0.0,0.0,0.0,0.0,0.0,0.0,0.0,0.0,0.0,0.0,0.0,0.0,0.0,0.0,0.0,0.0,0.0,0.0,0.0,0.0,0.0,0.0,0.0,0.0,0.0,0.0,0.0,0.0,0.0,0.0,0.0,0.0,0.0,0.0,0.0,0.0,0.0,0.0,0.0,0.0,0.0,0.0,0.0,0.0,0.0,-2.8801,-2.8485,-2.8088,-2.8017,-2.6574,-2.5244,-2.4302,-2.4192,-2.4209,-2.4186,0.0,0.0,0.0,0.0,0.0,0.0,0.0,0.0,0.0,0.0,0.0,0.0,0.0,0.0,0.0,0.0,0.0,0.0,0.0,0.0,0.0,0.0,0.0,0.0,0.0,0.0,0.0,0.0,0.0,0.0,0.0,0.0,0.0,0.0,0.0,0.0,0.0,0.0,0.0,0.0,0.0,0.0,0.0,0.0,0.0,0.0,0.0,0.0,0.0,0.0,0.0,0.0,0.0,0.0,0.0,0.0,0.0,0.0,0.0,0.0,-2.5359,-2.4847,0.0,0.0,0.0,0.0,0.0,0.0,0.0,0.0,0.0,0.0,0.0,0.0,0.0,0.0,0.0,0.0,0.0,0.0,0.0,0.0,0.0,0.0,0.0,0.0,0.0,0.0,0.0,0.0,0.0,0.0,0.0,0.0,0.0,0.0,0.0,0.0,0.0,0.0,0.0,0.0,-2.8953,-2.903,-2.8719,-2.8133,-2.7093,-2.5871,-2.4394,-2.4229,-2.4191,-2.4208,-2.4186,0.0,0.0,0.0,0.0,0.0,0.0,0.0,0.0,0.0,0.0,0.0,0.0,0.0,0.0,0.0,0.0,0.0,0.0,0.0,0.0,0.0,0.0,0.0,0.0,0.0,0.0,0.0,0.0,0.0,0.0,0.0,0.0,0.0,0.0,0.0,0.0,0.0,0.0,0.0,0.0,0.0,0.0,0.0,0.0,0.0,0.0,0.0,0.0,0.0,0.0,0.0,0.0,0.0,0.0,0.0,0.0,0.0,0.0,0.0,-2.7421,-2.6445,0.0,0.0,0.0,0.0,0.0,0.0,0.0,0.0,0.0,0.0,0.0,0.0,0.0,0.0,0.0,0.0,0.0,0.0,0.0,0.0,0.0,0.0,0.0,0.0,0.0,0.0,0.0,0.0,0.0,0.0,0.0,0.0,0.0,0.0,0.0,0.0,0.0,0.0,0.0,0.0,-3.0183,-3.0098,-2.9731,-2.9344,-2.7803,-2.6133,-2.4486,-2.4284,-2.4228,-2.4186,-2.4202,0.0,0.0,0.0,0.0,0.0,0.0,0.0,0.0,0.0,0.0,0.0,0.0,0.0,0.0,0.0,0.0,0.0,0.0,0.0,0.0,0.0,0.0,0.0,0.0,0.0,0.0,0.0,0.0,0.0,0.0,0.0,0.0,0.0,0.0,0.0,0.0,0.0,0.0,0.0,0.0,0.0,0.0,0.0,0.0,0.0,0.0,0.0,0.0,0.0,0.0,0.0,0.0,0.0,-3.0851,-3.1334,-3.1992,-3.2791,-3.3148,-3.2958,-2.9905,-2.8743,-2.8946,-2.8775,0.0,0.0,0.0,0.0,0.0,0.0,0.0,0.0,0.0,0.0,0.0,0.0,0.0,0.0,0.0,0.0,0.0,0.0,0.0,0.0,0.0,0.0,-2.76,-2.7103,-2.7403,-2.7641,-2.6961,0.0,0.0,0.0,0.0,0.0,0.0,0.0,0.0,0.0,0.0,0.0,-3.1487,-3.1162,-3.0742,-3.0612,-2.8493,-2.6468,-2.4985,-2.4543,-2.4303,-2.4225,-2.4722,-2.5051,0.0,0.0,0.0,0.0,0.0,0.0,0.0,0.0,0.0,0.0,0.0,0.0,0.0,0.0,0.0,0.0,0.0,0.0,0.0,0.0,0.0,0.0,0.0,0.0,0.0,0.0,0.0,0.0,0.0,0.0,0.0,0.0,-2.5591,-2.5809,0.0,0.0,0.0,0.0,0.0,0.0,0.0,0.0,0.0,0.0,0.0,0.0,0.0,-3.1709,-3.2015,-3.2797,-3.3308,-3.3529,-3.3648,-3.3728,-3.3858,-3.4024,-3.4067,-3.3987,-3.3518,0.0,-3.112,-3.0349,0.0,0.0,0.0,0.0,0.0,0.0,0.0,0.0,0.0,0.0,0.0,0.0,0.0,0.0,0.0,0.0,0.0,0.0,0.0,0.0,0.0,0.0,-3.0618,-3.0553,-3.0607,-3.0644,-3.0604,-2.8258,-2.6209,-2.6362,-2.6407,-2.6688,0.0,0.0,0.0,0.0,0.0,0.0,-3.1487,-3.1617,-3.1306,-3.0602,-2.8907,-2.7522,-2.673,-2.5371,-2.4459,-2.4221,-2.681,-2.8359,-2.8367,-2.8334,0.0,0.0,0.0,0.0,0.0,0.0,0.0,0.0,0.0,0.0,0.0,0.0,0.0,0.0,0.0,0.0,0.0,0.0,0.0,0.0,0.0,0.0,0.0,0.0,0.0,0.0,0.0,0.0,0.0,-2.6208,-2.6614,-2.6623,-2.6877,-2.7029,0.0,0.0,0.0,0.0,0.0,0.0,0.0,0.0,0.0,-3.1556,-3.3253,-3.424,-3.4377,-3.5225,-3.5659,-3.5684,-3.5708,-3.5727,-3.5746,-3.6218,-3.6398,-3.6329,-3.6329,-3.5634,-3.4328,-3.2514,-3.1542,-3.1186,0.0,0.0,0.0,0.0,-3.0606,-3.0786,-3.0462,-3.0257,-3.0041,-2.9631,0.0,0.0,0.0,0.0,0.0,0.0,0.0,-3.0572,-3.1121,-3.2126,-3.3022,-3.3087,-3.3069,-3.3069,-3.3152,-3.202,-3.0631,-2.9439,-2.9227,-2.9379,-2.9774,-2.9168,0.0,0.0,0.0,-3.1663,-3.2943,-3.3493,-3.3523,-3.2825,-3.0804,-2.9245,-2.8558,-2.7037,-2.5935,-2.5514,-2.7054,-2.8493,-2.9642,-2.9664,-2.9626,0.0,0.0,0.0,0.0,0.0,0.0,0.0,0.0,0.0,0.0,0.0,0.0,0.0,0.0,0.0,0.0,0.0,0.0,0.0,0.0,0.0,0.0,0.0,0.0,0.0,0.0,0.0,0.0,-2.7318,-2.7725,-2.7735,-2.8262,-2.8533,0.0,0.0,0.0,0.0,0.0,0.0,-3.2284,-3.3746,-3.432,-3.3715,-3.5341,-3.6242,-3.6242,-3.7094,-3.7549,-3.7549,-3.7549,-3.7549,-3.7567,-3.8222,-3.8503,-3.8402,-3.8459,-3.7991,-3.7001,-3.4574,-3.3462,-3.3268,-3.2595,-3.2381,-3.2501,-3.298,-3.3154,-3.3228,-3.3739,-3.3504,-3.2907,-3.2527,-3.1986,-3.1317,-3.0483,0.0,0.0,0.0,0.0,-3.3098,-3.3778,-3.4508,-3.5086,-3.5192,-3.5171,-3.5152,-3.5192,-3.5275,-3.4682,-3.2575,-3.2164,-3.2164,-3.2133,-3.1679,0.0,-3.2256,-3.3064,-3.386,-3.4587,-3.5174,-3.5291,-3.4614,-3.2454,-3.0789,-3.0147,-2.8579,-2.7714,-2.7872,-2.7535,-2.8192,-3.0127,-3.0186,-3.0188,-3.0208,0.0,0.0,0.0,0.0,0.0,0.0,0.0,0.0,0.0,0.0,0.0,0.0,0.0,0.0,0.0,0.0,0.0,0.0,0.0,0.0,0.0,0.0,0.0,0.0,0.0,0.0,0.0,0.0,0.0,-2.942,-3.0158,0.0,0.0,0.0,0.0,-3.2656,-3.292,-3.3384,-3.4204,-3.5133,-3.5605,-3.5567,-3.7137,-3.7953,-3.7953,-3.8831,-3.9261,-3.9287,-3.9338,-3.9338,-3.9287,-3.9566,-3.9637,-3.9543,-3.9735,-3.9326,-3.8329,-3.624,-3.5035,-3.4492,-3.4411,-3.4519,-3.4737,-3.4698,-3.4697,-3.4697,-3.4735,-3.4676,-3.4711,-3.5426,-3.559,-3.5337,-3.4405,-3.4183,0.0,0.0,-3.4883,-3.5544,-3.5663,-3.6283,-3.6863,-3.6863,-3.6863,-3.6863,-3.6863,-3.6927,-3.6434,-3.4591,-3.4259,-3.4172,-3.3917,0.0,-3.419,-3.4167,-3.5086,-3.5786,-3.5885,-3.5897,-3.5571,-3.4766,-3.3087,-3.1789,-3.1193,-2.958,-2.9486,-3.1508,-2.9146,-2.8432,-3.0132,-3.0208,-3.019,-3.0196,-3.0143,0.0,0.0,0.0,0.0,0.0,0.0,0.0,0.0,0.0,0.0,0.0,0.0,0.0,0.0,0.0,0.0,0.0,0.0,0.0,0.0,0.0,0.0,0.0,0.0,0.0,0.0,0.0,0.0,-3.1975,-3.291,0.0,-3.3018,-3.3167,-3.3623,-3.4507,-3.5192,-3.5717,-3.604,-3.7392,-3.7922,-3.7408,-3.8977,-3.9602,-3.9077,-3.9902,-4.0109,-3.9712,-3.9754,-3.9804,-3.9916,-3.9979,-3.9939,-3.9857,-3.9899,-3.9688,-3.9302,-3.8561,-3.7203,-3.5567,-3.5548,-3.5588,-3.5856,-3.7446,-3.7629,-3.7265,-3.8297,-3.7574,-3.6058,-3.5308,-3.5044,-3.4986,-3.4623,-3.5011,-3.5642,-3.6211,-3.6291,-3.6597,-3.827,-3.8498,-3.8422,-3.8994,-3.9128,-3.9147,-3.9185,-3.9242,-3.9033,-3.8167,-3.6996,-3.6107,-3.6077,-3.5646,-3.5713,-3.6895,-3.688,-3.7147,-3.8312,-3.7904,-3.726,-3.6573,-3.4945,-3.3657,-3.3051,-3.1943,-3.1611,-3.2382,-3.1145,-3.0672,-3.1259,-3.0591,-3.02,-3.0213,-3.0198,-3.0146,0.0,0.0,0.0,0.0,0.0,0.0,0.0,0.0,0.0,0.0,0.0,0.0,0.0,0.0,0.0,0.0,0.0,0.0,0.0,0.0,0.0,0.0,0.0,0.0,0.0,-3.2445,-3.3713,-3.3891,-3.4879,-3.5358,-3.486,-3.502,-3.5634,-3.6733,-3.7436,-3.7941,-3.8271,-3.9577,-3.9846,-3.877,-4.0164,-4.0508,-3.9703,-4.0302,-4.0397,-4.0,-4.0,-4.008,-4.0214,-4.0213,-4.0195,-4.0101,-4.012,-3.9929,-3.9624,-3.9624,-3.8499,-3.6785,-3.73,-3.7528,-3.7774,-3.9433,-3.9641,-3.9257,-4.0293,-3.9526,-3.7953,-3.6856,-3.6515,-3.6515,-3.6515,-3.6994,-3.7642,-3.8213,-3.8099,-3.8171,-3.9871,-3.9871,-3.9584,-4.0156,-4.0308,-4.0308,-4.0363,-4.0398,-4.0379,-4.0139,-3.9029,-3.8104,-3.8018,-3.7791,-3.8042,-3.9304,-3.9001,-3.9079,-4.0224,-3.9345,-3.8454,-3.8061,-3.6464,-3.515,-3.4448,-3.3891,-3.3433,-3.3165,-3.2367,-3.1889,-3.1904,-3.135,-3.1026,-3.104,-3.0994,-3.0715,-3.0203,0.0,0.0,0.0,0.0,0.0,0.0,0.0,0.0,0.0,0.0,0.0,0.0,0.0,0.0,0.0,0.0,0.0,0.0,0.0,0.0,0.0,0.0,0.0,-3.2329,-3.3587,-3.4733,-3.5155,-3.5965,-3.651,-3.6673,-3.6856,-3.7654,-3.9324,-3.9546,-3.9952,-4.0797,-4.1567,-4.1267,-3.9733,-4.0608,-4.0704,-3.993,-4.0119,-4.0196,-4.0214,-4.0214,-4.0214,-4.0233,-4.0425,-4.0438,-4.0317,-4.0511,-4.0121,-3.9335,-3.9335,-3.8834,-3.8223,-3.9616,-4.0283,-4.0469,-4.0508,-4.055,-4.0504,-4.0323,-4.0269,-4.0251,-4.0272,-4.0272,-4.0272,-4.0272,-4.0272,-4.0272,-4.0291,-4.0272,-4.0253,-4.0329,-4.031,-4.0272,-4.0291,-4.031,-4.031,-4.031,-4.029,-4.0307,-4.0307,-4.0196,-4.0021,-3.9698,-4.0511,-4.1231,-4.1288,-4.1415,0.0,-4.1533,-4.0081,-3.903,-3.9011,-3.7559,-3.6241,-3.5362,-3.5267,-3.4904,-3.412,-3.2756,-3.1962,-3.1955,-3.2428,-3.2707,-3.2732,-3.2547,-3.1768,-3.034,0.0,0.0,0.0,0.0,0.0,0.0,0.0,0.0,0.0,0.0,0.0,0.0,0.0,0.0,0.0,0.0,0.0,0.0,0.0,0.0,0.0,-3.4975,-3.6244,-3.4907,-3.5842,-3.693,-3.7643,-3.8058,-3.8312,-3.8405,-3.8603,-3.9156,-4.0255,-3.989,-4.0196,-4.1605,-4.1342,-4.1191,-4.1342,-4.1042,-4.0844,-4.0783,-4.0241,-4.0139,-4.0425,-4.0425,-4.0489,-4.0626,-4.0593,-4.0545,-4.053,-4.0515,-4.0385,-4.0162,-4.0162,-4.0027,-3.9796,-3.9615,-3.9592,-3.9777,-4.0989,-4.1402,-4.1182,-3.983,-3.9354,-3.9354,-3.9355,-3.9355,-3.9355,-3.9355,-3.9355,-3.9489,-4.0119,-3.9393,-3.8839,-4.0692,-4.0272,-3.9508,-4.0137,-4.0308,-4.0308,-4.0363,-4.0362,-4.0362,-4.0307,-4.027,-4.0406,-4.0959,-4.1245,-4.1837,-4.3118,-4.2278,-4.1724,-4.2355,-4.0979,-3.9699,-3.9069,-3.8591,-3.796,-3.7082,-3.6489,-3.605,-3.584,-3.4211,-3.3282,-3.3282,-3.2759,-3.2684,-3.3137,-3.3709,-3.379,0.0,0.0,0.0,0.0,0.0,0.0,0.0,0.0,0.0,0.0,0.0,0.0,0.0,0.0,0.0,0.0,0.0,0.0,0.0,0.0,0.0,0.0,-3.7428,-3.867,-3.8467,-3.8446,-3.8799,-3.9682,-3.9582,-3.9655,-4.0104,-3.9974,-4.0205,-4.1062,-4.0476,-4.0471,-4.1402,-4.1691,-4.1769,-4.1631,-4.1917,-4.1873,-4.136,-4.0959,-4.0735,-4.0631,-4.0631,-4.0673,-4.0746,-4.0668,-4.064,-4.0598,-4.0554,-4.0523,-4.0489,-4.0489,-4.0489,-4.045,0.0,0.0,0.0,0.0,-4.1178,-4.0955,-3.9908,-3.9546,-3.9546,-3.9546,-3.9546,-3.9546,-3.9546,-3.9546,-3.9661,-4.0157,-3.9565,-3.9126,-4.0616,-4.0272,-3.9661,-4.0175,-4.029,-4.0327,-4.0345,-4.0364,-4.0345,-4.0309,-4.029,0.0,-4.1399,-4.182,-4.2508,-4.3847,-4.2909,-4.2106,-4.224,-4.1113,-4.0119,-3.9603,-3.9221,-3.8801,-3.8285,-3.7483,0.0,0.0,0.0,-3.4162,-3.3766,-3.322,0.0,0.0,0.0,-3.4888,-3.5315,-3.532,0.0,0.0,-3.5476,-3.5192,0.0,0.0,0.0,0.0,0.0,0.0,0.0,0.0,0.0,0.0,0.0,0.0,0.0,0.0,0.0,0.0,-3.9901,-4.0811,-4.2166,-4.1123,-4.051,-4.1335,-4.072,-4.0626,-4.1516,-4.1016,-4.0961,-4.1791,-4.122,-4.0952,-4.114,-4.2551,0.0,0.0,0.0,-4.3216,-4.1838,-4.1914,-4.1558,-4.0778,-4.0875,-4.0842,-4.0687,-4.0783,-4.0742,-4.0607,-4.0588,-4.0539,-4.0489,-4.0489,-4.0489,-4.0508,-4.0508,-4.0508,-4.0492,-4.0413,-4.0362,-4.0307,-4.031,0.0,0.0,-4.031,-4.031,-4.031,-4.031,-4.031,-4.031,-4.031,-4.031,-4.031,-4.031,-4.031,-4.031,-4.031,-4.031,-4.031,-4.031,-4.031,-4.031,-4.031,-4.031,-4.0559,-4.1361,-4.2144,-4.2928,-4.3749,-4.3176,-4.2374,-4.159,-4.0807,-4.031,-4.031,-3.9623,0.0,-3.9145,-3.8325,-3.7484,-3.6682,-3.5624,-3.4774,-3.4112,-3.3904,-3.4169,-3.49,-3.4824,-3.5254,-3.6239,-3.6239,-3.6691,-3.7468,-3.6103,-3.5588,0.0,0.0,0.0,0.0,0.0,0.0,0.0,0.0,0.0,0.0,0.0,0.0,0.0,0.0,0.0,-4.0359,-4.2193,-4.3468,-4.3279,-4.3002,-4.265,-4.2313,-4.1669,-4.1352,-4.1649,-4.1547,-4.18,-4.2687,-4.2224,-4.2511,-4.3849,-4.3772,-4.3893,-4.4319,-4.4002,-4.3423,-4.26,-4.1982,-4.1331,-4.0654,-4.1354,0.0,-4.064,-4.1364,-4.1277,-4.0607,-4.0539,-4.0504,-4.0489,-4.0489,-4.0492,-4.0499,-4.0499,-4.0499,-4.0482,-4.036,-4.0307,-4.0307,-4.031,-4.031,-4.031,-4.031,-4.031,-4.031,-4.031,-4.031,0.0,-4.031,-4.031,-4.031,-4.031,-4.031,-4.031,-4.031,-4.031,-4.031,-4.031,-4.031,-4.031,-4.031,-4.031,-4.0559,-4.1361,-4.1628,-4.203,-4.2908,-4.2297,-4.1686,-4.1514,-4.0807,-4.031,-4.031,-4.0157,-4.0062,-4.0062,-3.9147,-3.8233,-3.7432,-3.5799,-3.5337,-3.6396,-3.5136,-3.4835,-3.5678,-3.5002,-3.5074,-3.5972,-3.5972,-3.6651,-3.7943,-3.745,-3.7985,0.0,0.0,0.0,0.0,0.0,0.0,0.0,0.0,0.0,0.0,0.0,-3.9084,-3.9607,0.0,-4.2032,-4.3032,-4.4051,-4.4904,-4.5466,-4.4633,-4.3738,-4.3111,-4.2405,-4.223,-4.293,-4.3006,-4.3035,-4.3091,-4.2886,-4.2874,-4.3165,-4.346,-4.3866,-4.4417,-4.4548,-4.4269,-4.3607,-4.3201,-4.2618,-4.1919,-4.2343,-4.2097,-4.1273,-4.1701,-4.1401,-4.0558,-4.0511,-4.0495,-4.0495,-4.046,-4.0447,-4.0449,-4.0396,-4.0396,-4.0396,-4.0325,-4.0308,-4.0309,-4.0291,-4.031,-4.031,-4.031,-4.031,-4.031,-4.031,-4.031,-4.031,-4.031,-4.031,-4.031,-4.031,-4.031,-4.031,-4.031,-4.031,-4.031,-4.031,-4.031,-4.031,-4.031,-4.031,-4.0444,-4.0826,-4.0903,-4.1189,-4.2011,-4.1781,-4.1342,-4.096,-4.0559,-4.0272,-4.0215,-4.0215,-4.0157,-4.0117,-3.8858,-3.7735,-3.6841,-3.5529,-3.5124,-3.5825,-3.5033,-3.4789,-3.524,-3.4808,-3.5033,-3.5897,-3.5897,-3.6742,-3.8294,-3.8243,-3.8956,0.0,0.0,0.0,0.0,0.0,0.0,0.0,-3.8915,-3.8903,-3.9211,-4.042,-4.1651,-4.2285,-4.3269,-4.4382,-4.5791,-4.5842,-4.6082,-4.7318,-4.6053,-4.4771,-4.4087,-4.325,-4.3206,-4.4429,-4.4543,-4.4393,-4.396,-4.4063,-4.378,-4.2893,-4.38,-4.4349,-4.4393,-4.5246,-4.5281,-4.4395,-4.4376,-4.3894,-4.293,-4.3104,-4.2645,-4.1632,-4.1786,-4.1386,-4.0492,-4.0482,-4.0485,-4.0485,-4.0432,-4.0379,-4.0379,-4.0325,-4.0307,-4.0289,-4.0289,-4.0309,-4.031,-4.031,-4.031,-4.031,-4.031,-4.031,-4.031,-4.031,-4.031,-4.031,-4.031,-4.031,-4.0348,-4.0501,-4.054,-4.054,-4.054,-4.0673,-4.075,-4.0578,-4.0673,-4.0769,-4.075,-4.0616,-4.054,-4.0673,-4.0558,-4.0635,-4.1189,-4.1227,-4.0979,-4.033,-4.0234,-4.0176,-4.0057,-4.0057,-4.0015,-3.9867,-3.8466,-3.7345,-3.6726,-3.5633,-3.5122,-3.5296,-3.4846,-3.4677,-3.4846,-3.4677,-3.5033,-3.5897,-3.5897,-3.681,-3.8505,-3.8748,-3.9372,-3.7051,-3.6665,-3.7707,-4.1279,-4.0961,-4.0763,0.0,-4.4445,-4.407,-4.5052,-4.5381,-4.5582,-4.5674,-4.6356,-4.7052,-4.746,-4.7864,-4.7863,-4.7079,-4.7111,-4.6805,-4.5611,-4.4535,-4.4326,-4.5327,-4.5442,-4.5744,-4.643,-4.6941,-4.7159,-4.7041,-4.7373,-4.7261,-4.657,-4.6665,-4.5951,-4.4333,-4.4314,-4.3525,-4.1986,-4.2736,-4.2255,-4.0677,-4.145,-4.1338,-4.0502,-4.0432,-4.0415,-4.0415,-4.0415,-4.0362,-4.0307,-4.0307,-4.029,-4.0291,-4.0291,-4.031,-4.031,-4.031,-4.031,-4.031,-4.031,-4.031,-4.031,-4.031,-4.031,-4.031,-4.031,-4.031,-4.0463,-4.117,-4.1361,-4.1361,-4.1361,-4.1953,-4.2316,-4.1533,-4.1972,-4.2487,-4.2364,-4.1717,-4.139,-4.2037,-4.1525,-4.087,-4.0482,-4.0329,-4.0232,-4.0117,-4.0015,-3.9933,-3.9911,-3.9914,-3.987,-3.9739,-3.8905,-3.8614,-3.9175,-3.7047,-3.6404,-3.7831,-3.5766,-3.4958,-3.5747,-3.4977,-3.5033,-3.5897,-3.5897,-3.681,-3.8524,-3.9195,-3.9724,-3.8633,-3.8999,-3.9922,-4.1665,-4.1886,-4.2349,-4.5089,-4.5405,-4.5407,-4.659,-4.7597,-4.8024,-4.7425,-4.7958,-4.831,-4.771,-4.7534,-4.7481,-4.7639,-4.7222,-4.689,-4.6814,-4.5889,-4.562,-4.6558,-4.7095,-4.7394,-4.7314,-4.7514,-4.7334,-4.6695,-4.6473,-4.6199,-4.5854,-4.5975,-4.5668,-4.4939,-4.4939,-4.4574,-4.3902,-4.4248,-4.3806,-4.2635,-4.2501,-4.1965,-4.1107,-4.0572,-4.0612,-4.0997,-4.0538,-4.0328,-4.0291,-4.0291,-4.031,-4.031,-4.031,-4.031,-4.031,-4.031,-4.031,-4.031,-4.031,-4.031,-4.031,-4.031,-4.0234,-4.0176,-4.0176,-4.0137,-4.0247,-4.1045,-4.1254,-4.1388,-4.1901,-4.23,-4.2471,-4.211,-4.2319,-4.2544,-4.25,-4.2174,-4.2041,-4.2351,-4.2105,-4.1768,-4.1556,-4.1478,-4.1244,-4.0753,-4.0634,-4.0378,-3.9841,-3.9754,-3.9684,-3.9656,-3.8884,-3.8517,-3.8807,-3.6986,-3.6197,-3.6873,-3.5916,-3.5522,-3.5897,-3.5991,-3.6216,-3.6592,-3.6592,-3.7197,-3.8371,-3.8788,-3.9271,-3.9666,-4.0374,-4.0979,-4.189,-4.2861,-4.4047,-4.5751,-4.6415,-4.699,-4.8085,-4.9227,-4.978,-4.8915,-4.9269,-4.9326,-4.8289,-4.7503,-4.7323,-4.8171,-4.7292,-4.6784,-4.7447,-4.6903,-4.6822,-4.7737,-4.8137,-4.8327,-4.8281,-4.8124,-4.7681,-4.6841,-4.623,-4.59,-4.59,-4.58,-4.5764,-4.5764,-4.5515,-4.5285,-4.5074,-4.4825,-4.4288,-4.3483,-4.2583,-4.1971,-4.157,-4.0901,-4.0959,-4.1437,-4.0864,-4.0501,-4.031,-4.031,-4.031,-4.0329,-4.0559,-4.0501,-4.033,-4.0502,-4.0444,-4.0234,-4.0215,-4.0195,-4.0195,-4.0195,-4.0117,-4.0036,-4.0036,-4.0125,-4.0385,-4.0972,-4.1294,-4.1579,-4.1954,-4.2238,-4.2389,-4.2408,-4.2579,-4.2806,-4.3005,-4.2872,-4.2753,-4.2956,-4.278,-4.2729,-4.2931,-4.2969,-4.2521,-4.1245,-4.0844,-4.0419,-3.9764,-3.9631,-3.9602,-3.9602,-3.9014,-3.8657,-3.8657,-3.7343,-3.6554,-3.6554,-3.6348,-3.6235,-3.6235,-3.6798,-3.7099,-3.7099,-3.7099,-3.7512,-3.83,-3.8395,-3.8897,-3.9247,-3.9396,-3.9614,-4.2658,-4.4472,-4.5952,-4.754,-4.8929,-5.0016,-5.0664,-5.0877,-5.0843,-5.0501,-5.0539,-5.0441,-4.9728,-4.8652,-4.8028,-4.8529,-4.7608,-4.6996,-4.7352,-4.7384,-4.7739,-4.8756,-4.7984,-4.8175,-4.9898,-4.9488,-4.9139,-4.91,-4.8353,-4.7912,-4.7912,-4.7106,-4.6666,-4.6666,-4.5822,-4.5017,-4.4231,-4.3368,-4.2543,-4.1738,-4.0803,-4.0824,-4.159,-4.1495,-4.1476,-4.1495,-4.1457,-4.0998,-4.031,-4.031,-4.031,-4.0387,-4.117,-4.0979,-4.0387,-4.1033,-4.0764,-4.0077,-3.9954,-3.9911,-3.9911,-3.9911,-3.9911,-3.9911,-3.9911,-4.046,-4.1086,-4.1162,-4.1768,-4.2166,-4.1408,-4.1829,-4.2416,-4.2412,-4.3057,-4.3848,-4.4492,-4.3995,-4.3667,-4.4317,-4.3782,-4.352,-4.4327,-4.4439,-4.3611,-4.1292,-4.0201,-3.9639,-3.962,-3.9602,-3.9602,-3.9602,-3.9583,-3.9564,-3.9564,-3.8713,-3.8244,-3.8244,-3.7474,-3.7042,-3.7042,-3.708,-3.7099,-3.7099,-3.7099,-3.7512,-3.83,-3.83,-3.8804,-3.878,-3.9742,-4.0984,-4.3614,-4.4725,-4.5686,-4.7709,-4.8611,-4.9274,-5.0174,-4.9577,-4.8645,-4.7855,-4.8053,-4.7946,-4.6818,-4.7461,-4.7977,-4.7579,-4.774,-4.773,-4.7313,-4.7837,-4.8351,-4.8662,-4.7979,-4.8057,-4.9334,-4.872,-4.8286,-4.8286,-4.7482,-4.7004,-4.7004,-4.62,-4.6028,-4.6564,-4.6296,-4.599,-4.5701,-4.4286,-4.291,-4.1571,-4.1246,-4.1246,-4.1495,-4.0941,-4.1017,-4.1457,-4.0922,-4.0826,-4.0957,-4.0957,-4.0916,-4.0929,-4.1784,-4.1556,-4.0872,-4.1201,-4.1064,-4.0675,-4.0081,-3.9889,-3.9889,-3.9889,-3.9826,-3.9781,-3.9781,-4.0316,-4.1017,-4.1582,-4.2354,-4.305,-4.3333,-4.3597,-4.3785,-4.3785,-4.4011,-4.4312,-4.4522,-4.4344,-4.4231,-4.4458,-4.4289,-4.4195,-4.4477,-4.4064,-4.32,-4.1844,-4.0917,-4.0178,-3.9677,-3.9602,-3.9602,-3.9602,-3.9602,-3.9602,-3.9602,-3.877,-3.83,-3.83,-3.8037,-3.7906,-3.7906,-3.845,-3.8775,-3.8775,-3.8775,-3.8882,-3.9145,-3.9145,-3.932,-3.9237,-4.0701,-4.2293,-4.4106,-4.5057,-4.5959,-4.7422,-4.812,-4.8695,-4.9578,-4.8804,-4.7696,-4.6767,-4.6946,-4.6685,-4.5077,-4.5587,-4.6394,-4.6877,-4.6363,-4.6327,-4.741,-4.756,-4.7832,-4.8464,-4.787,-4.7998,-4.9281,-4.8577,-4.81,-4.81,-4.6995,-4.65,-4.6805,-4.5738,-4.5681,-4.6805,-4.65,-4.6214,-4.591,-4.4519,-4.2976,-4.1357,-4.1357,-4.1357,-4.1358,-4.0842,-4.09,-4.1358,-4.0823,-4.0687,-4.0834,-4.1138,-4.1168,-4.1256,-4.2412,-4.2442,-4.1888,-4.1696,-4.1579,-4.1392,-4.0835,-4.0476,-4.0231,-4.0231,-4.0165,-4.0018,-3.976,-4.0647,-4.168,-4.1605,-4.2431,-4.3351,-4.3576,-4.3613,-4.3707,-4.4008,-4.4083,-4.4158,-4.4458,-4.4515,-4.4515,-4.4515,-4.4515,-4.4515,-4.4515,-4.4064,-4.3426,-4.2581,-4.1492,-4.0591,-4.0065,-3.9765,-3.9602,-3.9602,-3.9602,-3.9602,-3.9602,-3.907,-3.8751,-3.8751,-3.8751,-3.8751,-3.8751,-3.9295,-3.9602,-3.9602,-3.9602,-3.9602,-3.9602,-3.9602,-3.9602,-4.0479,-4.2061,-4.3406,-4.4147,-4.5528,-4.6724,-4.6759,-4.7491,-4.8329,-4.883,-4.8454,-4.7767,-4.7056,-4.7058,-4.6601,-4.4617,-4.3515,-4.3875,-4.6581,-4.4039,-4.3469,-4.7695,-4.6824,-4.6562,-4.8258,-4.7759,-4.8022,-4.9738,-4.9075,-4.8602,-4.8602,-4.7055,-4.6563,-4.7434,-4.5843,-4.5767,-4.7453,-4.6601,-4.5748,-4.4889,-4.3999,-4.2754,-4.1158,-4.112,-4.1143,-4.1203,-4.1165,-4.1146,-4.1146,-4.1146,-4.0688,-4.0097,-4.0855,-4.1177,-4.1423,-4.2995,-4.351,-4.329,-4.2523,-4.2215,-4.2172,-4.1987,-4.1398,-4.0741,-4.0741,-4.0778,-4.0647,-3.9877,-4.1417,-4.2919,-4.1342,-4.213,-4.3144,-4.2337,-4.2123,-4.2355,-4.3182,-4.3351,-4.3595,-4.4364,-4.4515,-4.4515,-4.4515,-4.4515,-4.4515,-4.4515,-4.4515,-4.4214,-4.3388,-4.1867,-4.0854,-4.0797,-4.0065,-3.9602,-3.9602,-3.9602,-3.9602,-3.9602,-3.9602,-3.9602,-3.9602,-3.9602,-3.9602,-3.9602,-3.9602,-3.9602,-3.9602,-3.9602,-3.9602,-3.9602,-3.9602,-3.9602,-4.1263,-4.2687,-4.4079,-4.4888,-4.5528,-4.6066,-4.6637,-4.6639,-4.6532,-4.6667,-4.5207,-4.368,-4.2987,-4.3989,-4.4766,-4.4306,-4.6082,-4.7546,-4.7716,-4.746,-4.7428,-4.7991,-4.8196,-4.849,-4.8952,-4.8802,-4.8921,-4.9408,-4.8919,-4.8602,-4.8602,-4.7643,-4.7453,-4.8287,-4.6676,-4.6601,-4.8287,-4.7491,-4.6335,-4.4895,-4.4023,-4.3052,-4.2048,-4.1385,-4.1124,-4.1105,-4.0498,-4.0233,-4.0233,-4.0233,-4.0772,-4.1623,-4.1831,-4.2253,-4.2799,-4.3213,-4.3337,-4.3292,-4.3085,-4.2596,-4.195,-4.1304,-4.0553,-3.9896,-3.9896,-4.0309,-4.076,-4.0553,-4.1849,-4.32,-4.2769,-4.3426,-4.4158,-4.3933,-4.3876,-4.3933,-4.4158,-4.4195,-4.4252,-4.4477,-4.4515,-4.4515,-4.4515,-4.4515,-4.4515,-4.4515,-4.4515,-4.4214,-4.3388,-4.2355,-4.1473,-4.0854,-4.0065,-3.9602,-3.9602,-3.9602,-3.9602,-3.9602,-3.9602,-3.9602,-3.9602,-3.9602,-3.9602,-3.9602,-3.9602,-3.9602,-3.9602,-3.9602,-3.9602,-3.9602,-3.9602,-3.9602,-4.245,-4.3562,-4.4626,-4.5197,-4.5353,-4.5476,-4.5632,-4.5493,-4.5196,-4.4866,-4.3541,-4.2288,-4.1894,-4.3028,-4.3922,-4.3593,-4.5334,-4.688,-4.7308,-4.702,-4.7225,-4.8413,-4.86,-4.8805,-4.916,-4.9008,-4.9008,-4.9244,-4.9044,-4.8928,-4.8975,-4.8211,-4.7966,-4.8419,-4.7173,-4.7135,-4.8419,-4.7626,-4.6927,-4.6342,-4.4757,-4.375,-4.3297,-4.2448,-4.1844,-4.1467,-4.1014,-4.0806,-4.0788,-4.0429,-4.0801,-4.1613,-4.1971,-4.237,-4.2825,-4.3557,-4.3595,-4.3351,-4.3707,-4.3031,-4.2029,-4.2337,-4.1886,-4.121,-4.121,-4.1529,-4.1811,-4.1436,-4.2524,-4.3745,-4.3388,-4.3895,-4.4515,-4.4515,-4.4515,-4.4515,-4.4515,-4.4515,-4.4515,-4.4515,-4.4515,-4.4515,-4.4515,-4.4515,-4.4515,-4.4515,-4.4515,-4.4346,-4.3876,-4.2769,-4.1698,-4.0891,-4.0065,-3.9602,-3.9602,-3.9602,-3.9602,-3.9602,-3.9602,-3.9602,-3.9602,-3.9602,-3.9602,-3.9602,-3.9602,-3.9602,-3.9602,-3.9602,-3.9602,-3.9602,-3.9602,-3.9602,-4.3763,-4.45,-4.4978,-4.514,-4.5108,-4.4868,-4.4372,-4.4164,-4.3937,-4.3346,-4.2632,-4.2195,-4.2205,-4.3068,-4.3568,-4.2996,-4.3493,-4.4591,-4.645,-4.5278,-4.5445,-4.8692,-4.8464,-4.8315,-4.909,-4.88,-4.873,-4.9146,-4.9244,-4.9327,-4.9459,-4.8633,-4.8164,-4.8164,-4.7601,-4.7582,-4.8164,-4.7489,-4.7376,-4.7838,-4.5781,-4.4749,-4.4646,-4.3839,-4.305,-4.231,-4.2085,-4.1991,-4.1935,-4.1135,-4.0929,-4.1191,-4.1773,-4.2123,-4.2498,-4.397,-4.4064,-4.3557,-4.4271,-4.3557,-4.2562,-4.3914,-4.3801,-4.3125,-4.3125,-4.32,-4.3144,-4.2393,-4.3388,-4.4515,-4.3801,-4.4214,-4.4787,-4.4674,-4.4637,-4.4618,-4.4505,-4.4487,-4.4487,-4.4487,-4.4487,-4.4487,-4.4487,-4.4487,-4.4487,-4.4487,-4.4487,-4.443,-4.4337,-4.3061,-4.1867,-4.106,-4.0234,-3.9733,-3.962,-3.9602,-3.9602,-3.9602,-3.9602,-3.9602,-3.9602,-3.9602,-3.9602,-3.9602,-3.9602,-3.9602,-3.9602,-3.9602,-3.9602,-3.9602,-3.9602,-3.9602,-4.4385,-4.4746,-4.4886,-4.4978,-4.457,-4.4092,-4.4007,-4.3117,-4.2255,-4.2117,-4.1595,-4.1168,-4.1324,-4.2255,-4.3251,-4.3839,-4.4957,-4.6092,-4.7134,-4.7084,-4.7299,-4.8346,-4.8329,-4.8421,-4.8925,-4.889,-4.8909,-4.9083,-4.9135,-4.9183,-4.9262,-4.8464,-4.8015,-4.8015,-4.852,-4.8557,-4.8034,-4.7903,-4.7224,-4.606,-4.6274,-4.609,-4.5453,-4.4665,-4.4214,-4.4008,-4.2592,-4.1991,-4.1935,-4.1135,-4.1623,-4.2806,-4.2243,-4.2835,-4.412,-4.4402,-4.4421,-4.4327,-4.4458,-4.4327,-4.4008,-4.3632,-4.2938,-4.2243,-4.2243,-4.2731,-4.3257,-4.3125,-4.4233,-4.5453,-4.5322,-4.5827,-4.6218,-4.5573,-4.5365,-4.5137,-4.4493,-4.4344,-4.4344,-4.4344,-4.4344,-4.4344,-4.4344,-4.4344,-4.4344,-4.4344,-4.4344,-4.4053,-4.3343,-4.3156,-4.275,-4.1886,-4.1079,-4.0309,-3.9677,-3.9602,-3.9602,-3.9602,-3.9602,-3.9602,-3.9602,-3.9602,-3.9602,-3.9602,-3.9602,-3.9602,-3.9602,-3.9602,-3.9602,-3.9602,-3.9602,-3.9602,-4.4395,-4.4536,-4.4507,-4.4354,-4.3727,-4.3115,-4.2774,-4.1868,-4.1114,-4.1114,-4.0871,-4.0806,-4.1163,-4.2103,-4.2891,-4.3202,-4.4545,-4.5671,-4.6026,-4.6726,-4.7423,-4.802,-4.8326,-4.8569,-4.8804,-4.8642,-4.8642,-4.8962,-4.8822,-4.8839,-4.9179,-4.8824,-4.8618,-4.8618,-4.8992,-4.8992,-4.8637,-4.8207,-4.7828,-4.7467,-4.6981,-4.6794,-4.6873,-4.602,-4.5627,-4.557,-4.4335,-4.3811,-4.3699,-4.2445,-4.2454,-4.3202,-4.2716,-4.3034,-4.3877,-4.4233,-4.4121,-4.3802,-4.4252,-4.4102,-4.3746,-4.3802,-4.3568,-4.3258,-4.3258,-4.3812,-4.4364,-4.3933,-4.4682,-4.5506,-4.5076,-4.5234,-4.5391,-4.5017,-4.4894,-4.4771,-4.4378,-4.4285,-4.4285,-4.4285,-4.4285,-4.4285,-4.4285,-4.4285,-4.4285,-4.4285,-4.4285,-4.4136,-4.3725,-4.3745,-4.3334,-4.2015,-4.118,-4.0544,-4.015,-3.9738,-3.952,-3.9546,-3.9546,-3.9571,-3.9596,-3.9602,-3.9602,-3.9602,-3.9602,-3.9602,-3.9602,-3.9602,-3.9602,-3.9602,-3.9602,-3.9602,-4.3961,-4.4135,-4.4142,-4.3694,-4.285,-4.2055,-4.1614,-4.0846,-4.0248,-4.0402,-4.0485,-4.0645,-4.1065,-4.1719,-4.2236,-4.2214,-4.3244,-4.4228,-4.4686,-4.5528,-4.6545,-4.7611,-4.8078,-4.8421,-4.8732,-4.8439,-4.8383,-4.882,-4.8532,-4.8605,-4.9113,-4.9146,-4.9146,-4.9146,-4.9146,-4.9146,-4.9146,-4.8497,-4.8422,-4.8884,-4.7746,-4.7484,-4.7983,-4.7292,-4.6881,-4.6676,-4.6041,-4.5555,-4.5144,-4.3837,-4.3343,-4.3418,-4.309,-4.3174,-4.3512,-4.409,-4.3874,-4.3388,-4.4061,-4.3855,-4.3388,-4.408,-4.4344,-4.4383,-4.4383,-4.4774,-4.5107,-4.4472,-4.4995,-4.5574,-4.4771,-4.4808,-4.4946,-4.461,-4.4386,-4.4255,-4.4255,-4.4255,-4.4255,-4.4255,-4.4255,-4.4255,-4.4255,-4.4255,-4.4255,-4.4255,-4.4255,-4.4255,-4.4255,-4.4255,-4.3722,-4.2416,-4.1568,-4.096,-4.0624,-4.0008,-3.9605,-3.9488,-3.9469,-3.9495,-3.9552,-3.9571,-3.9571,-3.9571,-3.9571,-3.9552,-3.9596,-3.9552,-3.9552,-3.9596,-3.9596,-3.9596,-4.3093,-4.3578,-4.3987,-4.3401,-4.2156,-4.1148,-4.1221,-4.0272,-3.9489,-4.0169,-4.0436,-4.0534,-4.0566,-4.0666,-4.0906,-4.1555,-4.1453,-4.1977,-4.4056,-4.4108,-4.4735,-4.7014,-4.7324,-4.7679,-4.8532,-4.8587,-4.8587,-4.8623,-4.8587,-4.8678,-4.889,-4.8943,-4.8943,-4.8943,-4.8943,-4.8943,-4.8943,-4.8869,-4.8531,-4.7928,-4.8561,-4.8557,-4.8002,-4.7927,-4.746,-4.6713,-4.662,-4.5761,-4.4397,-4.4248,-4.4192,-4.4128,-4.3314,-4.3482,-4.4221,-4.4296,-4.4248,-4.4173,-4.4266,-4.4248,-4.4173,-4.4266,-4.4314,-4.4314,-4.4314,-4.4371,-4.4378,-4.4304,-4.5406,-4.6396,-4.5592,-4.6427,-4.7108,-4.556,-4.4612,-4.4036,-4.4036,-4.4036,-4.4036,-4.4036,-4.4036,-4.4036,-4.4036,-4.4036,-4.4036,-4.4036,-4.4036,-4.4036,-4.4036,-4.4036,-4.398,-4.3813,-4.3189,-4.2193,-4.0718,-4.0531,-4.0176,-3.9455,-3.9418,-3.9418,-3.9418,-3.9418,-3.9418,-3.9418,-3.9418,-3.9444,-3.9495,-3.9444,-3.9444,-3.9495,-3.9495,-3.9495,-4.2402,-4.2924,-4.3146,-4.2579,-4.0953,-3.9697,-4.0169,-3.9194,-3.852,-3.98,-3.9749,-3.9544,-3.9691,-3.9739,-3.9671,-3.958,-4.0172,-4.0834,-4.1297,-4.2285,-4.3581,-4.5285,-4.6248,-4.7229,-4.8421,-4.855,-4.855,-4.8587,-4.8587,-4.8623,-4.8714,-4.8804,-4.8839,-4.8909,-4.8909,-4.8909,-4.8909,-4.8909,-4.8742,-4.846,-4.8795,-4.8829,-4.8546,-4.8546,-4.81,-4.7262,-4.6778,-4.594,-4.4842,-4.4339,-4.4165,-4.4207,-4.3774,-4.3849,-4.4244,-4.4147,-4.4116,-4.4116,-4.4116,-4.4116,-4.4116,-4.4116,-4.4116,-4.4147,-4.4214,-4.455,-4.4786,-4.4265,-4.4954,-4.5661,-4.4805,-4.5034,-4.5337,-4.4674,-4.4246,-4.4005,-4.4005,-4.4005,-4.4005,-4.4005,-4.4005,-4.4005,-4.4005,-4.4005,-4.4005,-4.4005,-4.4005,-4.4005,-4.4005,-4.4005,-4.4005,-4.4005,-4.3341,-4.2608,-4.1975,-4.1473,-4.0887,-4.0095,-4.0532,-4.0364,-3.9429,-3.9858,-3.9877,-3.9418,-3.9391,-3.9418,-3.9444,-3.9418,-3.9418,-3.9444,-3.9949,-4.0173,-4.1124,-4.1758,-4.2169,-4.166,-4.0194,-3.894,-3.9292,-3.8556,-3.8154,-3.9345,-3.9345,-3.9126,-3.9154,-3.9338,-3.9219,0.0,-3.9364,-4.001,-3.9703,-4.094,-4.2376,-4.3678,-4.4856,-4.6194,-4.7712,-4.8234,-4.8476,-4.8514,-4.8514,-4.8532,-4.8569,-4.8679,-4.8732,-4.882,-4.8839,-4.8874,-4.8874,-4.8909,-4.8909,-4.8909,-4.8667,-4.8667,-4.889,-4.8407,-4.8017,-4.7664,-4.6847,-4.603,-4.5249,-4.4636,-4.4278,-4.4135,-4.4055,-4.4055,-4.4135,-4.4036,-4.4005,-4.4005,-4.4005,-4.4005,-4.4005,-4.4005,-4.4005,-4.4005,-4.4104,-4.4513,-4.4785,-4.4172,-4.4432,-4.4822,-4.4488,-4.4191,-4.4005,-4.4005,-4.4005,-4.4005,-4.4005,-4.4005,-4.4005,-4.4005,-4.4005,-4.4005,-4.4005,-4.4005,-4.4005,-4.4005,-4.4005,-4.4005,-4.4005,-4.4005,-4.4005,-4.4005,-4.3485,-4.3058,-4.2816,-4.2277,-4.1638,-4.0877,-4.138,-4.1185,-4.0103,-4.0588,-4.0532,-3.9712,-3.9935,-3.9935,-3.9738,-3.9935,-4.0047,-4.0093,-4.0672,-4.1064,-3.8854,-3.9959,-4.0935,-4.0691,-4.0017,-3.9235,-3.8722,-3.8606,-3.864,-3.879,-3.9379,-3.9716,-3.9123,-3.958,-3.9834,-3.9089,-3.9103,-3.9472,-4.0186,-4.0436,-4.0985,-4.2283,-4.3079,-4.4254,-4.6116,-4.7521,-4.8306,-4.8306,-4.8306,-4.8363,-4.8494,-4.8513,-4.8513,-4.8587,-4.8732,-4.8787,-4.8787,-4.8874,-4.8909,-4.889,-4.8091,-4.8129,-4.8853,-4.7256,-4.694,-4.7664,-4.6847,-4.603,-4.5287,-4.5287,-4.4785,-4.4005,-4.4005,-4.4005,-4.4005,-4.4005,-4.4005,-4.4005,-4.4005,-4.4005,-4.4005,-4.4005,-4.4005,-4.4005,-4.4005,-4.4005,-4.4005,-4.4005,-4.4005,-4.4209,-4.5064,-4.4655,-4.4005,-4.4005,-4.4005,-4.4005,-4.4005,-4.4005,-4.4005,-4.4005,-4.4005,-4.4005,-4.4005,-4.4005,-4.4005,-4.4005,-4.4005,-4.4005,-4.4005,-4.4005,-4.4005,-4.4005,-4.3986,-4.367,-4.2872,-4.2797,-4.2445,-4.1627,-4.159,-4.159,-4.1571,-4.159,-4.12,-4.0401,-4.1163,-4.121,-4.0496,-4.121,-4.1601,-4.1688,-4.1688,-4.2145,-3.8004,-3.8772,-3.9333,-3.974,-3.904,-3.82,-3.8038,-3.8179,-3.8351,-3.8488,-3.8722,-3.8706,-3.8069,-3.8639,-3.8958,-3.8216,-3.8667,-3.9122,-3.9359,-3.9982,-4.084,-4.2094,-4.4562,-4.6521,-4.7492,-4.8043,-4.8306,-4.8306,-4.7995,-4.7995,-4.8363,-4.8053,-4.8096,-4.8587,-4.8642,-4.8697,-4.8787,-4.8822,-4.8839,-4.8909,-4.8649,-4.8649,-4.889,-4.837,-4.798,-4.7683,-4.7423,-4.655,-4.5287,-4.5287,-4.4785,-4.4005,-4.4005,-4.4005,-4.4005,-4.4005,-4.4005,-4.4005,-4.4005,-4.4005,-4.4005,-4.4005,-4.4005,-4.4005,-4.4005,-4.4005,-4.4005,-4.4005,-4.4432,-4.4952,-4.5231,-4.5101,-4.4878,-4.4878,-4.4432,-4.4005,-4.4005,-4.4469,-4.4878,-4.4878,-4.5324,-4.5714,-4.5714,-4.5249,-4.4878,-4.4878,-4.4878,-4.4674,-4.4079,-4.4525,-4.4655,-4.4061,-4.4005,-4.3893,-4.3633,-4.3615,-4.328,-4.2463,-4.2946,-4.2742,-4.1646,-4.2129,-4.2036,-4.1237,-4.146,-4.1508,-4.1248,-4.1508,-4.1898,-4.2456,-4.2456,-4.2914,-3.643,-3.7094,-3.7552,-3.8149,-3.7731,-3.7208,-3.7314,-3.7505,0.0,0.0,0.0,-3.7786,-3.72,-3.7952,-3.8522,-3.7814,-3.8604,-3.926,-3.9039,-3.9968,-4.1035,-4.2087,-4.4823,-4.6611,-4.6638,-4.7335,-4.7699,-4.7425,-4.7414,-4.7539,-4.7809,-4.7871,-4.7929,-4.8034,-4.8384,-4.8587,-4.8679,-4.8697,-4.8768,-4.8874,-4.8558,-4.8577,-4.889,-4.8277,-4.8054,-4.8129,-4.7516,-4.668,0.0,-4.5417,-4.4785,-4.4005,-4.4005,-4.4005,-4.4005,-4.4005,-4.4005,-4.4005,-4.4005,-4.4005,-4.4005,-4.4005,-4.4005,-4.4005,-4.4005,-4.4005,-4.4005,-4.4005,-4.4395,-4.4804,-4.4804,-4.4804,-4.4804,-4.4804,-4.4395,-4.4005,-4.4005,-4.4674,-4.5287,-4.5287,-4.5955,-4.6494,-4.6494,-4.6085,-4.5751,-4.5751,-4.5751,-4.5565,-4.5008,-4.5138,-4.5082,-4.4544,-4.4191,-4.4005,-4.4005,-4.4005,-4.3782,-4.328,-4.3726,-4.3559,-4.2556,-4.2983,-4.2872,-4.2073,-4.2352,-4.2352,-4.2054,-4.2352,-4.276,-4.3243,-4.3243,-4.3522,0.0,-3.5182,-3.5764,-3.6131,-3.6303,-3.6372,-3.6522,0.0,0.0,0.0,0.0,0.0,-3.6563,-3.7635,-3.8372,-3.7833,-3.8925,-3.9649,-3.9108,-4.0341,-4.1525,-4.2255,-4.3999,-4.4841,-4.4112,-4.5748,-4.6577,-4.592,-4.6562,-4.6946,-4.6984,-4.7699,-4.7754,-4.7058,-4.7849,-4.8365,-4.8421,-4.855,-4.8642,-4.8787,-4.8027,-4.8062,-4.8725,-4.724,-4.7333,-4.8614,-4.7144,-4.6442,-4.6364,-4.5602,-4.4785,-4.4005,-4.4005,-4.4005,-4.4005,-4.4005,-4.4005,-4.4005,-4.4005,-4.4005,-4.4005,-4.4005,-4.4005,-4.4005,-4.4005,-4.4005,-4.4005,-4.4005,-4.4042,-4.4098,-4.4098,-4.4098,-4.4098,-4.4098,-4.4042,-4.4023,-4.4079,-4.4766,-4.5398,-4.5454,-4.6122,-4.6661,-4.6661,-4.6624,-4.6587,-4.6587,-4.6587,-4.655,-4.6513,-4.5844,-4.5361,-4.5305,-4.4525,-4.4005,-4.4005,-4.4005,-4.4005,-4.4005,-4.4005,-4.4005,-4.4005,-4.4005,-4.3652,-4.289,-4.3615,-4.3633,-4.289,-4.3633,-4.4005,-4.4005,-4.4005,-4.4005,-3.3604,0.0,-3.4832,-3.5458,-3.6182,-3.6516,0.0,0.0,0.0,0.0,0.0,0.0,0.0,-3.7786,-3.8387,-3.8254,-3.8623,-3.9093,-3.9632,-4.105,-4.2241,-4.2842,-4.39,-4.4366,-4.3828,-4.4777,-4.5515,-4.5791,-4.5651,-4.5742,-4.614,-4.6022,-4.6002,-4.6195,-4.6416,-4.6856,-4.7574,-4.8218,-4.855,-4.8642,-4.8457,-4.816,-4.7735,-4.7365,-4.705,-4.681,-4.644,-4.5922,-4.533,-4.5193,-4.467,-4.3929,-4.3974,-4.4005,-4.4005,-4.4005,-4.4005,-4.4005,-4.4005,-4.4005,-4.4005,-4.4005,-4.4005,-4.4005,-4.4005,-4.4005,-4.4005,-4.4005,-4.4488,-4.4989,-4.4989,-4.4989,-4.4989,-4.4989,-4.4488,-4.4191,-4.4841,-4.5639,-4.6401,-4.7014,-4.7794,-4.8333,-4.8333,-4.7831,-4.7423,-4.7423,-4.7423,-4.72,-4.6587,-4.6327,-4.5974,-4.5361,-4.4525,-4.4005,-4.4005,-4.4005,-4.4005,-4.4005,-4.4005,-4.4005,-4.4005,-4.4005,-4.3912,-4.3726,-4.3893,-4.3912,-4.3726,-4.3912,-4.4005,-4.4005,-4.4005,-4.4005,-3.3309,-3.334,-3.3451,-3.3862,-3.4403,-3.4723,-3.4507,0.0,0.0,0.0,0.0,0.0,0.0,-3.7568,-3.8385,-3.8385,-3.9158,-3.99,-4.039,-4.0645,-4.1239,-4.2604,-4.3062,-4.3332,-4.3464,-4.3964,-4.4313,-4.4302,-4.4647,-4.4998,-4.5297,-4.5422,-4.5496,-4.5369,-4.5718,-4.614,-4.6636,-4.7077,-4.7555,-4.8015,-4.761,-4.7425,-4.7387,-4.7017,-4.6611,-4.6205,-4.6205,-4.5743,-4.5004,-4.5068,-4.4638,-4.3897,-4.3974,-4.4005,-4.4005,-4.4005,-4.4005,-4.4005,-4.4005,-4.4005,-4.4005,-4.4005,-4.4005,-4.4005,-4.4005,-4.4005,-4.4005,-4.4005,-4.4339,-4.4692,-4.4692,-4.4692,-4.4692,-4.4692,-4.4655,-4.4729,-4.5194,-4.6215,-4.7181,-4.7627,-4.8351,-4.8909,-4.8909,-4.8537,-4.8259,-4.8259,-4.8259,-4.8091,-4.7664,-4.7274,-4.6884,-4.6438,-4.5324,-4.4599,-4.4599,-4.4228,-4.4005,-4.4005,-4.4005,-4.4005,-4.4005,-4.4005,-4.4005,-4.4005,-4.4005,-4.4005,-4.4005,-4.4005,-4.4005,-4.4005,-4.4005,-4.4005,-3.3008,-3.2681,-3.2399,-3.2459,-3.2475,-3.2669,-3.3585,0.0,0.0,0.0,0.0,0.0,0.0,-3.7286,-3.8302,-3.8519,-3.9947,-4.1115,-4.1456,-4.046,-4.0273,-4.1931,-4.2108,-4.2233,-4.2607,-4.3023,-4.3054,-4.2498,-4.3668,-4.4382,-4.4419,-4.5114,-4.5223,-4.4544,-4.5186,-4.5535,-4.5535,-4.5773,-4.6287,-4.7095,-4.6414,-4.6394,-4.6963,-4.6281,-4.5912,-4.5782,-4.5782,-4.5413,-4.4786,-4.4868,-4.4494,-4.3897,-4.3961,-4.4005,-4.4005,-4.3974,-4.3974,-4.3974,-4.3974,-4.3974,-4.3974,-4.3974,-4.3974,-4.3974,-4.4005,-4.4005,-4.4005,-4.4005,-4.4098,-4.4191,-4.4191,-4.4191,-4.4191,-4.4191,-4.4748,-4.5324,-4.5454,-4.6643,-4.7738,-4.7868,-4.8426,-4.8909,-4.8909,-4.8909,-4.8909,-4.8909,-4.8909,-4.8909,-4.8909,-4.8203,-4.7701,-4.7701,-4.6364,-4.5417,-4.5305,-4.4618,-4.4135,-4.4005,-4.4005,-4.4005,-4.4005,-4.4005,-4.4005,-4.4005,-4.4005,-4.4005,-4.4005,-4.4005,-4.4005,-4.4005,-4.4005,-4.4005,-3.1697,-3.2088,-3.2697,-3.3045,-3.3151,-3.3323,-3.3917,0.0,0.0,0.0,0.0,0.0,0.0,-3.7203,-3.7733,-3.9118,-4.0177,-4.1325,-4.2677,-4.2824,-4.2405,-4.1491,-4.1918,-4.1716,-4.0388,-4.1198,-4.197,-4.2378,-4.2989,-4.3397,-4.3577,-4.3722,-4.3758,-4.3681,-4.3791,-4.3864,-4.3864,-4.5223,-4.5957,-4.6122,-4.5993,-4.5644,-4.5111,-4.4983,-4.4542,-4.3899,-4.3899,-4.386,-4.375,-4.3937,-4.3915,-4.3837,-4.3883,-4.3961,-4.3974,-4.3883,-4.3883,-4.3897,-4.3851,-4.3837,-4.3818,-4.3915,-4.3929,-4.3929,-4.3974,-4.4005,-4.4005,-4.4005,-4.4525,-4.5101,-4.5101,-4.5101,-4.5101,-4.5101,-4.5194,-4.5491,-4.616,-4.7033,-4.7906,-4.8574,-4.8816,-4.8909,-4.8909,-4.8909,-4.8909,-4.8909,-4.8909,-4.8909,-4.8909,-4.8203,-4.7701,-4.7701,-4.6865,-4.603,-4.5361,-4.5175,-4.4785,-4.4042,-4.4005,-4.4005,-4.4005,-4.4005,-4.4005,-4.4005,-4.4005,-4.4005,-4.4005,-4.4005,-4.4005,-4.4005,-4.4005,-4.4005,-3.1302,-3.1544,-3.1976,-3.231,-3.249,-3.2577,-3.2433,-3.3015,0.0,0.0,0.0,0.0,-3.717,-3.7936,-3.9142,-4.1104,-4.1169,-4.1454,-4.2926,-4.1919,-4.1068,-4.1187,-4.0798,-4.0527,-4.0521,-4.11,-4.163,-4.1888,-4.2652,-4.3141,-4.3215,-4.3269,-4.334,-4.3446,-4.3446,-4.3463,-4.3497,-4.4232,-4.4819,-4.5259,-4.48,-4.4635,-4.469,-4.425,-4.3846,-4.3497,-4.3497,-4.3497,-4.3532,-4.3634,-4.3667,-4.3701,-4.3818,-4.3851,-4.3865,-4.3837,-4.3837,-4.3851,-4.3804,-4.3804,-4.3804,-4.3837,-4.3869,-4.3851,-4.3883,-4.3897,-4.3897,-4.3897,-4.4239,-4.4711,-4.5175,-4.5287,-4.5398,-4.5844,-4.6271,-4.6698,-4.707,-4.776,-4.8394,-4.8765,-4.8804,-4.875,-4.875,-4.8804,-4.8857,-4.8857,-4.8874,-4.8909,-4.8909,-4.8574,-4.8351,-4.8351,-4.7627,-4.6995,-4.6624,-4.5788,-4.4934,-4.4061,-4.4005,-4.4005,-4.4005,-4.4005,-4.4005,-4.4005,-4.4005,-4.4005,-4.4005,-4.4005,-4.4005,-4.4005,-4.4005,-4.4005,-3.0528,-3.0766,-3.1085,-3.1118,0.0,-3.2045,-3.1589,-3.218,0.0,0.0,-3.5382,-3.6224,-3.6937,-3.8606,-4.046,-4.2238,-4.2038,-4.2057,-4.3348,-4.1454,-4.0305,-4.1274,-4.029,-3.9935,-4.0985,-4.1348,-4.1525,-4.1674,-4.2516,-4.3086,-4.3123,-4.3178,-4.3251,-4.3411,-4.3411,-4.3355,-4.3222,-4.3406,-4.3809,-4.4415,-4.3791,-4.3809,-4.4397,-4.3773,-4.3497,-4.3497,-4.3497,-4.3497,-4.3532,-4.3582,-4.3582,-4.3615,-4.3719,-4.3753,-4.3719,-4.3771,-4.3753,-4.3719,-4.3719,-4.3719,-4.3719,-4.3771,-4.3753,-4.3753,-4.3804,-4.3804,-4.3804,-4.3804,-4.4013,-4.4424,-4.5278,-4.5649,-4.5945,-4.6557,-4.717,-4.7633,-4.7633,-4.8229,-4.8732,-4.8732,-4.8678,-4.8587,-4.8642,-4.8732,-4.8787,-4.8822,-4.8874,-4.8909,-4.8909,-4.8909,-4.8909,-4.8909,-4.8351,-4.7906,-4.772,-4.6234,-4.5008,-4.4358,-4.4116,-4.4005,-4.4005,-4.4005,-4.4005,-4.4005,-4.4005,-4.4005,-4.4005,-4.4005,-4.4005,-4.4005,-4.4005,-4.4005,-2.8444,-2.9432,-3.0509,-2.9836,-3.1166,0.0,-3.3126,-3.3809,0.0,-3.4771,-3.5575,-3.6204,-3.6285,-3.8548,-4.0531,-4.0827,-4.2285,-4.3738,-4.4651,-4.3586,-4.2496,-4.1943,-4.1375,-4.1002,-4.0844,-4.122,-4.1656,-4.2115,-4.2634,-4.3013,-4.316,-4.3214,-4.3268,-4.3497,-4.3497,-4.313,-4.2396,-4.313,-4.3516,-4.3589,-4.3516,-4.3516,-4.3571,-4.3516,-4.3497,-4.3497,-4.3497,-4.3497,-4.3532,-4.3582,-4.3582,-4.3582,-4.3615,-4.36,-4.3532,-4.3582,-4.36,-4.3532,-4.3532,-4.3532,-4.3532,-4.3582,-4.3615,-4.3634,-4.3753,-4.3804,-4.3804,-4.3804,-4.434,-4.5097,-4.5944,-4.6701,-4.7274,-4.733,-4.7385,-4.7422,-4.7422,-4.8069,-4.8623,-4.8623,-4.8587,-4.8642,-4.8768,-4.8787,-4.8822,-4.8874,-4.8909,-4.8909,-4.8909,-4.8909,-4.8909,-4.8909,-4.8853,-4.8519,-4.7757,-4.6234,-4.5268,-4.5212,-4.4451,-4.4005,-4.4005,-4.4005,-4.4005,-4.4005,-4.4005,-4.4005,-4.4005,-4.4005,-4.4005,-4.4005,-4.4005,-4.4005,-2.8158,-2.9016,-2.9852,-2.9579,-3.1013,0.0,0.0,-3.283,-3.3657,-3.4121,-3.5355,-3.6616,-3.7634,-3.9141,-4.0466,-4.1139,-4.2762,-4.4094,-4.4579,-4.3553,-4.2554,-4.1988,-4.1332,-4.0888,-4.0836,-4.123,-4.17,-4.2157,-4.2634,-4.2975,-4.3123,-4.3123,-4.3233,-4.3446,-4.297,-4.2567,-4.2304,-4.2598,-4.3002,-4.3497,-4.3497,-4.3497,-4.3497,-4.3497,-4.3497,-4.3497,-4.3497,-4.3497,-4.3479,-4.3532,-4.3532,-4.3532,-4.3532,-4.3513,-4.3479,-4.3513,-4.3513,-4.3497,-4.3497,-4.3497,-4.3479,-4.3513,-4.3532,-4.3566,-4.36,-4.3968,-4.4373,-4.4373,-4.5311,-4.6268,-4.6207,-4.6796,-4.7516,-4.8015,-4.8144,-4.8144,-4.8144,-4.8366,-4.855,-4.855,-4.8458,-4.8458,-4.8569,-4.8606,-4.8642,-4.8714,-4.8714,-4.8714,-4.8714,-4.8714,-4.8714,-4.8714,-4.8804,-4.8524,-4.7726,-4.7111,-4.6587,-4.6085,-4.4766,-4.4005,-4.4005,-4.4005,-4.4005,-4.4005,-4.4005,-4.4005,-4.4005,-4.4005,-4.4005,-4.4005,-4.4562,-4.4804,-2.7942,-2.8519,-2.9227,0.0,0.0,0.0,-3.1729,-3.2486,-3.3439,-3.408,-3.5185,-3.6544,-3.8184,-3.9421,-4.0479,-4.1437,-4.2695,-4.3699,-4.4066,-4.2749,-4.1574,-4.1246,-4.0831,-4.0621,-4.0689,-4.1226,-4.1803,-4.2436,-4.2768,-4.3031,-4.3178,-4.2923,-4.285,-4.3045,-4.2276,-4.176,-4.1534,-4.1791,-4.2194,-4.2745,-4.3002,-4.3387,-4.3883,-4.3883,-4.3736,-4.3497,-4.3497,-4.3497,-4.3497,-4.3497,-4.3497,-4.3497,-4.3497,-4.3497,-4.3497,-4.3497,-4.3497,-4.3497,-4.3497,-4.3497,-4.3497,-4.3497,-4.3497,-4.3497,-4.3497,-4.4066,-4.4709,-4.4709,-4.5865,-4.6985,-4.658,-4.7058,-4.7795,-4.8384,-4.8514,-4.8514,-4.8514,-4.8476,-4.8457,-4.8457,-4.8363,-4.8344,-4.8475,-4.8513,-4.8532,-4.8587,-4.8587,-4.8587,-4.8587,-4.8587,-4.8587,-4.8587,-4.8678,-4.851,-4.7955,-4.7694,-4.7392,-4.6836,-4.5208,-4.4332,-4.4413,-4.4413,-4.4283,-4.4005,-4.4005,-4.4135,-4.4413,-4.4413,-4.4544,-4.4804,-4.5398,-4.5677,-2.755,-2.787,-2.8618,0.0,0.0,0.0,-3.2321,-3.3247,-3.4189,-3.4955,-3.5198,-3.5853,-3.7587,-3.9226,-4.0578,-4.1438,-4.199,-4.2565,-4.3268,-4.1253,-3.9681,-3.9681,-3.9941,-4.0175,-4.0385,-4.119,-4.2092,-4.3012,-4.3104,-4.316,-4.3376,-4.2501,-4.2097,-4.2286,-4.1515,-4.0726,-3.99,-4.0689,-4.1111,-4.113,-4.1937,-4.3149,-4.4709,-4.4709,-4.425,-4.3497,-4.3497,-4.3497,-4.3497,-4.3497,-4.3497,-4.3497,-4.3497,-4.3497,-4.3497,-4.3497,-4.3497,-4.3497,-4.3497,-4.3497,-4.3497,-4.3497,-4.3497,-4.3497,-4.3497,-4.4066,-4.4709,-4.4727,-4.5883,-4.7113,-4.7131,-4.7719,-4.8306,-4.8306,-4.8306,-4.8306,-4.8306,-4.8306,-4.8306,-4.8306,-4.8306,-4.8344,-4.8475,-4.8513,-4.8532,-4.8605,-4.8587,-4.8587,-4.8587,-4.8587,-4.8587,-4.8587,-4.8587,-4.8587,-4.8587,-4.7867,-4.7405,-4.7405,-4.5928,-4.509,-4.5287,-4.5287,-4.4878,-4.4023,-4.4005,-4.4432,-4.5305,-4.5305,-4.5714,-4.6494,-4.6513,-4.6513,-2.7359,-2.7918,0.0,-2.9428,0.0,0.0,0.0,-3.3292,0.0,-3.584,-3.6202,-3.6703,-3.8348,-3.974,-4.0585,-4.029,-4.1165,-4.1757,-4.1354,-4.0285,-3.9458,-3.9084,-3.9373,-3.98,-4.0559,-4.1096,-4.1654,-4.2286,-4.234,-4.212,-4.1674,-4.1366,-4.129,-4.146,-4.0689,-4.0139,-3.99,-4.0139,-4.0818,-4.1956,-4.2763,-4.3387,-4.3864,-4.3864,-4.3718,-4.3497,-4.3497,-4.3497,-4.3497,-4.3497,-4.3497,-4.3497,-4.3497,-4.3497,-4.3497,-4.3497,-4.3497,-4.3497,-4.3497,-4.3497,-4.3497,-4.3497,-4.3497,-4.3497,-4.3497,-4.4066,-4.4837,-4.5388,-4.6305,-4.7241,-4.781,-4.8122,-4.8306,-4.8306,-4.8306,-4.8306,-4.8306,-4.8306,-4.8306,-4.8306,-4.8306,-4.8344,-4.8475,-4.8419,-4.8401,-4.8532,-4.8458,-4.8382,-4.8382,-4.8382,-4.8382,-4.8382,-4.8476,-4.8532,-4.8532,-4.8347,-4.8236,-4.8236,-4.7793,-4.6829,-4.5226,-4.4615,-4.4498,-4.4915,-4.4915,-4.5324,-4.6141,-4.6141,-4.6271,-4.6513,-4.707,-4.7348,-2.8084,-2.8618,0.0,-2.9816,-3.0713,-3.1758,-3.2625,-3.3968,-3.5438,-3.6835,-3.7118,-3.7489,-3.8785,-3.9747,-4.0112,-3.9353,-3.9973,-4.0377,-3.9817,-3.9058,-3.8459,-3.8173,-3.8686,-3.9234,-3.9535,-4.0468,-4.113,-4.1106,-4.1377,-4.1307,-4.0773,-4.0393,-4.0349,-4.0616,-3.9845,-3.9423,-3.9423,-3.9423,-4.0065,-4.135,-4.1827,-4.2396,-4.3039,-4.3681,-4.3791,-4.3497,-4.3497,-4.3497,-4.3497,-4.3497,-4.3497,-4.3497,-4.3497,-4.3497,-4.3534,-4.3864,-4.3754,-4.3534,-4.3864,-4.3754,-4.3497,-4.3497,-4.3497,-4.3552,-4.3883,-4.4323,-4.4947,-4.6067,-4.6746,-4.7297,-4.8104,-4.8306,-4.8306,-4.8306,-4.8306,-4.8306,-4.8306,-4.8306,-4.8306,-4.8306,-4.8306,-4.8324,-4.8419,-4.8363,-4.8324,-4.8401,-4.8363,-4.8306,-4.8306,-4.8306,-4.8306,-4.8306,-4.8363,-4.8419,-4.8419,-4.8458,-4.8476,-4.8476,-4.8182,-4.7389,-4.602,-4.5605,-4.5486,-4.5769,-4.5769,-4.616,-4.6977,-4.6977,-4.7144,-4.746,-4.7943,-4.8184,-2.9271,-2.9615,-3.0231,-3.0426,-3.1004,-3.1841,-3.2971,-3.4992,-3.6784,-3.7435,-3.777,-3.8091,-3.8684,-3.9251,-3.937,-3.8663,-3.8641,-3.8695,-3.8651,-3.7703,-3.7018,-3.7018,-3.7992,-3.8432,-3.7882,-3.9552,-4.0402,-3.9765,-4.0352,-4.0602,-4.0311,-3.9551,-3.9361,-3.979,-3.9074,-3.8707,-3.8707,-3.8707,-3.9093,-3.99,-3.99,-4.0689,-4.2249,-4.3791,-4.4121,-4.3497,-4.3497,-4.3497,-4.3497,-4.3497,-4.3497,-4.3497,-4.3497,-4.3497,-4.3589,-4.4323,-4.4121,-4.3608,-4.4415,-4.4213,-4.3608,-4.3681,-4.3718,-4.3846,-4.4599,-4.4819,-4.5149,-4.6691,-4.7113,-4.7297,-4.8104,-4.8306,-4.8306,-4.8306,-4.8306,-4.8306,-4.8306,-4.8306,-4.8306,-4.8306,-4.8306,-4.8306,-4.8306,-4.8306,-4.8306,-4.8306,-4.8306,-4.8306,-4.8306,-4.8306,-4.8306,-4.8306,-4.8306,-4.8306,-4.8306,-4.8306,-4.8306,-4.8306,-4.7627,-4.7279,-4.739,-4.7459,-4.7191,-4.6572,-4.6572,-4.6962,-4.7813,-4.7813,-4.8184,-4.8909,-4.8909,-4.8909,-2.9053,-2.9505,0.0,-3.0309,-3.1632,-3.3074,-3.3883,-3.5464,-3.6439,-3.538,-3.6641,-3.777,-3.733,-3.8214,-3.8767,-3.8142,-3.8121,-3.7982,-3.737,-3.6781,-3.638,-3.638,-3.7126,-3.7711,-3.7988,-3.9006,-3.9445,-3.897,-3.9391,-3.9336,-3.8645,-3.8733,-3.8852,-3.8946,-3.8799,-3.8707,-3.8707,-3.8707,-3.9093,-3.99,-3.99,-4.0414,-4.1405,-4.2378,-4.3075,-4.3497,-4.3497,-4.3497,-4.3497,-4.3497,-4.3497,-4.3497,-4.3497,-4.3497,-4.3516,-4.3681,-4.3644,-4.3608,-4.4415,-4.4599,-4.4562,-4.5186,-4.5369,-4.5424,-4.559,-4.5645,-4.5847,-4.6838,-4.7113,-4.7297,-4.8104,-4.8306,-4.8306,-4.8306,-4.8306,-4.8306,-4.8306,-4.8306,-4.8306,-4.8306,-4.8306,-4.8306,-4.8306,-4.8306,-4.8306,-4.8306,-4.8306,-4.8306,-4.8306,-4.8306,-4.8306,-4.8306,-4.8306,-4.8306,-4.8306,-4.8306,-4.8306,-4.8306,-4.8141,-4.8105,-4.8255,-4.7058,-4.6668,-4.7198,-4.7217,-4.7659,-4.8563,-4.8563,-4.8672,-4.8909,-4.8857,-4.8839,-2.9772,0.0,0.0,-3.0576,-3.1976,-3.3388,-3.3794,-3.5087,-3.591,-3.4715,-3.6287,-3.7669,-3.6983,-3.7701,-3.8111,-3.7155,-3.7359,-3.7422,-3.6669,-3.6406,-3.6251,-3.6251,-3.6741,-3.714,-3.7219,-3.8146,-3.8409,-3.7594,-3.8125,-3.8269,-3.7845,-3.8016,-3.8285,-3.8676,-3.8707,-3.8707,-3.8707,-3.8707,-3.8909,-3.9331,-3.9331,-3.9955,-4.1148,-4.1937,-4.2745,-4.3497,-4.3497,-4.3497,-4.3497,-4.3497,-4.3497,-4.3497,-4.3497,-4.3497,-4.3534,-4.392,-4.4066,-4.4195,-4.5002,-4.5021,-4.4837,-4.5645,-4.5645,-4.548,-4.625,-4.6214,-4.6159,-4.7352,-4.7407,-4.7297,-4.8104,-4.8306,-4.8306,-4.8306,-4.8306,-4.8306,-4.8306,-4.8306,-4.8306,-4.8306,-4.8306,-4.8306,-4.8306,-4.8306,-4.8306,-4.8306,-4.8306,-4.8306,-4.8306,-4.8306,-4.8306,-4.8306,-4.8306,-4.8306,-4.8306,-4.8306,-4.8306,-4.8306,-4.8306,-4.8306,-4.8401,-4.7592,-4.7408,-4.7959,-4.7959,-4.8217,-4.8697,-4.8697,-4.8714,-4.875,-4.8714,-4.8714,-3.0692,0.0,-3.0773,-3.0975,-3.2059,-3.3161,-3.3347,-3.4455,-3.5284,-3.4793,-3.6197,-3.7263,-3.6622,-3.7126,-3.7274,-3.6137,-3.661,-3.6903,-3.6311,-3.6276,-3.6301,-3.6301,-3.6638,-3.6741,-3.6343,-3.7271,-3.7475,-3.6395,-3.7074,-3.7498,-3.7504,-3.765,-3.8016,-3.8676,-3.8707,-3.8707,-3.8707,-3.8707,-3.8707,-3.8707,-3.8707,-3.9551,-4.113,-4.1791,-4.2598,-4.3497,-4.3497,-4.3497,-4.3497,-4.3497,-4.3497,-4.3497,-4.3497,-4.3497,-4.3571,-4.425,-4.4488,-4.4635,-4.5571,-4.5461,-4.5057,-4.6012,-4.5865,-4.559,-4.6911,-4.6856,-4.6599,-4.7939,-4.7829,-4.748,-4.8141,-4.8306,-4.8306,-4.8306,-4.8306,-4.8306,-4.8306,-4.8306,-4.8306,-4.8306,-4.8306,-4.8306,-4.8306,-4.8306,-4.8306,-4.8306,-4.8306,-4.8306,-4.8306,-4.8306,-4.8306,-4.8306,-4.8306,-4.8306,-4.8306,-4.8306,-4.8306,-4.8306,-4.8306,-4.8306,-4.8306,-4.8306,-4.8382,-4.855,-4.855,-4.855,-4.8569,-4.8569,-4.8605,-4.8587,-4.8605,-4.8605,-3.0871,0.0,-3.0975,-3.0975,-3.1736,-3.2611,-3.3254,-3.4049,-3.4793,-3.5351,-3.5723,-3.569,-3.4928,-3.5508,-3.6055,-3.5851,-3.6122,-3.6285,-3.6182,-3.6276,-3.6301,-3.6301,-3.6638,-3.6741,-3.6343,-3.6766,-3.6864,-3.6343,-3.7044,-3.7502,-3.7505,-3.8168,-3.8596,-3.8707,-3.8707,-3.8707,-3.8707,-3.8707,-3.8707,-3.8707,-3.8707,-3.9551,-4.1111,-4.1222,-4.2084,-4.3497,-4.3497,-4.3497,-4.3497,-4.3497,-4.3497,-4.3497,-4.3497,-4.3497,-4.3497,-4.3608,-4.3644,-4.3864,-4.5369,-4.5828,-4.5993,-4.7498,-4.7921,-4.7865,-4.8086,-4.8067,-4.8031,-4.8251,-4.8233,-4.8159,-4.8269,-4.8306,-4.8306,-4.8306,-4.8306,-4.8306,-4.8306,-4.8306,-4.8306,-4.8306,-4.8306,-4.8306,-4.8306,-4.8306,-4.8306,-4.8306,-4.8306,-4.8306,-4.8306,-4.8306,-4.8306,-4.8306,-4.8306,-4.8306,-4.8306,-4.8306,-4.8306,-4.8306,-4.8306,-4.8306,-4.8306,-4.8306,-4.8306,-4.8344,-4.8344,-4.8401,-4.8494,-4.8494,-4.855,-4.8587,-4.855,-4.855,-3.0952,-3.1015,-3.1112,-3.1112,-3.1692,-3.2357,-3.2696,-3.3355,-3.41,-3.4827,-3.4979,-3.5013,-3.5203,-3.5552,-3.5817,-3.5905,-3.6036,-3.6122,-3.6182,-3.6208,-3.6276,-3.6301,-3.6451,-3.6492,-3.6343,-3.6451,-3.6492,-3.6301,-3.6638,-3.6939,-3.7152,-3.7505,-3.7791,-3.8034,-3.8034,-3.8034,-3.8034,-3.8252,-3.8483,-3.8707,-3.8707,-3.9313,-4.0451,-4.0891,-4.1992,-4.3497,-4.3497,-4.3497,-4.3497,-4.3497,-4.3497,-4.3497,-4.3497,-4.3497,-4.3497,-4.3497,-4.3791,-4.4342,-4.5498,-4.5902,-4.6177,-4.7792,-4.8012,-4.7645,-4.7645,-4.7645,-4.7535,-4.7076,-4.7278,-4.7737,-4.8196,-4.8306,-4.8416,-4.8912,-4.8655,-4.8306,-4.8306,-4.8306,-4.8306,-4.8306,-4.8306,-4.8306,-4.8306,-4.8306,-4.8306,-4.8306,-4.8306,-4.8306,-4.8306,-4.8306,-4.8306,-4.8306,-4.8306,-4.8306,-4.8306,-4.8306,-4.8306,-4.8306,-4.8306,-4.8306,-4.8306,-4.8306,-4.8306,-4.8306,-4.8306,-4.8306,-4.8401,-4.8401,-4.8382,-4.842,-4.8401,-4.8382,-3.1032,-3.1112,-3.119,-3.119,-3.1596,-3.2053,-3.2239,-3.2713,-3.3372,-3.4303,-3.4489,-3.4769,-3.5576,-3.5773,-3.58,-3.5932,-3.5932,-3.5993,-3.6122,-3.6122,-3.6165,-3.6276,-3.6259,-3.6216,-3.6259,-3.6259,-3.6259,-3.6259,-3.6385,-3.6557,-3.69,-3.7017,-3.7208,-3.7505,-3.7505,-3.7505,-3.7505,-3.7913,-3.8285,-3.8707,-3.8707,-3.9129,-3.9918,-4.0744,-4.1754,-4.291,-4.3314,-4.3497,-4.3497,-4.3497,-4.3497,-4.3497,-4.3497,-4.3497,-4.3497,-4.3497,-4.3883,-4.4507,-4.5314,-4.5608,-4.5828,-4.7241,-4.7297,-4.6819,-4.6819,-4.6819,-4.6728,-4.6324,-4.6654,-4.7297,-4.8104,-4.8471,-4.8728,-4.9169,-4.893,-4.8563,-4.8361,-4.8306,-4.8306,-4.8306,-4.8306,-4.8306,-4.8306,-4.8306,-4.8306,-4.8306,-4.8306,-4.8306,-4.8306,-4.8306,-4.8306,-4.8306,-4.8306,-4.8306,-4.8306,-4.8306,-4.8306,-4.8306,-4.8306,-4.8306,-4.8306,-4.8306,-4.8306,-4.8306,-4.8306,-4.8306,-4.8306,-4.8306,-4.8306,-4.8306,-4.8306,-4.8306,-3.119,-3.119,-3.119,-3.119,-3.1224,-3.1427,-3.2121,-3.2307,-3.2747,-3.4201,-3.4489,-3.4726,-3.5487,-3.5622,-3.5667,-3.5773,-3.5817,-3.5861,-3.5975,-3.6019,-3.6079,-3.6165,-3.6062,-3.6062,-3.6165,-3.6225,-3.6225,-3.6225,-3.6615,-3.686,-3.69,-3.7283,-3.7469,-3.7505,-3.7505,-3.7505,-3.7505,-3.7913,-3.8285,-3.8707,-3.8707,-3.9129,-3.9918,-4.0744,-4.1167,-4.1313,-4.2837,-4.3497,-4.3497,-4.3497,-4.3497,-4.3497,-4.3497,-4.3497,-4.3497,-4.3497,-4.3516,-4.3663,-4.4488,-4.4764,-4.4911,-4.5755,-4.5993,-4.5957,-4.5957,-4.5957,-4.6104,-4.6838,-4.7095,-4.7297,-4.8104,-4.8912,-4.9334,-4.8545,-4.8948,-4.9297,-4.8489,-4.8306,-4.8306,-4.8306,-4.8306,-4.8306,-4.8306,-4.8306,-4.8306,-4.8306,-4.8306,-4.8306,-4.8306,-4.8306,-4.8306,-4.8306,-4.8306,-4.8306,-4.8306,-4.8306,-4.8306,-4.8306,-4.8306,-4.8306,-4.8306,-4.8306,-4.8306,-4.8306,-4.8306,-4.8306,-4.8306,-4.8306,-4.8306,-4.8306,-4.8306,-4.8306,-2.9942,-3.0125,-3.0378,-2.9905,-3.0497,-3.114,-3.0937,-3.1613,-3.2425,-3.2966,-3.3068,-3.3305,-3.4066,-3.4979,-3.5622,-3.5667,-3.5667,-3.5711,-3.5861,-3.5861,-3.5905,-3.6079,-3.6019,-3.6019,-3.6079,-3.6062,-3.6062,-3.6062,-3.6318,-3.6426,-3.6426,-3.6655,-3.6719,-3.6719,-3.6719,-3.6978,-3.7505,-3.765,-3.8034,-3.8707,-3.8707,-3.8854,-3.9166,-3.9955,-4.0322,-4.0414,-4.2029,-4.2433,-4.2011,-4.2525,-4.2727,-4.2782,-4.3296,-4.3497,-4.3497,-4.3497,-4.3497,-4.3608,-4.4415,-4.4709,-4.4837,-4.5645,-4.5902,-4.5792,-4.5296,-4.5131,-4.5076,-4.4856,-4.5168,-4.5865,-4.7205,-4.7774,-4.8049,-4.8251,-4.8545,-4.8673,-4.8379,-4.8306,-4.8306,-4.8306,-4.8306,-4.8306,-4.8306,-4.8306,-4.8306,-4.8306,-4.8306,-4.8306,-4.8306,-4.8306,-4.8306,-4.8306,-4.8306,-4.8306,-4.8306,-4.8306,-4.8306,-4.8306,-4.8306,-4.8306,-4.8306,-4.8306,-4.8306,-4.8306,-4.8306,-4.8306,-4.8306,-4.8306,-4.8306,-4.8306,-4.8306,-4.8306,-2.9844,-3.0112,-3.0362,-2.9854,-3.0277,-3.0768,-3.0531,-3.1038,-3.1681,-3.2212,-3.2313,-3.251,-3.3271,-3.4218,-3.4878,-3.4878,-3.4878,-3.4962,-3.5304,-3.5338,-3.5528,-3.5915,-3.5888,-3.5888,-3.5932,-3.5932,-3.5932,-3.5932,-3.6079,-3.6122,-3.6122,-3.6233,-3.6276,-3.6301,-3.6301,-3.6638,-3.7266,-3.7395,-3.7809,-3.8515,-3.8578,-3.8658,-3.8726,-3.9533,-3.9753,-3.957,-4.091,-4.1497,-4.1552,-4.2084,-4.2304,-4.2359,-4.2892,-4.3094,-4.313,-4.3387,-4.3497,-4.3571,-4.4103,-4.4305,-4.4397,-4.4911,-4.5094,-4.4984,-4.447,-4.4305,-4.425,-4.3975,-4.4287,-4.5149,-4.7021,-4.7737,-4.8067,-4.8618,-4.8508,-4.8306,-4.8306,-4.8306,-4.8306,-4.8306,-4.8306,-4.8306,-4.8306,-4.8306,-4.8306,-4.8306,-4.8306,-4.8306,-4.8306,-4.8306,-4.8306,-4.8306,-4.8306,-4.8306,-4.8306,-4.8306,-4.8306,-4.8306,-4.8306,-4.8306,-4.8306,-4.8306,-4.8306,-4.8306,-4.8306,-4.8306,-4.8306,-4.8306,-4.8306,-4.8306,-4.8306,-4.8306,0.0,0.0,0.0,-3.1123,-3.0615,-3.0277,-3.097,-3.0615,-3.0531,-3.1935,-3.2263,-3.2476,-3.3203,-3.3339,-3.3339,-3.3339,-3.3372,-3.366,-3.437,-3.4472,-3.4803,-3.5654,-3.565,-3.565,-3.5773,-3.5756,-3.5756,-3.5773,-3.5932,-3.5975,-3.5975,-3.6122,-3.6208,-3.6301,-3.6301,-3.6492,-3.69,-3.7226,-3.7596,-3.8068,-3.8332,-3.8528,-3.8695,-3.9465,-3.9392,-3.8713,-3.9551,-4.0781,-4.2231,-4.2231,-4.2231,-4.2231,-4.2286,-4.2304,-4.2396,-4.3185,-4.3497,-4.3497,-4.3497,-4.3497,-4.3497,-4.3497,-4.3497,-4.3497,-4.3497,-4.3497,-4.3644,-4.4452,-4.4672,-4.5223,-4.7609,-4.8893,-4.9536,-4.9536,-4.8912,-4.8306,-4.8306,-4.8306,-4.8306,-4.8306,-4.8306,-4.8306,-4.8306,-4.8306,-4.8306,-4.8306,-4.8306,-4.8306,-4.8306,-4.8306,-4.8324,-4.8343,-4.8343,-4.8361,-4.8379,-4.8361,-4.8343,-4.8343,-4.8324,-4.8306,-4.8306,-4.8306,-4.8306,-4.8306,-4.8306,-4.8306,-4.8306,-4.8306,-4.8306,-4.8306,-4.8306,-4.8306,-2.998,0.0,0.0,0.0,0.0,0.0,-2.9705,-3.0277,-3.0852,-3.0734,-3.1123,-3.1562,-3.1765,-3.1799,-3.1799,-3.1799,-3.2713,-3.3474,-3.3677,-3.4167,-3.4573,-3.482,-3.481,-3.503,-3.5616,-3.5176,-3.5074,-3.5633,-3.5756,-3.5861,-3.5861,-3.5975,-3.6062,-3.6105,-3.6088,-3.6301,-3.6661,-3.6781,-3.7076,-3.7506,-3.7542,-3.7614,-3.7685,-3.8164,-3.8282,-3.8186,-3.9341,-4.0093,-4.0561,-4.0561,-4.0561,-4.0671,-4.1846,-4.2304,-4.2396,-4.3185,-4.3497,-4.3497,-4.3497,-4.3497,-4.3497,-4.3497,-4.3497,-4.3497,-4.3497,-4.3497,-4.3534,-4.3754,-4.3828,-4.425,-4.6085,-4.7609,-4.8655,-4.8655,-4.8489,-4.8306,-4.8306,-4.8306,-4.8306,-4.8306,-4.8306,-4.8306,-4.8306,-4.8306,-4.8306,-4.8306,-4.8306,-4.8306,-4.8306,-4.8306,-4.8545,-4.9169,-4.9224,-4.9481,-5.0068,-4.9572,-4.9224,-4.9224,-4.8655,-4.8306,-4.8306,-4.8306,-4.8306,-4.8306,-4.8306,-4.8306,-4.8306,-4.8306,-4.8306,-4.8306,-4.8306,-4.8306,-3.0381,-3.06,-3.0748,-3.0214,0.0,0.0,-3.0088,-3.0442,-3.076,-3.0713,-3.0963,-3.115,-3.0862,-3.0772,-3.0734,-3.0734,-3.1461,-3.2239,-3.2848,-3.3305,-3.3694,-3.3998,-3.4032,-3.4218,-3.4658,-3.4303,-3.4353,-3.5098,-3.4922,-3.4839,-3.4899,-3.5564,-3.5795,-3.5531,-3.5865,-3.6088,-3.6367,-3.6457,-3.6684,-3.702,-3.7097,-3.7173,-3.7268,-3.747,-3.7596,-3.765,-3.8435,-3.8858,-3.9057,-3.8873,-3.9243,-3.9997,-4.128,-4.1776,-4.1904,-4.3075,-4.3497,-4.3497,-4.3497,-4.3497,-4.3497,-4.3497,-4.3497,-4.3497,-4.3497,-4.3497,-4.3497,-4.3497,-4.4232,-4.5149,-4.5736,-4.7352,-4.8746,-4.8398,-4.8306,-4.8306,-4.8306,-4.8306,-4.8306,-4.8306,-4.8306,-4.8306,-4.8306,-4.8306,-4.8306,-4.8306,-4.8306,-4.8306,-4.8306,-4.8306,-4.8489,-4.9003,-4.9058,-4.9242,-4.9719,-4.9334,-4.9058,-4.9058,-4.8581,-4.8306,-4.8306,-4.8306,-4.8306,-4.8306,-4.8306,-4.8306,-4.8306,-4.8306,-4.8306,-4.8306,-4.8306,-4.8306,-3.1647,-3.1688,-3.1555,-3.1517,-3.0861,0.0,-3.1189,-3.0708,-3.0313,-3.1086,-3.1151,-3.0853,-3.0207,-3.0031,-3.0006,-3.0091,-3.0108,-3.0598,-3.1968,-3.2263,-3.2527,-3.3203,-3.3288,-3.3322,-3.3389,-3.3339,-3.3575,-3.432,-3.3778,-3.3448,-3.359,-3.4805,-3.5273,-3.4738,-3.5395,-3.5719,-3.5719,-3.6027,-3.6253,-3.6377,-3.6711,-3.6904,-3.7038,-3.7076,-3.7097,-3.7114,-3.723,-3.7488,-3.779,-3.7452,-3.8204,-3.967,-4.0613,-4.0961,-4.1129,-4.2858,-4.3497,-4.3497,-4.3497,-4.3497,-4.3497,-4.3497,-4.3497,-4.3497,-4.3497,-4.3497,-4.3497,-4.3497,-4.5168,-4.6819,-4.6085,-4.7664,-4.9242,-4.8489,-4.8306,-4.8306,-4.8306,-4.8306,-4.8306,-4.8306,-4.8306,-4.8306,-4.8306,-4.8306,-4.8306,-4.8306,-4.8306,-4.8306,-4.8306,-4.8306,-4.8343,-4.8434,-4.8434,-4.8489,-4.8581,-4.8508,-4.8434,-4.8434,-4.8361,-4.8306,-4.8306,-4.8306,-4.8306,-4.8306,-4.8306,-4.8361,-4.8434,-4.8361,-4.8306,-4.8306,-4.8306,-4.8361,-3.1877,-3.1839,-3.1802,-3.1617,-3.1013,0.0,-3.0597,-2.9997,-2.9431,-2.9549,-2.9527,-2.9457,-2.9285,-2.9231,-2.9397,-3.0006,-3.0108,-3.0412,-3.1275,-3.1918,-3.2364,-3.2493,-3.2493,-3.273,-3.3339,-3.2848,-3.2814,-3.3558,-3.3491,-3.3406,-3.3448,-3.3719,-3.3821,-3.371,-3.3846,-3.3931,-3.3931,-3.4533,-3.4925,-3.507,-3.5608,-3.5941,-3.6088,-3.6367,-3.6516,-3.6563,-3.6904,-3.7173,-3.7323,-3.7248,-3.7631,-3.8411,-3.9842,-4.0384,-4.0672,-4.2684,-4.3446,-4.3497,-4.3497,-4.3497,-4.3497,-4.3497,-4.3497,-4.3497,-4.3497,-4.3497,-4.3497,-4.3497,-4.4764,-4.6104,-4.5938,-4.7223,-4.8508,-4.8343,-4.8306,-4.8306,-4.8306,-4.8306,-4.8306,-4.8306,-4.8306,-4.8306,-4.8306,-4.8306,-4.8306,-4.8306,-4.8306,-4.8306,-4.8306,-4.8306,-4.8563,-4.926,-4.9334,-4.9609,-5.027,-4.9719,-4.9334,-4.9334,-4.8691,-4.8306,-4.8306,-4.8306,-4.8306,-4.8306,-4.8306,-4.8655,-4.9334,-4.8636,-4.8306,-4.8306,-4.8306,-4.8673,-3.2055,-3.1984,-3.1858,-3.1748,-3.1399,0.0,0.0,-3.0465,-3.0272,-2.986,-3.0063,-3.016,-2.9695,-2.957,-2.9668,-3.004,-3.0108,-3.0362,-3.1089,-3.1512,-3.1732,-3.1732,-3.1732,-3.1884,-3.2273,-3.1968,-3.1901,-3.2273,-3.2983,-3.3085,-3.2341,-3.3,-3.3237,-3.2848,-3.322,-3.3406,-3.3406,-3.3778,-3.4176,-3.4592,-3.4922,-3.5267,-3.5728,-3.5871,-3.5941,-3.6028,-3.6291,-3.6563,-3.6803,-3.658,-3.6764,-3.7314,-3.9124,-4.0016,-4.0474,-4.2359,-4.3232,-4.3497,-4.3497,-4.3497,-4.3497,-4.3497,-4.3497,-4.3497,-4.3497,-4.3497,-4.3571,-4.3993,-4.4966,-4.5993,-4.6397,-4.7388,-4.8306,-4.8306,-4.8306,-4.8306,-4.8306,-4.8306,-4.8306,-4.8306,-4.8306,-4.8306,-4.8306,-4.8306,-4.8306,-4.8306,-4.8306,-4.8306,-4.8306,-4.8306,-4.8471,-4.8893,-4.8948,-4.9114,-4.9517,-4.9572,-4.9389,-4.8967,-4.8948,-4.8746,-4.8324,-4.8306,-4.8306,-4.8306,-4.8306,-4.8526,-4.8948,-4.8508,-4.8526,-4.8948,-4.8948,-4.9389,-3.2214,-3.2091,-3.1948,-3.1894,-3.1785,-3.1537,0.0,0.0,0.0,-3.045,-3.072,-3.0834,-2.9955,-2.9844,-2.9959,-3.0112,-3.0146,-3.0362,-3.1111,-3.119,-3.1241,-3.1376,-3.1275,-3.1258,-3.1393,-3.1529,-3.1512,-3.1207,-3.2696,-3.2916,-3.1275,-3.2459,-3.2848,-3.2087,-3.2662,-3.2983,-3.2983,-3.3119,-3.3558,-3.4286,-3.4421,-3.4895,-3.5622,-3.5622,-3.5622,-3.5622,-3.5711,-3.5958,-3.6224,-3.5888,-3.5958,-3.6446,-3.8526,-3.9629,-4.0288,-4.2021,-4.3014,-4.3497,-4.3497,-4.3497,-4.3497,-4.3497,-4.3497,-4.3497,-4.3497,-4.3497,-4.3663,-4.447,-4.5278,-4.6085,-4.6911,-4.7719,-4.8306,-4.8306,-4.8306,-4.8306,-4.8306,-4.8306,-4.8306,-4.8306,-4.8306,-4.8306,-4.8306,-4.8306,-4.8306,-4.8306,-4.8306,-4.8306,-4.8306,-4.8306,-4.8306,-4.8306,-4.8306,-4.8306,-4.8306,-4.9095,-4.9224,-4.8361,-4.9114,-4.9205,-4.8343,-4.8471,-4.8545,-4.8545,-4.871,-4.871,-4.8545,-4.8545,-4.882,-4.9334,-4.9499,-4.9939,-3.2214,-3.2179,-3.2144,-3.193,-3.1894,-3.1841,-3.1716,0.0,-3.0557,-2.9695,0.0,-2.9368,-2.851,0.0,0.0,-3.0233,-3.0221,-3.04,-3.1172,-3.1252,-3.1427,-3.2087,-3.1596,-3.1444,-3.2087,-3.2763,-3.2611,-3.1292,-3.3169,-3.344,-3.1309,-3.1968,-3.207,-3.1343,-3.141,-3.1444,-3.1444,-3.2087,-3.278,-3.3541,-3.4184,-3.4895,-3.5622,-3.5622,-3.5622,-3.5622,-3.5622,-3.5667,-3.5711,-3.5622,-3.5667,-3.5892,-3.7895,-3.9115,-3.9886,-4.183,-4.294,-4.3497,-4.3497,-4.3463,-4.3411,-4.3463,-4.3497,-4.3497,-4.3497,-4.3497,-4.3663,-4.447,-4.5278,-4.6085,-4.6911,-4.7719,-4.8306,-4.8306,-4.8306,-4.8306,-4.8306,-4.8306,-4.8306,-4.8306,-4.8306,-4.8306,-4.8306,-4.8306,-4.8306,-4.8306,-4.8306,-4.8306,-4.8306,-4.8306,-4.8306,-4.8306,-4.8306,-4.8306,-4.8306,-4.9095,-4.9224,-4.8361,-4.9114,-4.9205,-4.8343,-4.904,-4.9426,-4.9426,-5.0141,-5.016,-4.9426,-4.9426,-4.9095,-4.8471,-4.9224,-4.9627,-3.2319,-3.2267,-3.2179,-3.2108,-3.202,-3.188,-3.1393,-3.1011,-3.0508,-2.9627,0.0,0.0,0.0,0.0,0.0,0.0,-3.1321,-3.1521,-3.1423,-3.172,-3.1862,-3.1704,-3.1376,-3.1309,-3.1613,-3.1935,-3.1867,-3.1241,-3.2053,-3.2171,-3.1241,-3.1478,-3.1512,-3.1207,-3.119,-3.119,-3.119,-3.1495,-3.2239,-3.3406,-3.3711,-3.4472,-3.5622,-3.5622,-3.5622,-3.5622,-3.5622,-3.5622,-3.5622,-3.5622,-3.5622,-3.5723,-3.7019,-3.819,-3.9287,-4.0795,-4.2049,-4.305,-4.3268,-4.3376,-4.3376,-4.3446,-4.3463,-4.3497,-4.3497,-4.3497,-4.3754,-4.5039,-4.5645,-4.6195,-4.748,-4.8067,-4.8306,-4.8306,-4.8306,-4.8306,-4.8306,-4.8306,-4.8306,-4.8306,-4.8306,-4.8306,-4.8306,-4.8306,-4.8306,-4.8306,-4.8306,-4.8306,-4.8306,-4.8306,-4.8306,-4.8306,-4.8306,-4.8306,-4.8306,-4.9536,-4.9719,-4.8379,-4.9114,-4.9426,-4.9058,-4.9848,-4.9829,-4.8857,-4.9664,-4.9682,-4.8838,-4.8838,-4.8655,-4.8343,-4.9664,-5.0545,-3.2335,-3.2319,-3.2267,-3.2214,-3.2144,-3.1969,-3.1377,-3.1185,-3.0907,-3.0076,-3.042,0.0,0.0,0.0,-3.1794,-3.161,0.0,-3.2679,-3.1965,-3.2247,-3.2304,-3.1642,-3.1681,-3.1799,-3.1799,-3.2171,-3.2239,-3.1833,-3.2374,-3.2357,-3.1546,-3.1681,-3.1613,-3.1207,-3.1393,-3.1393,-3.119,-3.1393,-3.2036,-3.3102,-3.3305,-3.4083,-3.5318,-3.552,-3.5622,-3.5622,-3.5622,-3.5622,-3.5622,-3.5622,-3.5622,-3.5673,-3.6231,-3.7194,-3.8328,-3.9708,-4.1163,-4.2538,-4.2796,-4.3104,-4.3394,-4.3376,-4.3539,-4.3828,-4.3828,-4.3975,-4.4397,-4.5571,-4.6067,-4.6544,-4.7939,-4.8306,-4.8306,-4.8306,-4.8306,-4.8306,-4.8306,-4.8306,-4.8306,-4.8306,-4.8306,-4.8306,-4.8306,-4.8306,-4.8306,-4.8306,-4.8306,-4.8306,-4.8306,-4.8306,-4.8306,-4.8306,-4.8306,-4.8306,-4.8306,-4.9848,-5.038,-4.9389,-4.9701,-4.9921,-4.9921,-5.049,-5.0123,-4.8673,-4.9481,-4.9389,-4.8306,-4.8545,-4.8526,-4.8343,-4.9793,-5.0784,-3.2212,-3.2406,-3.2354,-3.2214,-3.2179,-3.2179,-3.2073,-3.2073,-3.1812,-3.1011,-3.1393,-3.1652,-3.0924,-3.1886,-3.2565,-3.1883,-3.2882,0.0,0.0,-3.265,-3.2571,-3.2468,-3.2957,-3.3339,-3.3339,-3.4641,-3.4895,-3.344,-3.5368,-3.5334,-3.2432,-3.2933,-3.2679,-3.1241,-3.1884,-3.1901,-3.1207,-3.1901,-3.2313,-3.2324,-3.3051,-3.3795,-3.4556,-3.5284,-3.5622,-3.5622,-3.5622,-3.5622,-3.5622,-3.5622,-3.5622,-3.5622,-3.5639,-3.6129,-3.7058,-3.8786,-4.0533,-4.2029,-4.2029,-4.2647,-4.3376,-4.3268,-4.387,-4.4672,-4.4672,-4.5223,-4.5828,-4.5883,-4.6471,-4.726,-4.8086,-4.8306,-4.8306,-4.8306,-4.8306,-4.8306,-4.8306,-4.8306,-4.8306,-4.8306,-4.8306,-4.8306,-4.8306,-4.8306,-4.8306,-4.8306,-4.8306,-4.8306,-4.8306,-4.8306,-4.8306,-4.8306,-4.8306,-4.8306,-4.8306,-4.9848,-5.1114,-5.183,-5.1169,-5.0765,-5.0765,-5.0784,-5.0398,-4.9554,-5.0343,-4.9958,-4.8306,-4.9132,-4.9114,-4.8324,-4.9205,-4.9627,-3.1535,-3.1681,-3.1721,-3.2213,-3.2319,-3.2319,-3.2319,-3.1847,-3.1358,-3.1096,-3.115,-3.115,-3.0907,-3.16,-3.2323,-3.2619,-3.3421,-3.3739,0.0,-3.232,-3.2273,-3.3202,-3.2937,-3.2662,-3.2662,-3.2679,-3.2679,-3.2662,-3.2916,-3.2848,-3.2307,-3.2527,-3.2425,-3.1935,-3.1681,-3.1444,-3.119,-3.1444,-3.1799,-3.229,-3.3051,-3.3795,-3.4523,-3.5267,-3.5622,-3.5622,-3.5622,-3.5622,-3.5622,-3.5622,-3.5622,-3.5622,-3.5622,-3.5953,-3.6612,-3.7741,-3.8835,-3.9975,-4.1133,-4.2304,-4.3342,-4.3853,-4.4309,-4.4709,-4.4709,-4.5259,-4.5902,-4.5902,-4.6489,-4.7297,-4.8104,-4.8306,-4.8306,-4.8306,-4.8306,-4.8306,-4.8306,-4.8306,-4.8306,-4.8306,-4.8306,-4.8306,-4.8306,-4.8306,-4.8306,-4.8306,-4.8306,-4.8306,-4.8306,-4.8306,-4.8306,-4.8306,-4.8306,-4.8306,-4.8306,-4.882,-4.9958,-5.1867,-5.1242,-5.0802,-5.0802,-5.1316,-5.0692,-4.8783,-4.9554,-4.9444,-4.8306,-4.86,-4.86,-4.8324,-4.86,-4.904,-3.1257,-3.1553,-3.1751,-3.1948,-3.2177,-3.2406,-3.2406,-3.1985,-3.1549,-3.1549,-3.1446,-3.1376,-3.1376,-3.2124,-3.2746,-3.2674,-3.3744,-3.415,0.0,-3.2414,-3.2351,-3.3248,-3.3019,-3.2863,-3.3175,-3.2727,-3.2381,-3.2388,-3.2381,-3.2222,-3.1918,-3.2391,-3.2442,-3.1861,-3.1681,-3.1444,-3.1112,-3.1444,-3.1681,-3.1901,-3.2645,-3.3389,-3.4134,-3.4878,-3.5368,-3.5622,-3.5622,-3.5622,-3.5622,-3.5622,-3.5622,-3.5622,-3.5622,-3.5783,-3.614,-3.681,-3.7646,-3.8681,-3.9943,-4.1139,-4.2286,-4.3561,-4.4273,-4.4783,-4.5352,-4.6122,-4.6691,-4.6416,-4.6911,-4.7664,-4.8177,-4.8306,-4.8306,-4.8306,-4.8306,-4.8306,-4.8306,-4.8306,-4.8306,-4.8306,-4.8306,-4.8306,-4.8306,-4.8306,-4.8306,-4.8306,-4.8306,-4.8306,-4.8306,-4.8306,-4.8306,-4.8306,-4.8306,-4.8434,-4.8728,-4.8765,-4.9572,-5.1444,-5.1096,-5.0802,-5.0802,-5.1004,-5.049,-4.9224,-4.915,-4.9003,-4.8728,-4.8453,-4.8306,-4.8306,-4.8306,-4.86]}]]